Wetterdaten: Donnerstag, 02.08.2018
Datum Zeit Temp. A. Feuchte A. Luftdruck Regen Wind Richtung Richtung Sonnenschein ET UV Solar Taupunkt Windchill Windböen
02.08.2018 00:00 17,0 °C 92 % 1017,2 hPa 0,0 mm 1,1 km/h (1 Bft) W 276 ° 0 min 0,000 mm 0,0 UV-I 0 W/m² 15,7 °C 17,0 °C 3,2 km/h (1 Bft)
02.08.2018 00:01 17,0 °C 92 % 1017,2 hPa 0,0 mm 1,7 km/h (1 Bft) W 275 ° 0 min 0,000 mm 0,0 UV-I 0 W/m² 15,7 °C 17,0 °C 4,8 km/h (1 Bft)
02.08.2018 00:02 17,1 °C 92 % 1017,2 hPa 0,0 mm 2,6 km/h (1 Bft) W 261 ° 0 min 0,000 mm 0,0 UV-I 0 W/m² 15,8 °C 17,1 °C 4,8 km/h (1 Bft)
02.08.2018 00:03 17,1 °C 92 % 1017,2 hPa 0,0 mm 1,3 km/h (1 Bft) W 261 ° 0 min 0,000 mm 0,0 UV-I 0 W/m² 15,8 °C 17,1 °C 3,2 km/h (1 Bft)
02.08.2018 00:04 17,1 °C 92 % 1017,2 hPa 0,0 mm 1,1 km/h (1 Bft) S-SW 204 ° 0 min 0,000 mm 0,0 UV-I 0 W/m² 15,8 °C 17,1 °C 3,2 km/h (1 Bft)
02.08.2018 00:05 17,1 °C 92 % 1017,2 hPa 0,0 mm 3,4 km/h (1 Bft) S-SO 168 ° 0 min 0,000 mm 0,0 UV-I 0 W/m² 15,8 °C 17,1 °C 6,4 km/h (2 Bft)
02.08.2018 00:06 17,1 °C 92 % 1017,2 hPa 0,0 mm 3,0 km/h (1 Bft) S 186 ° 0 min 0,000 mm 0,0 UV-I 0 W/m² 15,8 °C 17,1 °C 9,7 km/h (2 Bft)
02.08.2018 00:07 17,1 °C 92 % 1017,2 hPa 0,0 mm 1,3 km/h (1 Bft) S 186 ° 0 min 0,000 mm 0,0 UV-I 0 W/m² 15,8 °C 17,1 °C 3,2 km/h (1 Bft)
02.08.2018 00:08 17,1 °C 92 % 1017,2 hPa 0,0 mm 0,4 km/h (0 Bft) S 184 ° 0 min 0,000 mm 0,0 UV-I 0 W/m² 15,8 °C 17,1 °C 3,2 km/h (1 Bft)
02.08.2018 00:09 17,1 °C 92 % 1017,2 hPa 0,0 mm 1,3 km/h (1 Bft) S 184 ° 0 min 0,000 mm 0,0 UV-I 0 W/m² 15,8 °C 17,1 °C 3,2 km/h (1 Bft)
02.08.2018 00:10 17,1 °C 92 % 1017,2 hPa 0,0 mm 2,0 km/h (1 Bft) SW 233 ° 0 min 0,000 mm 0,0 UV-I 0 W/m² 15,8 °C 17,1 °C 6,4 km/h (2 Bft)
02.08.2018 00:11 17,2 °C 92 % 1017,3 hPa 0,0 mm 1,3 km/h (1 Bft) S 186 ° 0 min 0,000 mm 0,0 UV-I 0 W/m² 15,9 °C 17,2 °C 4,8 km/h (1 Bft)
02.08.2018 00:12 17,2 °C 92 % 1017,3 hPa 0,0 mm 0,5 km/h (0 Bft) SW 233 ° 0 min 0,000 mm 0,0 UV-I 0 W/m² 15,9 °C 17,2 °C 3,2 km/h (1 Bft)
02.08.2018 00:13 17,2 °C 92 % 1017,2 hPa 0,0 mm 3,8 km/h (1 Bft) W 261 ° 0 min 0,000 mm 0,0 UV-I 0 W/m² 15,9 °C 17,2 °C 4,8 km/h (1 Bft)
02.08.2018 00:14 17,2 °C 92 % 1017,2 hPa 0,0 mm 0,3 km/h (0 Bft) W 261 ° 0 min 0,000 mm 0,0 UV-I 0 W/m² 15,9 °C 17,2 °C 3,2 km/h (1 Bft)
02.08.2018 00:15 17,2 °C 92 % 1017,2 hPa 0,0 mm 0,0 km/h (0 Bft) W 261 ° 0 min 0,000 mm 0,0 UV-I 0 W/m² 15,9 °C 17,2 °C 0,0 km/h (0 Bft)
02.08.2018 00:16 17,2 °C 92 % 1017,2 hPa 0,0 mm 0,5 km/h (0 Bft) W 261 ° 0 min 0,000 mm 0,0 UV-I 0 W/m² 15,9 °C 17,2 °C 1,6 km/h (1 Bft)
02.08.2018 00:17 17,2 °C 92 % 1017,2 hPa 0,0 mm 0,0 km/h (0 Bft) W 261 ° 0 min 0,000 mm 0,0 UV-I 0 W/m² 15,9 °C 17,2 °C 0,0 km/h (0 Bft)
02.08.2018 00:18 17,2 °C 92 % 1017,2 hPa 0,0 mm 1,1 km/h (1 Bft) W 260 ° 0 min 0,000 mm 0,0 UV-I 0 W/m² 15,9 °C 17,2 °C 3,2 km/h (1 Bft)
02.08.2018 00:19 17,2 °C 92 % 1017,1 hPa 0,0 mm 0,1 km/h (0 Bft) W 260 ° 0 min 0,000 mm 0,0 UV-I 0 W/m² 15,9 °C 17,2 °C 1,6 km/h (1 Bft)
02.08.2018 00:20 17,2 °C 92 % 1017,1 hPa 0,0 mm 0,0 km/h (0 Bft) W 260 ° 0 min 0,000 mm 0,0 UV-I 0 W/m² 15,9 °C 17,2 °C 0,0 km/h (0 Bft)
02.08.2018 00:21 17,2 °C 92 % 1017,1 hPa 0,0 mm 0,0 km/h (0 Bft) W 260 ° 0 min 0,000 mm 0,0 UV-I 0 W/m² 15,9 °C 17,2 °C 0,0 km/h (0 Bft)
02.08.2018 00:22 17,2 °C 92 % 1017,1 hPa 0,0 mm 1,0 km/h (0 Bft) S 175 ° 0 min 0,000 mm 0,0 UV-I 0 W/m² 15,9 °C 17,2 °C 3,2 km/h (1 Bft)
02.08.2018 00:23 17,2 °C 92 % 1017,1 hPa 0,0 mm 1,2 km/h (1 Bft) S 175 ° 0 min 0,000 mm 0,0 UV-I 0 W/m² 15,9 °C 17,2 °C 3,2 km/h (1 Bft)
02.08.2018 00:24 17,2 °C 92 % 1017,2 hPa 0,0 mm 0,3 km/h (0 Bft) S 175 ° 0 min 0,000 mm 0,0 UV-I 0 W/m² 15,9 °C 17,2 °C 1,6 km/h (1 Bft)
02.08.2018 00:25 17,2 °C 92 % 1017,2 hPa 0,0 mm 0,0 km/h (0 Bft) S 175 ° 0 min 0,000 mm 0,0 UV-I 0 W/m² 15,9 °C 17,2 °C 0,0 km/h (0 Bft)
02.08.2018 00:26 17,2 °C 92 % 1017,3 hPa 0,0 mm 1,5 km/h (1 Bft) S-SW 198 ° 0 min 0,000 mm 0,0 UV-I 0 W/m² 15,9 °C 17,2 °C 3,2 km/h (1 Bft)
02.08.2018 00:27 17,2 °C 92 % 1017,3 hPa 0,0 mm 0,0 km/h (0 Bft) S-SW 198 ° 0 min 0,000 mm 0,0 UV-I 0 W/m² 15,9 °C 17,2 °C 0,0 km/h (0 Bft)
02.08.2018 00:28 17,2 °C 93 % 1017,3 hPa 0,0 mm 0,0 km/h (0 Bft) S-SW 198 ° 0 min 0,000 mm 0,0 UV-I 0 W/m² 16,1 °C 17,2 °C 0,0 km/h (0 Bft)
02.08.2018 00:29 17,2 °C 93 % 1017,2 hPa 0,0 mm 0,0 km/h (0 Bft) S-SW 198 ° 0 min 0,000 mm 0,0 UV-I 0 W/m² 16,1 °C 17,2 °C 0,0 km/h (0 Bft)
02.08.2018 00:30 17,2 °C 93 % 1017,2 hPa 0,0 mm 0,0 km/h (0 Bft) S-SW 198 ° 0 min 0,000 mm 0,0 UV-I 0 W/m² 16,1 °C 17,2 °C 0,0 km/h (0 Bft)
02.08.2018 00:31 17,2 °C 93 % 1017,2 hPa 0,0 mm 0,0 km/h (0 Bft) S-SW 198 ° 0 min 0,000 mm 0,0 UV-I 0 W/m² 16,1 °C 17,2 °C 0,0 km/h (0 Bft)
02.08.2018 00:32 17,2 °C 93 % 1017,2 hPa 0,0 mm 0,0 km/h (0 Bft) S-SW 198 ° 0 min 0,000 mm 0,0 UV-I 0 W/m² 16,1 °C 17,2 °C 0,0 km/h (0 Bft)
02.08.2018 00:33 17,2 °C 93 % 1017,2 hPa 0,0 mm 8,5 km/h (2 Bft) S-SW 196 ° 0 min 0,000 mm 0,0 UV-I 0 W/m² 16,1 °C 17,2 °C 14,5 km/h (3 Bft)
02.08.2018 00:34 17,2 °C 93 % 1017,2 hPa 0,0 mm 1,8 km/h (1 Bft) S 181 ° 0 min 0,000 mm 0,0 UV-I 0 W/m² 16,1 °C 17,2 °C 8,0 km/h (2 Bft)
02.08.2018 00:35 17,3 °C 93 % 1017,2 hPa 0,0 mm 2,7 km/h (1 Bft) SW 229 ° 0 min 0,000 mm 0,0 UV-I 0 W/m² 16,2 °C 17,3 °C 8,0 km/h (2 Bft)
02.08.2018 00:36 17,3 °C 93 % 1017,2 hPa 0,0 mm 0,1 km/h (0 Bft) SW 229 ° 0 min 0,000 mm 0,0 UV-I 0 W/m² 16,2 °C 17,3 °C 1,6 km/h (1 Bft)
02.08.2018 00:37 17,3 °C 93 % 1017,1 hPa 0,0 mm 0,1 km/h (0 Bft) SW 229 ° 0 min 0,000 mm 0,0 UV-I 0 W/m² 16,2 °C 17,3 °C 1,6 km/h (1 Bft)
02.08.2018 00:38 17,3 °C 93 % 1017,1 hPa 0,0 mm 1,7 km/h (1 Bft) W-SW 249 ° 0 min 0,000 mm 0,0 UV-I 0 W/m² 16,2 °C 17,3 °C 4,8 km/h (1 Bft)
02.08.2018 00:39 17,3 °C 93 % 1017,1 hPa 0,0 mm 3,8 km/h (1 Bft) W 273 ° 0 min 0,000 mm 0,0 UV-I 0 W/m² 16,2 °C 17,3 °C 11,3 km/h (2 Bft)
02.08.2018 00:40 17,3 °C 93 % 1017,1 hPa 0,0 mm 1,9 km/h (1 Bft) W 273 ° 0 min 0,000 mm 0,0 UV-I 0 W/m² 16,2 °C 17,3 °C 4,8 km/h (1 Bft)
02.08.2018 00:41 17,3 °C 93 % 1017,1 hPa 0,0 mm 1,9 km/h (1 Bft) W 273 ° 0 min 0,000 mm 0,0 UV-I 0 W/m² 16,2 °C 17,3 °C 6,4 km/h (2 Bft)
02.08.2018 00:42 17,3 °C 93 % 1017,1 hPa 0,0 mm 0,2 km/h (0 Bft) W 273 ° 0 min 0,000 mm 0,0 UV-I 0 W/m² 16,2 °C 17,3 °C 1,6 km/h (1 Bft)
02.08.2018 00:43 17,4 °C 93 % 1017,1 hPa 0,0 mm 0,0 km/h (0 Bft) W 273 ° 0 min 0,000 mm 0,0 UV-I 0 W/m² 16,3 °C 17,4 °C 0,0 km/h (0 Bft)
02.08.2018 00:44 17,4 °C 93 % 1017,0 hPa 0,0 mm 0,1 km/h (0 Bft) W 273 ° 0 min 0,000 mm 0,0 UV-I 0 W/m² 16,3 °C 17,4 °C 1,6 km/h (1 Bft)
02.08.2018 00:45 17,4 °C 93 % 1017,0 hPa 0,0 mm 0,0 km/h (0 Bft) W 273 ° 0 min 0,000 mm 0,0 UV-I 0 W/m² 16,3 °C 17,4 °C 0,0 km/h (0 Bft)
02.08.2018 00:46 17,4 °C 93 % 1017,0 hPa 0,0 mm 0,3 km/h (0 Bft) W 273 ° 0 min 0,000 mm 0,0 UV-I 0 W/m² 16,3 °C 17,4 °C 1,6 km/h (1 Bft)
02.08.2018 00:47 17,4 °C 93 % 1017,0 hPa 0,0 mm 0,0 km/h (0 Bft) W 273 ° 0 min 0,000 mm 0,0 UV-I 0 W/m² 16,3 °C 17,4 °C 0,0 km/h (0 Bft)
02.08.2018 00:48 17,3 °C 93 % 1016,9 hPa 0,0 mm 0,0 km/h (0 Bft) W 273 ° 0 min 0,000 mm 0,0 UV-I 0 W/m² 16,2 °C 17,3 °C 0,0 km/h (0 Bft)
02.08.2018 00:49 17,3 °C 93 % 1016,9 hPa 0,0 mm 0,0 km/h (0 Bft) W 273 ° 0 min 0,000 mm 0,0 UV-I 0 W/m² 16,2 °C 17,3 °C 0,0 km/h (0 Bft)
02.08.2018 00:50 17,3 °C 93 % 1016,9 hPa 0,0 mm 0,1 km/h (0 Bft) W 273 ° 0 min 0,000 mm 0,0 UV-I 0 W/m² 16,2 °C 17,3 °C 1,6 km/h (1 Bft)
02.08.2018 00:51 17,3 °C 93 % 1016,9 hPa 0,0 mm 0,0 km/h (0 Bft) W 273 ° 0 min 0,000 mm 0,0 UV-I 0 W/m² 16,2 °C 17,3 °C 0,0 km/h (0 Bft)
02.08.2018 00:52 17,3 °C 93 % 1016,9 hPa 0,0 mm 0,0 km/h (0 Bft) W 273 ° 0 min 0,000 mm 0,0 UV-I 0 W/m² 16,2 °C 17,3 °C 0,0 km/h (0 Bft)
02.08.2018 00:53 17,3 °C 93 % 1016,9 hPa 0,0 mm 0,0 km/h (0 Bft) W 273 ° 0 min 0,000 mm 0,0 UV-I 0 W/m² 16,2 °C 17,3 °C 0,0 km/h (0 Bft)
02.08.2018 00:54 17,3 °C 93 % 1016,9 hPa 0,0 mm 0,0 km/h (0 Bft) W 273 ° 0 min 0,000 mm 0,0 UV-I 0 W/m² 16,2 °C 17,3 °C 0,0 km/h (0 Bft)
02.08.2018 00:55 17,2 °C 93 % 1016,9 hPa 0,0 mm 0,0 km/h (0 Bft) W 273 ° 0 min 0,000 mm 0,0 UV-I 0 W/m² 16,1 °C 17,2 °C 0,0 km/h (0 Bft)
02.08.2018 00:56 17,2 °C 93 % 1016,9 hPa 0,0 mm 0,5 km/h (0 Bft) W 273 ° 0 min 0,000 mm 0,0 UV-I 0 W/m² 16,1 °C 17,2 °C 1,6 km/h (1 Bft)
02.08.2018 00:57 17,2 °C 93 % 1016,9 hPa 0,0 mm 0,7 km/h (0 Bft) W 273 ° 0 min 0,000 mm 0,0 UV-I 0 W/m² 16,1 °C 17,2 °C 1,6 km/h (1 Bft)
02.08.2018 00:58 17,2 °C 93 % 1016,9 hPa 0,0 mm 0,0 km/h (0 Bft) W 273 ° 0 min 0,000 mm 0,0 UV-I 0 W/m² 16,1 °C 17,2 °C 0,0 km/h (0 Bft)
02.08.2018 00:59 17,2 °C 93 % 1017,0 hPa 0,0 mm 0,0 km/h (0 Bft) W 273 ° 0 min 0,000 mm 0,0 UV-I 0 W/m² 16,1 °C 17,2 °C 0,0 km/h (0 Bft)
02.08.2018 01:00 17,2 °C 93 % 1016,9 hPa 0,0 mm 0,0 km/h (0 Bft) W 273 ° 0 min 0,000 mm 0,0 UV-I 0 W/m² 16,1 °C 17,2 °C 0,0 km/h (0 Bft)
02.08.2018 01:01 17,2 °C 93 % 1016,9 hPa 0,0 mm 0,0 km/h (0 Bft) W 273 ° 0 min 0,000 mm 0,0 UV-I 0 W/m² 16,1 °C 17,2 °C 0,0 km/h (0 Bft)
02.08.2018 01:02 17,2 °C 93 % 1017,0 hPa 0,0 mm 0,0 km/h (0 Bft) W 273 ° 0 min 0,000 mm 0,0 UV-I 0 W/m² 16,1 °C 17,2 °C 0,0 km/h (0 Bft)
02.08.2018 01:03 17,2 °C 93 % 1017,0 hPa 0,0 mm 0,0 km/h (0 Bft) W 273 ° 0 min 0,000 mm 0,0 UV-I 0 W/m² 16,1 °C 17,2 °C 0,0 km/h (0 Bft)
02.08.2018 01:04 17,2 °C 93 % 1017,0 hPa 0,0 mm 0,0 km/h (0 Bft) W 273 ° 0 min 0,000 mm 0,0 UV-I 0 W/m² 16,1 °C 17,2 °C 0,0 km/h (0 Bft)
02.08.2018 01:05 17,3 °C 93 % 1017,1 hPa 0,0 mm 0,0 km/h (0 Bft) W 273 ° 0 min 0,000 mm 0,0 UV-I 0 W/m² 16,2 °C 17,3 °C 0,0 km/h (0 Bft)
02.08.2018 01:06 17,2 °C 93 % 1017,1 hPa 0,0 mm 0,0 km/h (0 Bft) W 273 ° 0 min 0,000 mm 0,0 UV-I 0 W/m² 16,1 °C 17,2 °C 0,0 km/h (0 Bft)
02.08.2018 01:07 17,2 °C 93 % 1017,1 hPa 0,0 mm 0,0 km/h (0 Bft) W 273 ° 0 min 0,000 mm 0,0 UV-I 0 W/m² 16,1 °C 17,2 °C 0,0 km/h (0 Bft)
02.08.2018 01:08 17,2 °C 93 % 1017,0 hPa 0,0 mm 0,0 km/h (0 Bft) W 273 ° 0 min 0,000 mm 0,0 UV-I 0 W/m² 16,1 °C 17,2 °C 0,0 km/h (0 Bft)
02.08.2018 01:09 17,2 °C 93 % 1017,1 hPa 0,0 mm 0,0 km/h (0 Bft) W 273 ° 0 min 0,000 mm 0,0 UV-I 0 W/m² 16,1 °C 17,2 °C 0,0 km/h (0 Bft)
02.08.2018 01:10 17,2 °C 93 % 1017,1 hPa 0,0 mm 0,0 km/h (0 Bft) W 273 ° 0 min 0,000 mm 0,0 UV-I 0 W/m² 16,1 °C 17,2 °C 0,0 km/h (0 Bft)
02.08.2018 01:11 17,2 °C 93 % 1017,1 hPa 0,0 mm 0,0 km/h (0 Bft) W 273 ° 0 min 0,000 mm 0,0 UV-I 0 W/m² 16,1 °C 17,2 °C 0,0 km/h (0 Bft)
02.08.2018 01:12 17,2 °C 93 % 1017,0 hPa 0,0 mm 0,0 km/h (0 Bft) W 273 ° 0 min 0,000 mm 0,0 UV-I 0 W/m² 16,1 °C 17,2 °C 0,0 km/h (0 Bft)
02.08.2018 01:13 17,2 °C 93 % 1017,0 hPa 0,0 mm 0,0 km/h (0 Bft) W 273 ° 0 min 0,000 mm 0,0 UV-I 0 W/m² 16,1 °C 17,2 °C 0,0 km/h (0 Bft)
02.08.2018 01:14 17,2 °C 93 % 1016,9 hPa 0,0 mm 0,0 km/h (0 Bft) W 273 ° 0 min 0,000 mm 0,0 UV-I 0 W/m² 16,1 °C 17,2 °C 0,0 km/h (0 Bft)
02.08.2018 01:15 17,2 °C 93 % 1017,0 hPa 0,0 mm 0,0 km/h (0 Bft) W 273 ° 0 min 0,000 mm 0,0 UV-I 0 W/m² 16,1 °C 17,2 °C 0,0 km/h (0 Bft)
02.08.2018 01:16 17,2 °C 93 % 1017,0 hPa 0,0 mm 0,3 km/h (0 Bft) W 273 ° 0 min 0,000 mm 0,0 UV-I 0 W/m² 16,1 °C 17,2 °C 1,6 km/h (1 Bft)
02.08.2018 01:17 17,2 °C 93 % 1017,0 hPa 0,0 mm 1,3 km/h (1 Bft) W 273 ° 0 min 0,000 mm 0,0 UV-I 0 W/m² 16,1 °C 17,2 °C 1,6 km/h (1 Bft)
02.08.2018 01:18 17,1 °C 93 % 1017,0 hPa 0,0 mm 0,1 km/h (0 Bft) W 273 ° 0 min 0,000 mm 0,0 UV-I 0 W/m² 16,0 °C 17,1 °C 1,6 km/h (1 Bft)
02.08.2018 01:19 17,2 °C 93 % 1017,0 hPa 0,0 mm 0,4 km/h (0 Bft) W 273 ° 0 min 0,000 mm 0,0 UV-I 0 W/m² 16,1 °C 17,2 °C 1,6 km/h (1 Bft)
02.08.2018 01:20 17,2 °C 94 % 1016,9 hPa 0,0 mm 1,3 km/h (1 Bft) W 272 ° 0 min 0,000 mm 0,0 UV-I 0 W/m² 16,2 °C 17,2 °C 3,2 km/h (1 Bft)
02.08.2018 01:21 17,2 °C 93 % 1017,0 hPa 0,0 mm 0,5 km/h (0 Bft) W 272 ° 0 min 0,000 mm 0,0 UV-I 0 W/m² 16,1 °C 17,2 °C 1,6 km/h (1 Bft)
02.08.2018 01:22 17,2 °C 94 % 1017,0 hPa 0,0 mm 0,0 km/h (0 Bft) W 272 ° 0 min 0,000 mm 0,0 UV-I 0 W/m² 16,2 °C 17,2 °C 0,0 km/h (0 Bft)
02.08.2018 01:23 17,2 °C 93 % 1017,0 hPa 0,0 mm 0,0 km/h (0 Bft) W 272 ° 0 min 0,000 mm 0,0 UV-I 0 W/m² 16,1 °C 17,2 °C 0,0 km/h (0 Bft)
02.08.2018 01:24 17,2 °C 93 % 1017,0 hPa 0,0 mm 0,0 km/h (0 Bft) W 272 ° 0 min 0,000 mm 0,0 UV-I 0 W/m² 16,1 °C 17,2 °C 0,0 km/h (0 Bft)
02.08.2018 01:25 17,2 °C 93 % 1016,9 hPa 0,0 mm 0,0 km/h (0 Bft) W 272 ° 0 min 0,000 mm 0,0 UV-I 0 W/m² 16,1 °C 17,2 °C 0,0 km/h (0 Bft)
02.08.2018 01:26 17,2 °C 93 % 1016,9 hPa 0,0 mm 0,0 km/h (0 Bft) W 272 ° 0 min 0,000 mm 0,0 UV-I 0 W/m² 16,1 °C 17,2 °C 0,0 km/h (0 Bft)
02.08.2018 01:27 17,2 °C 93 % 1017,0 hPa 0,0 mm 0,0 km/h (0 Bft) W 272 ° 0 min 0,000 mm 0,0 UV-I 0 W/m² 16,1 °C 17,2 °C 0,0 km/h (0 Bft)
02.08.2018 01:28 17,2 °C 93 % 1017,0 hPa 0,0 mm 0,0 km/h (0 Bft) W 272 ° 0 min 0,000 mm 0,0 UV-I 0 W/m² 16,1 °C 17,2 °C 0,0 km/h (0 Bft)
02.08.2018 01:29 17,2 °C 93 % 1016,9 hPa 0,0 mm 0,0 km/h (0 Bft) W 272 ° 0 min 0,000 mm 0,0 UV-I 0 W/m² 16,1 °C 17,2 °C 0,0 km/h (0 Bft)
02.08.2018 01:30 17,1 °C 93 % 1017,0 hPa 0,0 mm 0,0 km/h (0 Bft) W 272 ° 0 min 0,000 mm 0,0 UV-I 0 W/m² 16,0 °C 17,1 °C 0,0 km/h (0 Bft)
02.08.2018 01:31 17,2 °C 94 % 1016,9 hPa 0,0 mm 0,0 km/h (0 Bft) W 272 ° 0 min 0,000 mm 0,0 UV-I 0 W/m² 16,2 °C 17,2 °C 0,0 km/h (0 Bft)
02.08.2018 01:32 17,2 °C 94 % 1017,0 hPa 0,0 mm 0,0 km/h (0 Bft) W 272 ° 0 min 0,000 mm 0,0 UV-I 0 W/m² 16,2 °C 17,2 °C 0,0 km/h (0 Bft)
02.08.2018 01:33 17,1 °C 94 % 1017,0 hPa 0,0 mm 0,0 km/h (0 Bft) W 272 ° 0 min 0,000 mm 0,0 UV-I 0 W/m² 16,1 °C 17,1 °C 0,0 km/h (0 Bft)
02.08.2018 01:34 17,1 °C 94 % 1017,0 hPa 0,0 mm 0,0 km/h (0 Bft) W 272 ° 0 min 0,000 mm 0,0 UV-I 0 W/m² 16,1 °C 17,1 °C 0,0 km/h (0 Bft)
02.08.2018 01:35 17,1 °C 94 % 1017,0 hPa 0,0 mm 0,0 km/h (0 Bft) W 272 ° 0 min 0,000 mm 0,0 UV-I 0 W/m² 16,1 °C 17,1 °C 0,0 km/h (0 Bft)
02.08.2018 01:36 17,1 °C 94 % 1017,0 hPa 0,0 mm 0,5 km/h (0 Bft) W 272 ° 0 min 0,000 mm 0,0 UV-I 0 W/m² 16,1 °C 17,1 °C 1,6 km/h (1 Bft)
02.08.2018 01:37 17,1 °C 94 % 1017,0 hPa 0,0 mm 0,1 km/h (0 Bft) W 272 ° 0 min 0,000 mm 0,0 UV-I 0 W/m² 16,1 °C 17,1 °C 1,6 km/h (1 Bft)
02.08.2018 01:38 17,2 °C 94 % 1017,1 hPa 0,0 mm 0,0 km/h (0 Bft) W 272 ° 0 min 0,000 mm 0,0 UV-I 0 W/m² 16,2 °C 17,2 °C 0,0 km/h (0 Bft)
02.08.2018 01:39 17,1 °C 94 % 1017,0 hPa 0,0 mm 0,0 km/h (0 Bft) W 272 ° 0 min 0,000 mm 0,0 UV-I 0 W/m² 16,1 °C 17,1 °C 0,0 km/h (0 Bft)
02.08.2018 01:40 17,2 °C 94 % 1017,0 hPa 0,0 mm 0,0 km/h (0 Bft) W 272 ° 0 min 0,000 mm 0,0 UV-I 0 W/m² 16,2 °C 17,2 °C 0,0 km/h (0 Bft)
02.08.2018 01:41 17,2 °C 94 % 1017,0 hPa 0,0 mm 0,0 km/h (0 Bft) W 272 ° 0 min 0,000 mm 0,0 UV-I 0 W/m² 16,2 °C 17,2 °C 0,0 km/h (0 Bft)
02.08.2018 01:42 17,2 °C 94 % 1017,0 hPa 0,0 mm 0,0 km/h (0 Bft) W 272 ° 0 min 0,000 mm 0,0 UV-I 0 W/m² 16,2 °C 17,2 °C 0,0 km/h (0 Bft)
02.08.2018 01:43 17,2 °C 94 % 1016,9 hPa 0,0 mm 0,0 km/h (0 Bft) W 272 ° 0 min 0,000 mm 0,0 UV-I 0 W/m² 16,2 °C 17,2 °C 0,0 km/h (0 Bft)
02.08.2018 01:44 17,2 °C 94 % 1016,9 hPa 0,0 mm 0,0 km/h (0 Bft) W 272 ° 0 min 0,000 mm 0,0 UV-I 0 W/m² 16,2 °C 17,2 °C 0,0 km/h (0 Bft)
02.08.2018 01:45 17,2 °C 94 % 1017,0 hPa 0,0 mm 0,0 km/h (0 Bft) W 272 ° 0 min 0,000 mm 0,0 UV-I 0 W/m² 16,2 °C 17,2 °C 0,0 km/h (0 Bft)
02.08.2018 01:46 17,2 °C 94 % 1017,0 hPa 0,0 mm 0,0 km/h (0 Bft) W 272 ° 0 min 0,000 mm 0,0 UV-I 0 W/m² 16,2 °C 17,2 °C 0,0 km/h (0 Bft)
02.08.2018 01:47 17,2 °C 94 % 1016,9 hPa 0,0 mm 0,9 km/h (0 Bft) W 272 ° 0 min 0,000 mm 0,0 UV-I 0 W/m² 16,2 °C 17,2 °C 4,8 km/h (1 Bft)
02.08.2018 01:48 17,2 °C 94 % 1016,9 hPa 0,0 mm 0,2 km/h (0 Bft) W 272 ° 0 min 0,000 mm 0,0 UV-I 0 W/m² 16,2 °C 17,2 °C 1,6 km/h (1 Bft)
02.08.2018 01:49 17,1 °C 94 % 1016,8 hPa 0,0 mm 0,7 km/h (0 Bft) W 272 ° 0 min 0,000 mm 0,0 UV-I 0 W/m² 16,1 °C 17,1 °C 3,2 km/h (1 Bft)
02.08.2018 01:50 17,1 °C 94 % 1016,8 hPa 0,0 mm 1,1 km/h (1 Bft) W 272 ° 0 min 0,000 mm 0,0 UV-I 0 W/m² 16,1 °C 17,1 °C 3,2 km/h (1 Bft)
02.08.2018 01:51 17,1 °C 94 % 1016,8 hPa 0,0 mm 0,3 km/h (0 Bft) W 272 ° 0 min 0,000 mm 0,0 UV-I 0 W/m² 16,1 °C 17,1 °C 1,6 km/h (1 Bft)
02.08.2018 01:52 17,1 °C 94 % 1016,8 hPa 0,0 mm 0,0 km/h (0 Bft) W 272 ° 0 min 0,000 mm 0,0 UV-I 0 W/m² 16,1 °C 17,1 °C 0,0 km/h (0 Bft)
02.08.2018 01:53 17,1 °C 94 % 1016,8 hPa 0,0 mm 1,2 km/h (1 Bft) W 272 ° 0 min 0,000 mm 0,0 UV-I 0 W/m² 16,1 °C 17,1 °C 3,2 km/h (1 Bft)
02.08.2018 01:54 17,1 °C 94 % 1016,8 hPa 0,0 mm 2,4 km/h (1 Bft) W 271 ° 0 min 0,000 mm 0,0 UV-I 0 W/m² 16,1 °C 17,1 °C 6,4 km/h (2 Bft)
02.08.2018 01:55 17,1 °C 94 % 1016,8 hPa 0,0 mm 5,8 km/h (2 Bft) S-SW 199 ° 0 min 0,000 mm 0,0 UV-I 0 W/m² 16,1 °C 17,1 °C 8,0 km/h (2 Bft)
02.08.2018 01:56 17,1 °C 94 % 1016,8 hPa 0,0 mm 2,8 km/h (1 Bft) S-SW 204 ° 0 min 0,000 mm 0,0 UV-I 0 W/m² 16,1 °C 17,1 °C 6,4 km/h (2 Bft)
02.08.2018 01:57 17,1 °C 94 % 1016,8 hPa 0,0 mm 3,0 km/h (1 Bft) S-SW 204 ° 0 min 0,000 mm 0,0 UV-I 0 W/m² 16,1 °C 17,1 °C 4,8 km/h (1 Bft)
02.08.2018 01:58 17,2 °C 94 % 1016,7 hPa 0,0 mm 2,3 km/h (1 Bft) S-SW 204 ° 0 min 0,000 mm 0,0 UV-I 0 W/m² 16,2 °C 17,2 °C 4,8 km/h (1 Bft)
02.08.2018 01:59 17,2 °C 94 % 1016,7 hPa 0,0 mm 0,7 km/h (0 Bft) S-SW 204 ° 0 min 0,000 mm 0,0 UV-I 0 W/m² 16,2 °C 17,2 °C 1,6 km/h (1 Bft)
02.08.2018 02:00 17,2 °C 94 % 1016,7 hPa 0,0 mm 2,1 km/h (1 Bft) S-SW 204 ° 0 min 0,000 mm 0,0 UV-I 0 W/m² 16,2 °C 17,2 °C 4,8 km/h (1 Bft)
02.08.2018 02:01 17,2 °C 94 % 1016,6 hPa 0,0 mm 0,0 km/h (0 Bft) S-SW 204 ° 0 min 0,000 mm 0,0 UV-I 0 W/m² 16,2 °C 17,2 °C 0,0 km/h (0 Bft)
02.08.2018 02:02 17,2 °C 94 % 1016,6 hPa 0,0 mm 2,4 km/h (1 Bft) S-SW 204 ° 0 min 0,000 mm 0,0 UV-I 0 W/m² 16,2 °C 17,2 °C 3,2 km/h (1 Bft)
02.08.2018 02:03 17,2 °C 94 % 1016,6 hPa 0,0 mm 0,2 km/h (0 Bft) S-SW 204 ° 0 min 0,000 mm 0,0 UV-I 0 W/m² 16,2 °C 17,2 °C 1,6 km/h (1 Bft)
02.08.2018 02:04 17,2 °C 94 % 1016,6 hPa 0,0 mm 0,0 km/h (0 Bft) S-SW 204 ° 0 min 0,000 mm 0,0 UV-I 0 W/m² 16,2 °C 17,2 °C 0,0 km/h (0 Bft)
02.08.2018 02:05 17,2 °C 94 % 1016,5 hPa 0,0 mm 0,0 km/h (0 Bft) S-SW 204 ° 0 min 0,000 mm 0,0 UV-I 0 W/m² 16,2 °C 17,2 °C 0,0 km/h (0 Bft)
02.08.2018 02:06 17,2 °C 93 % 1016,6 hPa 0,0 mm 0,0 km/h (0 Bft) S-SW 204 ° 0 min 0,000 mm 0,0 UV-I 0 W/m² 16,1 °C 17,2 °C 0,0 km/h (0 Bft)
02.08.2018 02:07 17,2 °C 94 % 1016,5 hPa 0,0 mm 0,0 km/h (0 Bft) S-SW 204 ° 0 min 0,000 mm 0,0 UV-I 0 W/m² 16,2 °C 17,2 °C 0,0 km/h (0 Bft)
02.08.2018 02:08 17,2 °C 93 % 1016,5 hPa 0,0 mm 0,5 km/h (0 Bft) S-SW 204 ° 0 min 0,000 mm 0,0 UV-I 0 W/m² 16,1 °C 17,2 °C 1,6 km/h (1 Bft)
02.08.2018 02:09 17,2 °C 94 % 1016,5 hPa 0,0 mm 2,3 km/h (1 Bft) S-SW 204 ° 0 min 0,000 mm 0,0 UV-I 0 W/m² 16,2 °C 17,2 °C 3,2 km/h (1 Bft)
02.08.2018 02:10 17,1 °C 93 % 1016,5 hPa 0,0 mm 0,9 km/h (0 Bft) S-SW 204 ° 0 min 0,000 mm 0,0 UV-I 0 W/m² 16,0 °C 17,1 °C 3,2 km/h (1 Bft)
02.08.2018 02:11 17,1 °C 93 % 1016,5 hPa 0,0 mm 2,1 km/h (1 Bft) S-SW 204 ° 0 min 0,000 mm 0,0 UV-I 0 W/m² 16,0 °C 17,1 °C 3,2 km/h (1 Bft)
02.08.2018 02:12 17,1 °C 94 % 1016,5 hPa 0,0 mm 0,5 km/h (0 Bft) S-SW 204 ° 0 min 0,000 mm 0,0 UV-I 0 W/m² 16,1 °C 17,1 °C 1,6 km/h (1 Bft)
02.08.2018 02:13 17,1 °C 94 % 1016,5 hPa 0,0 mm 0,3 km/h (0 Bft) S-SW 204 ° 0 min 0,000 mm 0,0 UV-I 0 W/m² 16,1 °C 17,1 °C 1,6 km/h (1 Bft)
02.08.2018 02:14 17,1 °C 94 % 1016,6 hPa 0,0 mm 0,0 km/h (0 Bft) S-SW 204 ° 0 min 0,000 mm 0,0 UV-I 0 W/m² 16,1 °C 17,1 °C 0,0 km/h (0 Bft)
02.08.2018 02:15 17,0 °C 94 % 1016,5 hPa 0,0 mm 0,0 km/h (0 Bft) S-SW 204 ° 0 min 0,000 mm 0,0 UV-I 0 W/m² 16,0 °C 17,0 °C 0,0 km/h (0 Bft)
02.08.2018 02:16 16,9 °C 94 % 1016,5 hPa 0,0 mm 1,4 km/h (1 Bft) S-SW 204 ° 0 min 0,000 mm 0,0 UV-I 0 W/m² 15,9 °C 16,9 °C 3,2 km/h (1 Bft)
02.08.2018 02:17 16,9 °C 94 % 1016,5 hPa 0,0 mm 2,7 km/h (1 Bft) S-SW 204 ° 0 min 0,000 mm 0,0 UV-I 0 W/m² 15,9 °C 16,9 °C 3,2 km/h (1 Bft)
02.08.2018 02:18 16,9 °C 94 % 1016,4 hPa 0,0 mm 3,1 km/h (1 Bft) S-SW 204 ° 0 min 0,000 mm 0,0 UV-I 0 W/m² 15,9 °C 16,9 °C 4,8 km/h (1 Bft)
02.08.2018 02:19 16,9 °C 94 % 1016,5 hPa 0,0 mm 4,2 km/h (1 Bft) S-SW 205 ° 0 min 0,000 mm 0,0 UV-I 0 W/m² 15,9 °C 16,9 °C 6,4 km/h (2 Bft)
02.08.2018 02:20 16,9 °C 94 % 1016,5 hPa 0,0 mm 2,7 km/h (1 Bft) S-SW 206 ° 0 min 0,000 mm 0,0 UV-I 0 W/m² 15,9 °C 16,9 °C 4,8 km/h (1 Bft)
02.08.2018 02:21 16,9 °C 94 % 1016,5 hPa 0,0 mm 1,6 km/h (1 Bft) S-SW 206 ° 0 min 0,000 mm 0,0 UV-I 0 W/m² 15,9 °C 16,9 °C 3,2 km/h (1 Bft)
02.08.2018 02:22 16,9 °C 94 % 1016,4 hPa 0,0 mm 2,3 km/h (1 Bft) W-SW 244 ° 0 min 0,000 mm 0,0 UV-I 0 W/m² 15,9 °C 16,9 °C 4,8 km/h (1 Bft)
02.08.2018 02:23 16,9 °C 94 % 1016,4 hPa 0,0 mm 1,5 km/h (1 Bft) W-SW 244 ° 0 min 0,000 mm 0,0 UV-I 0 W/m² 15,9 °C 16,9 °C 3,2 km/h (1 Bft)
02.08.2018 02:24 16,9 °C 94 % 1016,4 hPa 0,0 mm 0,7 km/h (0 Bft) W-SW 244 ° 0 min 0,000 mm 0,0 UV-I 0 W/m² 15,9 °C 16,9 °C 3,2 km/h (1 Bft)
02.08.2018 02:25 16,9 °C 94 % 1016,4 hPa 0,0 mm 0,1 km/h (0 Bft) W-SW 244 ° 0 min 0,000 mm 0,0 UV-I 0 W/m² 15,9 °C 16,9 °C 1,6 km/h (1 Bft)
02.08.2018 02:26 16,9 °C 94 % 1016,4 hPa 0,0 mm 0,9 km/h (0 Bft) W-SW 244 ° 0 min 0,000 mm 0,0 UV-I 0 W/m² 15,9 °C 16,9 °C 1,6 km/h (1 Bft)
02.08.2018 02:27 16,9 °C 94 % 1016,4 hPa 0,0 mm 0,0 km/h (0 Bft) W-SW 244 ° 0 min 0,000 mm 0,0 UV-I 0 W/m² 15,9 °C 16,9 °C 0,0 km/h (0 Bft)
02.08.2018 02:28 16,9 °C 94 % 1016,4 hPa 0,0 mm 0,5 km/h (0 Bft) W-SW 244 ° 0 min 0,000 mm 0,0 UV-I 0 W/m² 15,9 °C 16,9 °C 1,6 km/h (1 Bft)
02.08.2018 02:29 16,9 °C 94 % 1016,3 hPa 0,0 mm 0,1 km/h (0 Bft) W-SW 244 ° 0 min 0,000 mm 0,0 UV-I 0 W/m² 15,9 °C 16,9 °C 1,6 km/h (1 Bft)
02.08.2018 02:30 17,0 °C 94 % 1016,3 hPa 0,0 mm 0,8 km/h (0 Bft) W-SW 244 ° 0 min 0,000 mm 0,0 UV-I 0 W/m² 16,0 °C 17,0 °C 3,2 km/h (1 Bft)
02.08.2018 02:31 17,0 °C 94 % 1016,3 hPa 0,0 mm 1,9 km/h (1 Bft) W-SW 240 ° 0 min 0,000 mm 0,0 UV-I 0 W/m² 16,0 °C 17,0 °C 3,2 km/h (1 Bft)
02.08.2018 02:32 17,0 °C 94 % 1016,3 hPa 0,0 mm 3,4 km/h (1 Bft) S-SW 198 ° 0 min 0,000 mm 0,0 UV-I 0 W/m² 16,0 °C 17,0 °C 4,8 km/h (1 Bft)
02.08.2018 02:33 17,0 °C 94 % 1016,3 hPa 0,0 mm 3,1 km/h (1 Bft) S-SW 198 ° 0 min 0,000 mm 0,0 UV-I 0 W/m² 16,0 °C 17,0 °C 8,0 km/h (2 Bft)
02.08.2018 02:34 17,0 °C 94 % 1016,3 hPa 0,0 mm 3,6 km/h (1 Bft) S 189 ° 0 min 0,000 mm 0,0 UV-I 0 W/m² 16,0 °C 17,0 °C 6,4 km/h (2 Bft)
02.08.2018 02:35 17,0 °C 94 % 1016,3 hPa 0,0 mm 6,1 km/h (2 Bft) S 183 ° 0 min 0,000 mm 0,0 UV-I 0 W/m² 16,0 °C 17,0 °C 8,0 km/h (2 Bft)
02.08.2018 02:36 17,0 °C 94 % 1016,2 hPa 0,0 mm 3,7 km/h (1 Bft) S-SW 197 ° 0 min 0,000 mm 0,0 UV-I 0 W/m² 16,0 °C 17,0 °C 6,4 km/h (2 Bft)
02.08.2018 02:37 17,0 °C 94 % 1016,2 hPa 0,0 mm 2,7 km/h (1 Bft) S-SW 202 ° 0 min 0,000 mm 0,0 UV-I 0 W/m² 16,0 °C 17,0 °C 3,2 km/h (1 Bft)
02.08.2018 02:38 17,0 °C 94 % 1016,2 hPa 0,0 mm 1,7 km/h (1 Bft) S-SW 202 ° 0 min 0,000 mm 0,0 UV-I 0 W/m² 16,0 °C 17,0 °C 3,2 km/h (1 Bft)
02.08.2018 02:39 17,0 °C 94 % 1016,2 hPa 0,0 mm 3,8 km/h (1 Bft) S-SW 200 ° 0 min 0,000 mm 0,0 UV-I 0 W/m² 16,0 °C 17,0 °C 6,4 km/h (2 Bft)
02.08.2018 02:40 17,0 °C 94 % 1016,2 hPa 0,0 mm 2,7 km/h (1 Bft) S-SW 194 ° 0 min 0,000 mm 0,0 UV-I 0 W/m² 16,0 °C 17,0 °C 6,4 km/h (2 Bft)
02.08.2018 02:41 17,0 °C 94 % 1016,2 hPa 0,0 mm 1,9 km/h (1 Bft) S-SW 193 ° 0 min 0,000 mm 0,0 UV-I 0 W/m² 16,0 °C 17,0 °C 4,8 km/h (1 Bft)
02.08.2018 02:42 17,0 °C 93 % 1016,2 hPa 0,0 mm 0,5 km/h (0 Bft) S-SW 193 ° 0 min 0,000 mm 0,0 UV-I 0 W/m² 15,9 °C 17,0 °C 1,6 km/h (1 Bft)
02.08.2018 02:43 17,0 °C 94 % 1016,1 hPa 0,0 mm 0,0 km/h (0 Bft) S-SW 193 ° 0 min 0,000 mm 0,0 UV-I 0 W/m² 16,0 °C 17,0 °C 0,0 km/h (0 Bft)
02.08.2018 02:44 17,0 °C 94 % 1016,1 hPa 0,0 mm 0,0 km/h (0 Bft) S-SW 193 ° 0 min 0,000 mm 0,0 UV-I 0 W/m² 16,0 °C 17,0 °C 0,0 km/h (0 Bft)
02.08.2018 02:45 17,0 °C 94 % 1016,1 hPa 0,0 mm 0,0 km/h (0 Bft) S-SW 193 ° 0 min 0,000 mm 0,0 UV-I 0 W/m² 16,0 °C 17,0 °C 0,0 km/h (0 Bft)
02.08.2018 02:46 17,0 °C 94 % 1016,1 hPa 0,0 mm 1,3 km/h (1 Bft) S-SW 193 ° 0 min 0,000 mm 0,0 UV-I 0 W/m² 16,0 °C 17,0 °C 3,2 km/h (1 Bft)
02.08.2018 02:47 16,9 °C 93 % 1016,2 hPa 0,0 mm 2,5 km/h (1 Bft) SW 232 ° 0 min 0,000 mm 0,0 UV-I 0 W/m² 15,8 °C 16,9 °C 4,8 km/h (1 Bft)
02.08.2018 02:48 17,0 °C 93 % 1016,1 hPa 0,0 mm 0,6 km/h (0 Bft) SW 232 ° 0 min 0,000 mm 0,0 UV-I 0 W/m² 15,9 °C 17,0 °C 1,6 km/h (1 Bft)
02.08.2018 02:49 16,9 °C 94 % 1016,2 hPa 0,0 mm 0,3 km/h (0 Bft) SW 232 ° 0 min 0,000 mm 0,0 UV-I 0 W/m² 15,9 °C 16,9 °C 1,6 km/h (1 Bft)
02.08.2018 02:50 16,9 °C 94 % 1016,2 hPa 0,0 mm 0,0 km/h (0 Bft) SW 232 ° 0 min 0,000 mm 0,0 UV-I 0 W/m² 15,9 °C 16,9 °C 0,0 km/h (0 Bft)
02.08.2018 02:51 16,9 °C 94 % 1016,2 hPa 0,0 mm 0,0 km/h (0 Bft) SW 232 ° 0 min 0,000 mm 0,0 UV-I 0 W/m² 15,9 °C 16,9 °C 0,0 km/h (0 Bft)
02.08.2018 02:52 16,9 °C 93 % 1016,2 hPa 0,0 mm 0,0 km/h (0 Bft) SW 232 ° 0 min 0,000 mm 0,0 UV-I 0 W/m² 15,8 °C 16,9 °C 0,0 km/h (0 Bft)
02.08.2018 02:53 16,9 °C 94 % 1016,2 hPa 0,0 mm 0,0 km/h (0 Bft) SW 232 ° 0 min 0,000 mm 0,0 UV-I 0 W/m² 15,9 °C 16,9 °C 0,0 km/h (0 Bft)
02.08.2018 02:54 16,9 °C 94 % 1016,2 hPa 0,0 mm 0,5 km/h (0 Bft) SW 232 ° 0 min 0,000 mm 0,0 UV-I 0 W/m² 15,9 °C 16,9 °C 1,6 km/h (1 Bft)
02.08.2018 02:55 17,0 °C 94 % 1016,3 hPa 0,0 mm 0,5 km/h (0 Bft) SW 232 ° 0 min 0,000 mm 0,0 UV-I 0 W/m² 16,0 °C 17,0 °C 3,2 km/h (1 Bft)
02.08.2018 02:56 17,0 °C 93 % 1016,3 hPa 0,0 mm 1,0 km/h (0 Bft) SW 232 ° 0 min 0,000 mm 0,0 UV-I 0 W/m² 15,9 °C 17,0 °C 3,2 km/h (1 Bft)
02.08.2018 02:57 17,0 °C 93 % 1016,4 hPa 0,0 mm 1,0 km/h (0 Bft) SW 232 ° 0 min 0,000 mm 0,0 UV-I 0 W/m² 15,9 °C 17,0 °C 3,2 km/h (1 Bft)
02.08.2018 02:58 16,9 °C 93 % 1016,4 hPa 0,0 mm 0,1 km/h (0 Bft) SW 232 ° 0 min 0,000 mm 0,0 UV-I 0 W/m² 15,8 °C 16,9 °C 1,6 km/h (1 Bft)
02.08.2018 02:59 16,9 °C 93 % 1016,4 hPa 0,0 mm 0,0 km/h (0 Bft) SW 232 ° 0 min 0,000 mm 0,0 UV-I 0 W/m² 15,8 °C 16,9 °C 0,0 km/h (0 Bft)
02.08.2018 03:00 16,9 °C 93 % 1016,4 hPa 0,0 mm 0,0 km/h (0 Bft) SW 232 ° 0 min 0,000 mm 0,0 UV-I 0 W/m² 15,8 °C 16,9 °C 0,0 km/h (0 Bft)
02.08.2018 03:01 16,9 °C 93 % 1016,4 hPa 0,0 mm 0,0 km/h (0 Bft) SW 232 ° 0 min 0,000 mm 0,0 UV-I 0 W/m² 15,8 °C 16,9 °C 0,0 km/h (0 Bft)
02.08.2018 03:02 16,9 °C 93 % 1016,4 hPa 0,0 mm 0,0 km/h (0 Bft) SW 232 ° 0 min 0,000 mm 0,0 UV-I 0 W/m² 15,8 °C 16,9 °C 0,0 km/h (0 Bft)
02.08.2018 03:03 16,9 °C 93 % 1016,4 hPa 0,0 mm 0,0 km/h (0 Bft) SW 232 ° 0 min 0,000 mm 0,0 UV-I 0 W/m² 15,8 °C 16,9 °C 0,0 km/h (0 Bft)
02.08.2018 03:04 17,0 °C 93 % 1016,4 hPa 0,0 mm 0,0 km/h (0 Bft) SW 232 ° 0 min 0,000 mm 0,0 UV-I 0 W/m² 15,9 °C 17,0 °C 0,0 km/h (0 Bft)
02.08.2018 03:05 16,9 °C 93 % 1016,4 hPa 0,0 mm 0,0 km/h (0 Bft) SW 232 ° 0 min 0,000 mm 0,0 UV-I 0 W/m² 15,8 °C 16,9 °C 0,0 km/h (0 Bft)
02.08.2018 03:06 17,0 °C 93 % 1016,4 hPa 0,0 mm 0,0 km/h (0 Bft) SW 232 ° 0 min 0,000 mm 0,0 UV-I 0 W/m² 15,9 °C 17,0 °C 0,0 km/h (0 Bft)
02.08.2018 03:07 17,0 °C 93 % 1016,4 hPa 0,0 mm 0,0 km/h (0 Bft) SW 232 ° 0 min 0,000 mm 0,0 UV-I 0 W/m² 15,9 °C 17,0 °C 0,0 km/h (0 Bft)
02.08.2018 03:08 16,9 °C 93 % 1016,5 hPa 0,0 mm 0,0 km/h (0 Bft) SW 232 ° 0 min 0,000 mm 0,0 UV-I 0 W/m² 15,8 °C 16,9 °C 0,0 km/h (0 Bft)
02.08.2018 03:09 16,9 °C 93 % 1016,5 hPa 0,0 mm 0,0 km/h (0 Bft) SW 232 ° 0 min 0,000 mm 0,0 UV-I 0 W/m² 15,8 °C 16,9 °C 0,0 km/h (0 Bft)
02.08.2018 03:10 16,9 °C 93 % 1016,5 hPa 0,0 mm 0,0 km/h (0 Bft) SW 232 ° 0 min 0,000 mm 0,0 UV-I 0 W/m² 15,8 °C 16,9 °C 0,0 km/h (0 Bft)
02.08.2018 03:11 16,8 °C 93 % 1016,5 hPa 0,0 mm 0,0 km/h (0 Bft) SW 232 ° 0 min 0,000 mm 0,0 UV-I 0 W/m² 15,7 °C 16,8 °C 0,0 km/h (0 Bft)
02.08.2018 03:12 16,8 °C 93 % 1016,5 hPa 0,0 mm 0,0 km/h (0 Bft) SW 232 ° 0 min 0,000 mm 0,0 UV-I 0 W/m² 15,7 °C 16,8 °C 0,0 km/h (0 Bft)
02.08.2018 03:13 16,8 °C 93 % 1016,5 hPa 0,0 mm 0,0 km/h (0 Bft) SW 232 ° 0 min 0,000 mm 0,0 UV-I 0 W/m² 15,7 °C 16,8 °C 0,0 km/h (0 Bft)
02.08.2018 03:14 16,8 °C 93 % 1016,5 hPa 0,0 mm 0,0 km/h (0 Bft) SW 232 ° 0 min 0,000 mm 0,0 UV-I 0 W/m² 15,7 °C 16,8 °C 0,0 km/h (0 Bft)
02.08.2018 03:15 16,8 °C 93 % 1016,5 hPa 0,0 mm 0,0 km/h (0 Bft) SW 232 ° 0 min 0,000 mm 0,0 UV-I 0 W/m² 15,7 °C 16,8 °C 0,0 km/h (0 Bft)
02.08.2018 03:16 16,8 °C 93 % 1016,5 hPa 0,0 mm 0,0 km/h (0 Bft) SW 232 ° 0 min 0,000 mm 0,0 UV-I 0 W/m² 15,7 °C 16,8 °C 0,0 km/h (0 Bft)
02.08.2018 03:17 16,7 °C 93 % 1016,6 hPa 0,0 mm 1,4 km/h (1 Bft) W 280 ° 0 min 0,000 mm 0,0 UV-I 0 W/m² 15,6 °C 16,7 °C 6,4 km/h (2 Bft)
02.08.2018 03:18 16,8 °C 93 % 1016,8 hPa 0,0 mm 5,4 km/h (1 Bft) N-NW 329 ° 0 min 0,000 mm 0,0 UV-I 0 W/m² 15,7 °C 16,8 °C 8,0 km/h (2 Bft)
02.08.2018 03:19 16,8 °C 93 % 1016,9 hPa 0,0 mm 6,4 km/h (2 Bft) W-NW 294 ° 0 min 0,000 mm 0,0 UV-I 0 W/m² 15,7 °C 16,8 °C 11,3 km/h (2 Bft)
02.08.2018 03:20 16,8 °C 94 % 1016,9 hPa 0,0 mm 4,7 km/h (1 Bft) W-SW 243 ° 0 min 0,000 mm 0,0 UV-I 0 W/m² 15,8 °C 16,8 °C 6,4 km/h (2 Bft)
02.08.2018 03:21 16,8 °C 94 % 1016,9 hPa 0,0 mm 5,8 km/h (2 Bft) S 188 ° 0 min 0,000 mm 0,0 UV-I 0 W/m² 15,8 °C 16,8 °C 8,0 km/h (2 Bft)
02.08.2018 03:22 16,7 °C 94 % 1016,9 hPa 0,0 mm 2,2 km/h (1 Bft) W-NW 284 ° 0 min 0,000 mm 0,0 UV-I 0 W/m² 15,7 °C 16,7 °C 4,8 km/h (1 Bft)
02.08.2018 03:23 16,8 °C 94 % 1016,9 hPa 0,0 mm 4,9 km/h (1 Bft) W 278 ° 0 min 0,000 mm 0,0 UV-I 0 W/m² 15,8 °C 16,8 °C 6,4 km/h (2 Bft)
02.08.2018 03:24 16,8 °C 93 % 1016,9 hPa 0,0 mm 3,1 km/h (1 Bft) W 276 ° 0 min 0,000 mm 0,0 UV-I 0 W/m² 15,7 °C 16,8 °C 4,8 km/h (1 Bft)
02.08.2018 03:25 16,8 °C 93 % 1016,9 hPa 0,0 mm 3,7 km/h (1 Bft) SW 226 ° 0 min 0,000 mm 0,0 UV-I 0 W/m² 15,7 °C 16,8 °C 4,8 km/h (1 Bft)
02.08.2018 03:26 16,8 °C 93 % 1016,9 hPa 0,0 mm 4,1 km/h (1 Bft) W-SW 243 ° 0 min 0,000 mm 0,0 UV-I 0 W/m² 15,7 °C 16,8 °C 6,4 km/h (2 Bft)
02.08.2018 03:27 16,8 °C 93 % 1016,8 hPa 0,0 mm 2,4 km/h (1 Bft) W-SW 252 ° 0 min 0,000 mm 0,0 UV-I 0 W/m² 15,7 °C 16,8 °C 4,8 km/h (1 Bft)
02.08.2018 03:28 16,8 °C 93 % 1017,0 hPa 0,0 mm 2,1 km/h (1 Bft) W-SW 253 ° 0 min 0,000 mm 0,0 UV-I 0 W/m² 15,7 °C 16,8 °C 3,2 km/h (1 Bft)
02.08.2018 03:29 16,8 °C 93 % 1016,8 hPa 0,0 mm 1,9 km/h (1 Bft) W-SW 250 ° 0 min 0,000 mm 0,0 UV-I 0 W/m² 15,7 °C 16,8 °C 3,2 km/h (1 Bft)
02.08.2018 03:30 16,7 °C 93 % 1016,8 hPa 0,0 mm 1,1 km/h (1 Bft) W-SW 252 ° 0 min 0,000 mm 0,0 UV-I 0 W/m² 15,6 °C 16,7 °C 1,6 km/h (1 Bft)
02.08.2018 03:31 16,7 °C 93 % 1016,9 hPa 0,0 mm 0,7 km/h (0 Bft) W-SW 252 ° 0 min 0,000 mm 0,0 UV-I 0 W/m² 15,6 °C 16,7 °C 1,6 km/h (1 Bft)
02.08.2018 03:32 16,7 °C 93 % 1016,9 hPa 0,0 mm 1,1 km/h (1 Bft) W-SW 252 ° 0 min 0,000 mm 0,0 UV-I 0 W/m² 15,6 °C 16,7 °C 3,2 km/h (1 Bft)
02.08.2018 03:33 16,7 °C 93 % 1016,9 hPa 0,0 mm 2,7 km/h (1 Bft) W-NW 285 ° 0 min 0,000 mm 0,0 UV-I 0 W/m² 15,6 °C 16,7 °C 8,0 km/h (2 Bft)
02.08.2018 03:34 16,7 °C 93 % 1016,9 hPa 0,0 mm 6,6 km/h (2 Bft) W 279 ° 0 min 0,000 mm 0,0 UV-I 0 W/m² 15,6 °C 16,7 °C 9,7 km/h (2 Bft)
02.08.2018 03:35 16,7 °C 93 % 1016,9 hPa 0,0 mm 3,4 km/h (1 Bft) W 271 ° 0 min 0,000 mm 0,0 UV-I 0 W/m² 15,6 °C 16,7 °C 9,7 km/h (2 Bft)
02.08.2018 03:36 16,7 °C 93 % 1016,9 hPa 0,0 mm 1,3 km/h (1 Bft) W 271 ° 0 min 0,000 mm 0,0 UV-I 0 W/m² 15,6 °C 16,7 °C 4,8 km/h (1 Bft)
02.08.2018 03:37 16,6 °C 93 % 1016,9 hPa 0,0 mm 5,8 km/h (2 Bft) W 271 ° 0 min 0,000 mm 0,0 UV-I 0 W/m² 15,5 °C 16,6 °C 9,7 km/h (2 Bft)
02.08.2018 03:38 16,6 °C 93 % 1017,0 hPa 0,0 mm 6,1 km/h (2 Bft) W 264 ° 0 min 0,000 mm 0,0 UV-I 0 W/m² 15,5 °C 16,6 °C 9,7 km/h (2 Bft)
02.08.2018 03:39 16,6 °C 93 % 1017,0 hPa 0,0 mm 3,0 km/h (1 Bft) W 264 ° 0 min 0,000 mm 0,0 UV-I 0 W/m² 15,5 °C 16,6 °C 6,4 km/h (2 Bft)
02.08.2018 03:40 16,6 °C 93 % 1017,0 hPa 0,0 mm 3,7 km/h (1 Bft) W 276 ° 0 min 0,000 mm 0,0 UV-I 0 W/m² 15,5 °C 16,6 °C 8,0 km/h (2 Bft)
02.08.2018 03:41 16,6 °C 93 % 1017,0 hPa 0,0 mm 4,6 km/h (1 Bft) W 263 ° 0 min 0,000 mm 0,0 UV-I 0 W/m² 15,5 °C 16,6 °C 6,4 km/h (2 Bft)
02.08.2018 03:42 16,5 °C 93 % 1017,2 hPa 0,0 mm 4,3 km/h (1 Bft) W-SW 254 ° 0 min 0,000 mm 0,0 UV-I 0 W/m² 15,4 °C 16,5 °C 8,0 km/h (2 Bft)
02.08.2018 03:43 16,6 °C 93 % 1017,1 hPa 0,0 mm 6,7 km/h (2 Bft) W 263 ° 0 min 0,000 mm 0,0 UV-I 0 W/m² 15,5 °C 16,6 °C 11,3 km/h (2 Bft)
02.08.2018 03:44 16,5 °C 93 % 1017,2 hPa 0,0 mm 5,6 km/h (1 Bft) W-NW 297 ° 0 min 0,000 mm 0,0 UV-I 0 W/m² 15,4 °C 16,5 °C 9,7 km/h (2 Bft)
02.08.2018 03:45 16,6 °C 93 % 1017,2 hPa 0,0 mm 2,8 km/h (1 Bft) W-NW 297 ° 0 min 0,000 mm 0,0 UV-I 0 W/m² 15,5 °C 16,6 °C 6,4 km/h (2 Bft)
02.08.2018 03:46 16,5 °C 93 % 1017,2 hPa 0,0 mm 2,3 km/h (1 Bft) W-NW 300 ° 0 min 0,000 mm 0,0 UV-I 0 W/m² 15,4 °C 16,5 °C 4,8 km/h (1 Bft)
02.08.2018 03:47 16,5 °C 93 % 1017,1 hPa 0,0 mm 4,6 km/h (1 Bft) W 281 ° 0 min 0,000 mm 0,0 UV-I 0 W/m² 15,4 °C 16,5 °C 8,0 km/h (2 Bft)
02.08.2018 03:48 16,5 °C 93 % 1017,2 hPa 0,0 mm 1,6 km/h (1 Bft) W-SW 256 ° 0 min 0,000 mm 0,0 UV-I 0 W/m² 15,4 °C 16,5 °C 4,8 km/h (1 Bft)
02.08.2018 03:49 16,5 °C 93 % 1017,1 hPa 0,0 mm 1,7 km/h (1 Bft) W-SW 255 ° 0 min 0,000 mm 0,0 UV-I 0 W/m² 15,4 °C 16,5 °C 4,8 km/h (1 Bft)
02.08.2018 03:50 16,5 °C 93 % 1017,1 hPa 0,0 mm 4,8 km/h (1 Bft) SW 234 ° 0 min 0,000 mm 0,0 UV-I 0 W/m² 15,4 °C 16,5 °C 8,0 km/h (2 Bft)
02.08.2018 03:51 16,6 °C 93 % 1017,1 hPa 0,0 mm 6,9 km/h (2 Bft) W 261 ° 0 min 0,000 mm 0,0 UV-I 0 W/m² 15,5 °C 16,6 °C 14,5 km/h (3 Bft)
02.08.2018 03:52 16,6 °C 93 % 1017,1 hPa 0,0 mm 5,0 km/h (1 Bft) W-SW 243 ° 0 min 0,000 mm 0,0 UV-I 0 W/m² 15,5 °C 16,6 °C 11,3 km/h (2 Bft)
02.08.2018 03:53 16,5 °C 93 % 1017,1 hPa 0,0 mm 4,2 km/h (1 Bft) W 273 ° 0 min 0,000 mm 0,0 UV-I 0 W/m² 15,4 °C 16,5 °C 8,0 km/h (2 Bft)
02.08.2018 03:54 16,6 °C 93 % 1017,1 hPa 0,0 mm 4,8 km/h (1 Bft) W 273 ° 0 min 0,000 mm 0,0 UV-I 0 W/m² 15,5 °C 16,6 °C 11,3 km/h (2 Bft)
02.08.2018 03:55 16,6 °C 93 % 1017,1 hPa 0,0 mm 2,5 km/h (1 Bft) W 281 ° 0 min 0,000 mm 0,0 UV-I 0 W/m² 15,5 °C 16,6 °C 11,3 km/h (2 Bft)
02.08.2018 03:56 16,5 °C 93 % 1017,1 hPa 0,0 mm 2,4 km/h (1 Bft) W-SW 258 ° 0 min 0,000 mm 0,0 UV-I 0 W/m² 15,4 °C 16,5 °C 9,7 km/h (2 Bft)
02.08.2018 03:57 16,5 °C 93 % 1017,1 hPa 0,0 mm 1,9 km/h (1 Bft) SW 214 ° 0 min 0,000 mm 0,0 UV-I 0 W/m² 15,4 °C 16,5 °C 6,4 km/h (2 Bft)
02.08.2018 03:58 16,5 °C 93 % 1017,1 hPa 0,0 mm 0,5 km/h (0 Bft) SW 214 ° 0 min 0,000 mm 0,0 UV-I 0 W/m² 15,4 °C 16,5 °C 1,6 km/h (1 Bft)
02.08.2018 03:59 16,6 °C 93 % 1017,2 hPa 0,0 mm 0,9 km/h (0 Bft) SW 214 ° 0 min 0,000 mm 0,0 UV-I 0 W/m² 15,5 °C 16,6 °C 3,2 km/h (1 Bft)
02.08.2018 04:00 16,5 °C 93 % 1017,2 hPa 0,0 mm 0,9 km/h (0 Bft) W-SW 252 ° 0 min 0,000 mm 0,0 UV-I 0 W/m² 15,4 °C 16,5 °C 3,2 km/h (1 Bft)
02.08.2018 04:02 16,6 °C 93 % 1017,2 hPa 0,0 mm 1,0 km/h (0 Bft) W-SW 242 ° 0 min 0,000 mm 0,0 UV-I 0 W/m² 15,5 °C 16,6 °C 4,8 km/h (1 Bft)
02.08.2018 04:03 16,6 °C 93 % 1017,2 hPa 0,0 mm 1,7 km/h (1 Bft) W-SW 238 ° 0 min 0,000 mm 0,0 UV-I 0 W/m² 15,5 °C 16,6 °C 3,2 km/h (1 Bft)
02.08.2018 04:04 16,6 °C 93 % 1017,2 hPa 0,0 mm 2,3 km/h (1 Bft) W-SW 238 ° 0 min 0,000 mm 0,0 UV-I 0 W/m² 15,5 °C 16,6 °C 4,8 km/h (1 Bft)
02.08.2018 04:05 16,6 °C 93 % 1017,2 hPa 0,0 mm 3,8 km/h (1 Bft) SW 216 ° 0 min 0,000 mm 0,0 UV-I 0 W/m² 15,5 °C 16,6 °C 8,0 km/h (2 Bft)
02.08.2018 04:06 16,7 °C 93 % 1017,2 hPa 0,0 mm 2,3 km/h (1 Bft) S-SW 202 ° 0 min 0,000 mm 0,0 UV-I 0 W/m² 15,6 °C 16,7 °C 3,2 km/h (1 Bft)
02.08.2018 04:07 16,7 °C 93 % 1017,2 hPa 0,0 mm 4,2 km/h (1 Bft) S-SW 206 ° 0 min 0,000 mm 0,0 UV-I 0 W/m² 15,6 °C 16,7 °C 8,0 km/h (2 Bft)
02.08.2018 04:08 16,7 °C 93 % 1017,1 hPa 0,0 mm 8,6 km/h (2 Bft) S-SW 197 ° 0 min 0,000 mm 0,0 UV-I 0 W/m² 15,6 °C 16,7 °C 11,3 km/h (2 Bft)
02.08.2018 04:09 16,7 °C 93 % 1017,2 hPa 0,0 mm 6,0 km/h (2 Bft) S-SW 202 ° 0 min 0,000 mm 0,0 UV-I 0 W/m² 15,6 °C 16,7 °C 11,3 km/h (2 Bft)
02.08.2018 04:10 16,7 °C 93 % 1017,2 hPa 0,0 mm 3,5 km/h (1 Bft) W 279 ° 0 min 0,000 mm 0,0 UV-I 0 W/m² 15,6 °C 16,7 °C 6,4 km/h (2 Bft)
02.08.2018 04:11 16,7 °C 93 % 1017,1 hPa 0,0 mm 3,8 km/h (1 Bft) S 191 ° 0 min 0,000 mm 0,0 UV-I 0 W/m² 15,6 °C 16,7 °C 9,7 km/h (2 Bft)
02.08.2018 04:12 16,8 °C 93 % 1017,2 hPa 0,0 mm 4,9 km/h (1 Bft) W-SW 244 ° 0 min 0,000 mm 0,0 UV-I 0 W/m² 15,7 °C 16,8 °C 8,0 km/h (2 Bft)
02.08.2018 04:13 16,8 °C 93 % 1017,1 hPa 0,0 mm 5,2 km/h (1 Bft) W 275 ° 0 min 0,000 mm 0,0 UV-I 0 W/m² 15,7 °C 16,8 °C 11,3 km/h (2 Bft)
02.08.2018 04:14 16,8 °C 93 % 1017,1 hPa 0,0 mm 1,4 km/h (1 Bft) W 270 ° 0 min 0,000 mm 0,0 UV-I 0 W/m² 15,7 °C 16,8 °C 3,2 km/h (1 Bft)
02.08.2018 04:15 16,8 °C 93 % 1017,2 hPa 0,0 mm 2,9 km/h (1 Bft) W-SW 249 ° 0 min 0,000 mm 0,0 UV-I 0 W/m² 15,7 °C 16,8 °C 3,2 km/h (1 Bft)
02.08.2018 04:16 16,8 °C 92 % 1017,2 hPa 0,0 mm 3,9 km/h (1 Bft) S-SW 203 ° 0 min 0,000 mm 0,0 UV-I 0 W/m² 15,5 °C 16,8 °C 8,0 km/h (2 Bft)
02.08.2018 04:17 16,8 °C 93 % 1017,2 hPa 0,0 mm 2,0 km/h (1 Bft) S-SW 192 ° 0 min 0,000 mm 0,0 UV-I 0 W/m² 15,7 °C 16,8 °C 4,8 km/h (1 Bft)
02.08.2018 04:18 16,8 °C 93 % 1017,2 hPa 0,0 mm 1,9 km/h (1 Bft) S-SW 203 ° 0 min 0,000 mm 0,0 UV-I 0 W/m² 15,7 °C 16,8 °C 4,8 km/h (1 Bft)
02.08.2018 04:19 16,9 °C 93 % 1017,2 hPa 0,0 mm 1,9 km/h (1 Bft) SW 220 ° 0 min 0,000 mm 0,0 UV-I 0 W/m² 15,8 °C 16,9 °C 4,8 km/h (1 Bft)
02.08.2018 04:20 16,9 °C 93 % 1017,2 hPa 0,0 mm 6,4 km/h (2 Bft) S-SW 210 ° 0 min 0,000 mm 0,0 UV-I 0 W/m² 15,8 °C 16,9 °C 12,9 km/h (3 Bft)
02.08.2018 04:21 16,9 °C 92 % 1017,2 hPa 0,0 mm 6,3 km/h (2 Bft) W 259 ° 0 min 0,000 mm 0,0 UV-I 0 W/m² 15,6 °C 16,9 °C 12,9 km/h (3 Bft)
02.08.2018 04:22 16,9 °C 92 % 1017,2 hPa 0,0 mm 3,6 km/h (1 Bft) SW 229 ° 0 min 0,000 mm 0,0 UV-I 0 W/m² 15,6 °C 16,9 °C 4,8 km/h (1 Bft)
02.08.2018 04:23 16,9 °C 92 % 1017,1 hPa 0,0 mm 1,8 km/h (1 Bft) SW 229 ° 0 min 0,000 mm 0,0 UV-I 0 W/m² 15,6 °C 16,9 °C 4,8 km/h (1 Bft)
02.08.2018 04:24 16,9 °C 92 % 1017,1 hPa 0,0 mm 1,2 km/h (1 Bft) W-NW 284 ° 0 min 0,000 mm 0,0 UV-I 0 W/m² 15,6 °C 16,9 °C 3,2 km/h (1 Bft)
02.08.2018 04:25 16,9 °C 92 % 1017,1 hPa 0,0 mm 8,7 km/h (2 Bft) S-SW 194 ° 0 min 0,000 mm 0,0 UV-I 0 W/m² 15,6 °C 16,9 °C 14,5 km/h (3 Bft)
02.08.2018 04:26 16,9 °C 92 % 1017,1 hPa 0,0 mm 7,3 km/h (2 Bft) S-SW 205 ° 0 min 0,000 mm 0,0 UV-I 0 W/m² 15,6 °C 16,9 °C 14,5 km/h (3 Bft)
02.08.2018 04:27 16,9 °C 92 % 1017,1 hPa 0,0 mm 1,4 km/h (1 Bft) S 189 ° 0 min 0,000 mm 0,0 UV-I 0 W/m² 15,6 °C 16,9 °C 4,8 km/h (1 Bft)
02.08.2018 04:28 17,0 °C 92 % 1017,1 hPa 0,0 mm 1,8 km/h (1 Bft) W-SW 252 ° 0 min 0,000 mm 0,0 UV-I 0 W/m² 15,7 °C 17,0 °C 4,8 km/h (1 Bft)
02.08.2018 04:29 17,0 °C 92 % 1017,1 hPa 0,0 mm 3,4 km/h (1 Bft) S-SW 200 ° 0 min 0,000 mm 0,0 UV-I 0 W/m² 15,7 °C 17,0 °C 6,4 km/h (2 Bft)
02.08.2018 04:30 16,9 °C 92 % 1017,1 hPa 0,0 mm 3,6 km/h (1 Bft) S-SW 197 ° 0 min 0,000 mm 0,0 UV-I 0 W/m² 15,6 °C 16,9 °C 6,4 km/h (2 Bft)
02.08.2018 04:31 17,0 °C 92 % 1017,1 hPa 0,0 mm 4,1 km/h (1 Bft) W-SW 245 ° 0 min 0,000 mm 0,0 UV-I 0 W/m² 15,7 °C 17,0 °C 6,4 km/h (2 Bft)
02.08.2018 04:32 17,0 °C 92 % 1017,1 hPa 0,0 mm 3,0 km/h (1 Bft) S 189 ° 0 min 0,000 mm 0,0 UV-I 0 W/m² 15,7 °C 17,0 °C 6,4 km/h (2 Bft)
02.08.2018 04:33 17,0 °C 92 % 1017,0 hPa 0,0 mm 5,5 km/h (1 Bft) W 262 ° 0 min 0,000 mm 0,0 UV-I 0 W/m² 15,7 °C 17,0 °C 8,0 km/h (2 Bft)
02.08.2018 04:34 17,0 °C 92 % 1017,0 hPa 0,0 mm 4,6 km/h (1 Bft) W-SW 250 ° 0 min 0,000 mm 0,0 UV-I 0 W/m² 15,7 °C 17,0 °C 6,4 km/h (2 Bft)
02.08.2018 04:35 17,0 °C 92 % 1017,1 hPa 0,0 mm 2,4 km/h (1 Bft) W-SW 254 ° 0 min 0,000 mm 0,0 UV-I 0 W/m² 15,7 °C 17,0 °C 4,8 km/h (1 Bft)
02.08.2018 04:36 17,0 °C 92 % 1017,0 hPa 0,0 mm 0,9 km/h (0 Bft) S-SW 192 ° 0 min 0,000 mm 0,0 UV-I 0 W/m² 15,7 °C 17,0 °C 3,2 km/h (1 Bft)
02.08.2018 04:37 17,0 °C 91 % 1017,0 hPa 0,0 mm 1,0 km/h (0 Bft) S-SW 192 ° 0 min 0,000 mm 0,0 UV-I 0 W/m² 15,5 °C 17,0 °C 3,2 km/h (1 Bft)
02.08.2018 04:38 17,0 °C 91 % 1017,0 hPa 0,0 mm 4,0 km/h (1 Bft) S-SW 192 ° 0 min 0,000 mm 0,0 UV-I 0 W/m² 15,5 °C 17,0 °C 8,0 km/h (2 Bft)
02.08.2018 04:39 17,0 °C 91 % 1017,0 hPa 0,0 mm 2,9 km/h (1 Bft) S 176 ° 0 min 0,000 mm 0,0 UV-I 0 W/m² 15,5 °C 17,0 °C 4,8 km/h (1 Bft)
02.08.2018 04:40 17,0 °C 91 % 1017,0 hPa 0,0 mm 2,7 km/h (1 Bft) S 184 ° 0 min 0,000 mm 0,0 UV-I 0 W/m² 15,5 °C 17,0 °C 6,4 km/h (2 Bft)
02.08.2018 04:41 16,9 °C 91 % 1017,0 hPa 0,0 mm 4,5 km/h (1 Bft) S-SW 199 ° 0 min 0,000 mm 0,0 UV-I 0 W/m² 15,4 °C 16,9 °C 8,0 km/h (2 Bft)
02.08.2018 04:42 16,9 °C 91 % 1017,0 hPa 0,0 mm 4,8 km/h (1 Bft) S-SW 198 ° 0 min 0,000 mm 0,0 UV-I 0 W/m² 15,4 °C 16,9 °C 9,7 km/h (2 Bft)
02.08.2018 04:43 16,9 °C 91 % 1017,0 hPa 0,0 mm 5,4 km/h (1 Bft) S 177 ° 0 min 0,000 mm 0,0 UV-I 0 W/m² 15,4 °C 16,9 °C 6,4 km/h (2 Bft)
02.08.2018 04:44 16,9 °C 92 % 1017,0 hPa 0,0 mm 3,4 km/h (1 Bft) S 186 ° 0 min 0,000 mm 0,0 UV-I 0 W/m² 15,6 °C 16,9 °C 4,8 km/h (1 Bft)
02.08.2018 04:45 16,9 °C 92 % 1017,0 hPa 0,0 mm 3,2 km/h (1 Bft) S 175 ° 0 min 0,000 mm 0,0 UV-I 0 W/m² 15,6 °C 16,9 °C 8,0 km/h (2 Bft)
02.08.2018 04:46 16,8 °C 92 % 1017,0 hPa 0,0 mm 0,7 km/h (0 Bft) S 191 ° 0 min 0,000 mm 0,0 UV-I 0 W/m² 15,5 °C 16,8 °C 3,2 km/h (1 Bft)
02.08.2018 04:47 16,8 °C 92 % 1017,0 hPa 0,0 mm 2,9 km/h (1 Bft) S 184 ° 0 min 0,000 mm 0,0 UV-I 0 W/m² 15,5 °C 16,8 °C 4,8 km/h (1 Bft)
02.08.2018 04:48 16,8 °C 92 % 1017,0 hPa 0,0 mm 4,7 km/h (1 Bft) S-SW 202 ° 0 min 0,000 mm 0,0 UV-I 0 W/m² 15,5 °C 16,8 °C 8,0 km/h (2 Bft)
02.08.2018 04:49 16,8 °C 92 % 1017,0 hPa 0,0 mm 2,7 km/h (1 Bft) S-SW 194 ° 0 min 0,000 mm 0,0 UV-I 0 W/m² 15,5 °C 16,8 °C 4,8 km/h (1 Bft)
02.08.2018 04:50 16,8 °C 92 % 1017,1 hPa 0,0 mm 0,7 km/h (0 Bft) S-SW 196 ° 0 min 0,000 mm 0,0 UV-I 0 W/m² 15,5 °C 16,8 °C 3,2 km/h (1 Bft)
02.08.2018 04:51 16,8 °C 92 % 1017,1 hPa 0,0 mm 0,7 km/h (0 Bft) S-SW 192 ° 0 min 0,000 mm 0,0 UV-I 0 W/m² 15,5 °C 16,8 °C 3,2 km/h (1 Bft)
02.08.2018 04:52 16,8 °C 92 % 1017,1 hPa 0,0 mm 1,9 km/h (1 Bft) S 191 ° 0 min 0,000 mm 0,0 UV-I 0 W/m² 15,5 °C 16,8 °C 6,4 km/h (2 Bft)
02.08.2018 04:53 16,8 °C 92 % 1017,0 hPa 0,0 mm 1,1 km/h (1 Bft) S 191 ° 0 min 0,000 mm 0,0 UV-I 0 W/m² 15,5 °C 16,8 °C 4,8 km/h (1 Bft)
02.08.2018 04:54 16,7 °C 92 % 1017,1 hPa 0,0 mm 1,3 km/h (1 Bft) S 191 ° 0 min 0,000 mm 0,0 UV-I 0 W/m² 15,4 °C 16,7 °C 3,2 km/h (1 Bft)
02.08.2018 04:55 16,7 °C 92 % 1017,0 hPa 0,0 mm 0,3 km/h (0 Bft) S-SW 192 ° 0 min 0,000 mm 0,0 UV-I 0 W/m² 15,4 °C 16,7 °C 1,6 km/h (1 Bft)
02.08.2018 04:56 16,7 °C 92 % 1017,0 hPa 0,0 mm 3,2 km/h (1 Bft) S 191 ° 0 min 0,000 mm 0,0 UV-I 0 W/m² 15,4 °C 16,7 °C 8,0 km/h (2 Bft)
02.08.2018 04:57 16,7 °C 92 % 1017,0 hPa 0,0 mm 1,4 km/h (1 Bft) S-SW 196 ° 0 min 0,000 mm 0,0 UV-I 0 W/m² 15,4 °C 16,7 °C 4,8 km/h (1 Bft)
02.08.2018 04:58 16,7 °C 92 % 1017,0 hPa 0,0 mm 1,9 km/h (1 Bft) S-SW 200 ° 0 min 0,000 mm 0,0 UV-I 0 W/m² 15,4 °C 16,7 °C 4,8 km/h (1 Bft)
02.08.2018 04:59 16,7 °C 92 % 1017,0 hPa 0,0 mm 4,2 km/h (1 Bft) S-SW 192 ° 0 min 0,000 mm 0,0 UV-I 0 W/m² 15,4 °C 16,7 °C 6,4 km/h (2 Bft)
02.08.2018 05:00 16,7 °C 92 % 1016,9 hPa 0,0 mm 5,7 km/h (1 Bft) S-SW 197 ° 0 min 0,000 mm 0,0 UV-I 0 W/m² 15,4 °C 16,7 °C 9,7 km/h (2 Bft)
02.08.2018 05:01 16,7 °C 92 % 1016,9 hPa 0,0 mm 3,1 km/h (1 Bft) S-SW 196 ° 0 min 0,000 mm 0,0 UV-I 0 W/m² 15,4 °C 16,7 °C 4,8 km/h (1 Bft)
02.08.2018 05:02 16,7 °C 92 % 1016,9 hPa 0,0 mm 4,0 km/h (1 Bft) S-SW 200 ° 0 min 0,000 mm 0,0 UV-I 0 W/m² 15,4 °C 16,7 °C 6,4 km/h (2 Bft)
02.08.2018 05:03 16,8 °C 92 % 1017,0 hPa 0,0 mm 1,9 km/h (1 Bft) S-SW 200 ° 0 min 0,000 mm 0,0 UV-I 0 W/m² 15,5 °C 16,8 °C 4,8 km/h (1 Bft)
02.08.2018 05:04 16,8 °C 92 % 1016,9 hPa 0,0 mm 3,1 km/h (1 Bft) S 179 ° 0 min 0,000 mm 0,0 UV-I 0 W/m² 15,5 °C 16,8 °C 6,4 km/h (2 Bft)
02.08.2018 05:05 16,8 °C 92 % 1017,0 hPa 0,0 mm 3,4 km/h (1 Bft) S-SW 205 ° 0 min 0,000 mm 0,0 UV-I 0 W/m² 15,5 °C 16,8 °C 6,4 km/h (2 Bft)
02.08.2018 05:06 16,8 °C 92 % 1017,0 hPa 0,0 mm 1,9 km/h (1 Bft) S-SW 201 ° 0 min 0,000 mm 0,0 UV-I 0 W/m² 15,5 °C 16,8 °C 4,8 km/h (1 Bft)
02.08.2018 05:07 16,7 °C 91 % 1017,0 hPa 0,0 mm 3,1 km/h (1 Bft) S-SW 209 ° 0 min 0,000 mm 0,0 UV-I 0 W/m² 15,2 °C 16,7 °C 6,4 km/h (2 Bft)
02.08.2018 05:08 16,7 °C 91 % 1017,0 hPa 0,0 mm 1,6 km/h (1 Bft) S-SW 212 ° 0 min 0,000 mm 0,0 UV-I 0 W/m² 15,2 °C 16,7 °C 3,2 km/h (1 Bft)
02.08.2018 05:09 16,7 °C 91 % 1017,0 hPa 0,0 mm 3,4 km/h (1 Bft) W-SW 243 ° 0 min 0,000 mm 0,0 UV-I 0 W/m² 15,2 °C 16,7 °C 6,4 km/h (2 Bft)
02.08.2018 05:10 16,7 °C 91 % 1017,0 hPa 0,0 mm 3,2 km/h (1 Bft) SW 219 ° 0 min 0,000 mm 0,0 UV-I 0 W/m² 15,2 °C 16,7 °C 6,4 km/h (2 Bft)
02.08.2018 05:11 16,7 °C 92 % 1017,0 hPa 0,0 mm 2,0 km/h (1 Bft) S-SW 192 ° 0 min 0,000 mm 0,0 UV-I 0 W/m² 15,4 °C 16,7 °C 6,4 km/h (2 Bft)
02.08.2018 05:12 16,7 °C 91 % 1016,9 hPa 0,0 mm 4,6 km/h (1 Bft) S-SW 212 ° 0 min 0,000 mm 0,0 UV-I 0 W/m² 15,2 °C 16,7 °C 8,0 km/h (2 Bft)
02.08.2018 05:13 16,7 °C 92 % 1017,0 hPa 0,0 mm 3,0 km/h (1 Bft) S 183 ° 0 min 0,000 mm 0,0 UV-I 0 W/m² 15,4 °C 16,7 °C 4,8 km/h (1 Bft)
02.08.2018 05:14 16,7 °C 92 % 1017,0 hPa 0,0 mm 0,7 km/h (0 Bft) S 183 ° 0 min 0,000 mm 0,0 UV-I 0 W/m² 15,4 °C 16,7 °C 1,6 km/h (1 Bft)
02.08.2018 05:15 16,7 °C 92 % 1017,0 hPa 0,0 mm 0,6 km/h (0 Bft) S 183 ° 0 min 0,000 mm 0,0 UV-I 0 W/m² 15,4 °C 16,7 °C 3,2 km/h (1 Bft)
02.08.2018 05:16 16,7 °C 92 % 1017,1 hPa 0,0 mm 0,7 km/h (0 Bft) S 183 ° 0 min 0,000 mm 0,0 UV-I 0 W/m² 15,4 °C 16,7 °C 3,2 km/h (1 Bft)
02.08.2018 05:17 16,6 °C 92 % 1017,1 hPa 0,0 mm 0,0 km/h (0 Bft) S 183 ° 0 min 0,000 mm 0,0 UV-I 0 W/m² 15,3 °C 16,6 °C 0,0 km/h (0 Bft)
02.08.2018 05:18 16,6 °C 92 % 1017,1 hPa 0,0 mm 0,5 km/h (0 Bft) S 183 ° 0 min 0,000 mm 0,0 UV-I 0 W/m² 15,3 °C 16,6 °C 3,2 km/h (1 Bft)
02.08.2018 05:19 16,6 °C 92 % 1017,1 hPa 0,0 mm 0,9 km/h (0 Bft) S 183 ° 0 min 0,000 mm 0,0 UV-I 0 W/m² 15,3 °C 16,6 °C 3,2 km/h (1 Bft)
02.08.2018 05:20 16,6 °C 92 % 1017,1 hPa 0,0 mm 0,4 km/h (0 Bft) S 183 ° 0 min 0,000 mm 0,0 UV-I 0 W/m² 15,3 °C 16,6 °C 1,6 km/h (1 Bft)
02.08.2018 05:21 16,5 °C 92 % 1017,1 hPa 0,0 mm 0,1 km/h (0 Bft) S 183 ° 0 min 0,000 mm 0,0 UV-I 0 W/m² 15,2 °C 16,5 °C 1,6 km/h (1 Bft)
02.08.2018 05:22 16,5 °C 92 % 1017,1 hPa 0,0 mm 1,2 km/h (1 Bft) S 183 ° 0 min 0,000 mm 0,0 UV-I 0 W/m² 15,2 °C 16,5 °C 1,6 km/h (1 Bft)
02.08.2018 05:23 16,4 °C 92 % 1017,1 hPa 0,0 mm 1,7 km/h (1 Bft) S 183 ° 0 min 0,000 mm 0,0 UV-I 0 W/m² 15,1 °C 16,4 °C 4,8 km/h (1 Bft)
02.08.2018 05:24 16,4 °C 92 % 1017,1 hPa 0,0 mm 2,5 km/h (1 Bft) S-SW 213 ° 0 min 0,000 mm 0,0 UV-I 0 W/m² 15,1 °C 16,4 °C 4,8 km/h (1 Bft)
02.08.2018 05:25 16,4 °C 92 % 1017,1 hPa 0,0 mm 0,3 km/h (0 Bft) S-SW 213 ° 0 min 0,000 mm 0,0 UV-I 0 W/m² 15,1 °C 16,4 °C 1,6 km/h (1 Bft)
02.08.2018 05:26 16,4 °C 93 % 1017,1 hPa 0,0 mm 0,5 km/h (0 Bft) S-SW 213 ° 0 min 0,000 mm 0,0 UV-I 0 W/m² 15,3 °C 16,4 °C 3,2 km/h (1 Bft)
02.08.2018 05:27 16,4 °C 93 % 1017,1 hPa 0,0 mm 1,7 km/h (1 Bft) S-SW 213 ° 0 min 0,000 mm 0,0 UV-I 0 W/m² 15,3 °C 16,4 °C 3,2 km/h (1 Bft)
02.08.2018 05:28 16,4 °C 93 % 1017,1 hPa 0,0 mm 0,4 km/h (0 Bft) S-SW 213 ° 0 min 0,000 mm 0,0 UV-I 0 W/m² 15,3 °C 16,4 °C 1,6 km/h (1 Bft)
02.08.2018 05:29 16,3 °C 93 % 1017,2 hPa 0,0 mm 0,5 km/h (0 Bft) S-SW 213 ° 0 min 0,000 mm 0,0 UV-I 0 W/m² 15,2 °C 16,3 °C 1,6 km/h (1 Bft)
02.08.2018 05:30 16,3 °C 93 % 1017,1 hPa 0,0 mm 0,0 km/h (0 Bft) S-SW 213 ° 0 min 0,000 mm 0,0 UV-I 0 W/m² 15,2 °C 16,3 °C 0,0 km/h (0 Bft)
02.08.2018 05:31 16,4 °C 93 % 1017,1 hPa 0,0 mm 2,3 km/h (1 Bft) S-SW 204 ° 0 min 0,000 mm 0,0 UV-I 0 W/m² 15,3 °C 16,4 °C 4,8 km/h (1 Bft)
02.08.2018 05:32 16,4 °C 93 % 1017,1 hPa 0,0 mm 3,0 km/h (1 Bft) S-SW 202 ° 0 min 0,000 mm 0,0 UV-I 0 W/m² 15,3 °C 16,4 °C 6,4 km/h (2 Bft)
02.08.2018 05:33 16,4 °C 93 % 1017,1 hPa 0,0 mm 1,2 km/h (1 Bft) S-SW 202 ° 0 min 0,000 mm 0,0 UV-I 0 W/m² 15,3 °C 16,4 °C 3,2 km/h (1 Bft)
02.08.2018 05:34 16,4 °C 93 % 1017,1 hPa 0,0 mm 0,5 km/h (0 Bft) S-SW 202 ° 0 min 0,000 mm 0,0 UV-I 0 W/m² 15,3 °C 16,4 °C 4,8 km/h (1 Bft)
02.08.2018 05:35 16,4 °C 93 % 1017,1 hPa 0,0 mm 1,0 km/h (0 Bft) S-SW 202 ° 0 min 0,000 mm 0,0 UV-I 0 W/m² 15,3 °C 16,4 °C 3,2 km/h (1 Bft)
02.08.2018 05:36 16,4 °C 93 % 1017,1 hPa 0,0 mm 0,3 km/h (0 Bft) S-SW 202 ° 0 min 0,000 mm 0,0 UV-I 0 W/m² 15,3 °C 16,4 °C 1,6 km/h (1 Bft)
02.08.2018 05:37 16,4 °C 93 % 1017,0 hPa 0,0 mm 1,4 km/h (1 Bft) S-SW 202 ° 0 min 0,000 mm 0,0 UV-I 0 W/m² 15,3 °C 16,4 °C 3,2 km/h (1 Bft)
02.08.2018 05:38 16,4 °C 93 % 1017,1 hPa 0,0 mm 0,0 km/h (0 Bft) S-SW 202 ° 0 min 0,000 mm 0,0 UV-I 0 W/m² 15,3 °C 16,4 °C 0,0 km/h (0 Bft)
02.08.2018 05:39 16,4 °C 93 % 1017,1 hPa 0,0 mm 0,0 km/h (0 Bft) S-SW 202 ° 0 min 0,000 mm 0,0 UV-I 0 W/m² 15,3 °C 16,4 °C 0,0 km/h (0 Bft)
02.08.2018 05:40 16,4 °C 93 % 1017,1 hPa 0,0 mm 0,0 km/h (0 Bft) S-SW 202 ° 0 min 0,000 mm 0,0 UV-I 0 W/m² 15,3 °C 16,4 °C 0,0 km/h (0 Bft)
02.08.2018 05:41 16,4 °C 93 % 1017,1 hPa 0,0 mm 0,0 km/h (0 Bft) S-SW 202 ° 0 min 0,000 mm 0,0 UV-I 0 W/m² 15,3 °C 16,4 °C 0,0 km/h (0 Bft)
02.08.2018 05:42 16,4 °C 93 % 1017,0 hPa 0,0 mm 0,0 km/h (0 Bft) S-SW 202 ° 0 min 0,000 mm 0,0 UV-I 0 W/m² 15,3 °C 16,4 °C 0,0 km/h (0 Bft)
02.08.2018 05:43 16,4 °C 93 % 1017,0 hPa 0,0 mm 0,0 km/h (0 Bft) S-SW 202 ° 0 min 0,000 mm 0,0 UV-I 0 W/m² 15,3 °C 16,4 °C 0,0 km/h (0 Bft)
02.08.2018 05:44 16,3 °C 93 % 1017,0 hPa 0,0 mm 0,0 km/h (0 Bft) S-SW 202 ° 0 min 0,000 mm 0,0 UV-I 0 W/m² 15,2 °C 16,3 °C 0,0 km/h (0 Bft)
02.08.2018 05:45 16,3 °C 93 % 1017,0 hPa 0,0 mm 0,0 km/h (0 Bft) S-SW 202 ° 0 min 0,000 mm 0,0 UV-I 0 W/m² 15,2 °C 16,3 °C 0,0 km/h (0 Bft)
02.08.2018 05:46 16,3 °C 93 % 1017,0 hPa 0,0 mm 0,0 km/h (0 Bft) S-SW 202 ° 0 min 0,000 mm 0,0 UV-I 0 W/m² 15,2 °C 16,3 °C 0,0 km/h (0 Bft)
02.08.2018 05:47 16,3 °C 93 % 1017,0 hPa 0,0 mm 0,0 km/h (0 Bft) S-SW 202 ° 0 min 0,000 mm 0,0 UV-I 0 W/m² 15,2 °C 16,3 °C 0,0 km/h (0 Bft)
02.08.2018 05:48 16,3 °C 93 % 1017,1 hPa 0,0 mm 0,0 km/h (0 Bft) S-SW 202 ° 0 min 0,000 mm 0,0 UV-I 0 W/m² 15,2 °C 16,3 °C 0,0 km/h (0 Bft)
02.08.2018 05:49 16,3 °C 93 % 1017,1 hPa 0,0 mm 0,0 km/h (0 Bft) S-SW 202 ° 0 min 0,000 mm 0,0 UV-I 0 W/m² 15,2 °C 16,3 °C 0,0 km/h (0 Bft)
02.08.2018 05:50 16,3 °C 94 % 1017,1 hPa 0,0 mm 0,0 km/h (0 Bft) S-SW 202 ° 0 min 0,000 mm 0,0 UV-I 0 W/m² 15,3 °C 16,3 °C 0,0 km/h (0 Bft)
02.08.2018 05:51 16,3 °C 94 % 1017,1 hPa 0,0 mm 0,0 km/h (0 Bft) S-SW 202 ° 0 min 0,000 mm 0,0 UV-I 0 W/m² 15,3 °C 16,3 °C 0,0 km/h (0 Bft)
02.08.2018 05:52 16,3 °C 94 % 1017,1 hPa 0,0 mm 0,0 km/h (0 Bft) S-SW 202 ° 0 min 0,000 mm 0,0 UV-I 0 W/m² 15,3 °C 16,3 °C 0,0 km/h (0 Bft)
02.08.2018 05:53 16,3 °C 94 % 1017,1 hPa 0,0 mm 0,0 km/h (0 Bft) S-SW 202 ° 0 min 0,000 mm 0,0 UV-I 0 W/m² 15,3 °C 16,3 °C 0,0 km/h (0 Bft)
02.08.2018 05:54 16,2 °C 93 % 1017,1 hPa 0,0 mm 1,3 km/h (1 Bft) S-SW 202 ° 0 min 0,000 mm 0,0 UV-I 0 W/m² 15,1 °C 16,2 °C 3,2 km/h (1 Bft)
02.08.2018 05:55 16,3 °C 94 % 1017,1 hPa 0,0 mm 2,7 km/h (1 Bft) S-SW 202 ° 0 min 0,000 mm 0,0 UV-I 0 W/m² 15,3 °C 16,3 °C 4,8 km/h (1 Bft)
02.08.2018 05:56 16,3 °C 94 % 1017,2 hPa 0,0 mm 2,5 km/h (1 Bft) S-SW 202 ° 0 min 0,000 mm 0,0 UV-I 0 W/m² 15,3 °C 16,3 °C 3,2 km/h (1 Bft)
02.08.2018 05:57 16,3 °C 94 % 1017,2 hPa 0,0 mm 2,4 km/h (1 Bft) S-SW 202 ° 0 min 0,000 mm 0,0 UV-I 0 W/m² 15,3 °C 16,3 °C 3,2 km/h (1 Bft)
02.08.2018 05:58 16,3 °C 94 % 1017,2 hPa 0,0 mm 0,3 km/h (0 Bft) S-SW 202 ° 0 min 0,000 mm 0,0 UV-I 0 W/m² 15,3 °C 16,3 °C 1,6 km/h (1 Bft)
02.08.2018 05:59 16,3 °C 94 % 1017,2 hPa 0,0 mm 0,0 km/h (0 Bft) S-SW 202 ° 0 min 0,000 mm 0,0 UV-I 0 W/m² 15,3 °C 16,3 °C 0,0 km/h (0 Bft)
02.08.2018 06:00 16,2 °C 94 % 1017,2 hPa 0,0 mm 0,0 km/h (0 Bft) S-SW 202 ° 0 min 0,000 mm 0,0 UV-I 0 W/m² 15,2 °C 16,2 °C 0,0 km/h (0 Bft)
02.08.2018 06:01 16,2 °C 94 % 1017,3 hPa 0,0 mm 0,0 km/h (0 Bft) S-SW 202 ° 0 min 0,000 mm 0,0 UV-I 0 W/m² 15,2 °C 16,2 °C 0,0 km/h (0 Bft)
02.08.2018 06:02 16,2 °C 94 % 1017,3 hPa 0,0 mm 0,0 km/h (0 Bft) S-SW 202 ° 0 min 0,000 mm 0,0 UV-I 5 W/m² 15,2 °C 16,2 °C 0,0 km/h (0 Bft)
02.08.2018 06:03 16,2 °C 94 % 1017,3 hPa 0,0 mm 0,0 km/h (0 Bft) S-SW 202 ° 0 min 0,000 mm 0,0 UV-I 5 W/m² 15,2 °C 16,2 °C 0,0 km/h (0 Bft)
02.08.2018 06:04 16,2 °C 94 % 1017,3 hPa 0,0 mm 0,0 km/h (0 Bft) S-SW 202 ° 0 min 0,000 mm 0,0 UV-I 5 W/m² 15,2 °C 16,2 °C 0,0 km/h (0 Bft)
02.08.2018 06:05 16,2 °C 94 % 1017,3 hPa 0,0 mm 0,0 km/h (0 Bft) S-SW 202 ° 0 min 0,000 mm 0,0 UV-I 7 W/m² 15,2 °C 16,2 °C 0,0 km/h (0 Bft)
02.08.2018 06:06 16,2 °C 94 % 1017,3 hPa 0,0 mm 0,0 km/h (0 Bft) S-SW 202 ° 0 min 0,000 mm 0,0 UV-I 7 W/m² 15,2 °C 16,2 °C 0,0 km/h (0 Bft)
02.08.2018 06:07 16,2 °C 94 % 1017,3 hPa 0,0 mm 0,0 km/h (0 Bft) S-SW 202 ° 0 min 0,000 mm 0,0 UV-I 11 W/m² 15,2 °C 16,2 °C 0,0 km/h (0 Bft)
02.08.2018 06:08 16,2 °C 94 % 1017,3 hPa 0,0 mm 0,0 km/h (0 Bft) S-SW 202 ° 0 min 0,000 mm 0,0 UV-I 11 W/m² 15,2 °C 16,2 °C 0,0 km/h (0 Bft)
02.08.2018 06:09 16,2 °C 94 % 1017,3 hPa 0,0 mm 0,0 km/h (0 Bft) S-SW 202 ° 0 min 0,000 mm 0,0 UV-I 11 W/m² 15,2 °C 16,2 °C 0,0 km/h (0 Bft)
02.08.2018 06:10 16,2 °C 94 % 1017,3 hPa 0,0 mm 0,0 km/h (0 Bft) S-SW 202 ° 0 min 0,000 mm 0,0 UV-I 12 W/m² 15,2 °C 16,2 °C 0,0 km/h (0 Bft)
02.08.2018 06:11 16,2 °C 94 % 1017,3 hPa 0,0 mm 0,0 km/h (0 Bft) S-SW 202 ° 0 min 0,000 mm 0,0 UV-I 12 W/m² 15,2 °C 16,2 °C 0,0 km/h (0 Bft)
02.08.2018 06:12 16,2 °C 94 % 1017,2 hPa 0,0 mm 0,0 km/h (0 Bft) S-SW 202 ° 0 min 0,000 mm 0,0 UV-I 14 W/m² 15,2 °C 16,2 °C 0,0 km/h (0 Bft)
02.08.2018 06:13 16,1 °C 94 % 1017,2 hPa 0,0 mm 0,0 km/h (0 Bft) S-SW 202 ° 0 min 0,000 mm 0,0 UV-I 16 W/m² 15,1 °C 16,1 °C 0,0 km/h (0 Bft)
02.08.2018 06:14 16,2 °C 94 % 1017,3 hPa 0,0 mm 0,0 km/h (0 Bft) S-SW 202 ° 0 min 0,000 mm 0,0 UV-I 18 W/m² 15,2 °C 16,2 °C 0,0 km/h (0 Bft)
02.08.2018 06:15 16,2 °C 94 % 1017,3 hPa 0,0 mm 0,0 km/h (0 Bft) S-SW 202 ° 0 min 0,000 mm 0,0 UV-I 19 W/m² 15,2 °C 16,2 °C 0,0 km/h (0 Bft)
02.08.2018 06:16 16,2 °C 94 % 1017,3 hPa 0,0 mm 0,0 km/h (0 Bft) S-SW 202 ° 0 min 0,000 mm 0,0 UV-I 19 W/m² 15,2 °C 16,2 °C 0,0 km/h (0 Bft)
02.08.2018 06:17 16,2 °C 94 % 1017,3 hPa 0,0 mm 0,0 km/h (0 Bft) S-SW 202 ° 0 min 0,000 mm 0,0 UV-I 21 W/m² 15,2 °C 16,2 °C 0,0 km/h (0 Bft)
02.08.2018 06:18 16,2 °C 94 % 1017,3 hPa 0,0 mm 0,0 km/h (0 Bft) S-SW 202 ° 0 min 0,000 mm 0,0 UV-I 21 W/m² 15,2 °C 16,2 °C 0,0 km/h (0 Bft)
02.08.2018 06:19 16,2 °C 94 % 1017,3 hPa 0,0 mm 0,0 km/h (0 Bft) S-SW 202 ° 0 min 0,000 mm 0,0 UV-I 21 W/m² 15,2 °C 16,2 °C 0,0 km/h (0 Bft)
02.08.2018 06:20 16,2 °C 94 % 1017,3 hPa 0,0 mm 0,0 km/h (0 Bft) S-SW 202 ° 0 min 0,000 mm 0,0 UV-I 21 W/m² 15,2 °C 16,2 °C 0,0 km/h (0 Bft)
02.08.2018 06:21 16,2 °C 94 % 1017,3 hPa 0,0 mm 0,0 km/h (0 Bft) S-SW 202 ° 0 min 0,000 mm 0,0 UV-I 21 W/m² 15,2 °C 16,2 °C 0,0 km/h (0 Bft)
02.08.2018 06:22 16,2 °C 94 % 1017,3 hPa 0,0 mm 0,4 km/h (0 Bft) S-SW 202 ° 0 min 0,000 mm 0,0 UV-I 21 W/m² 15,2 °C 16,2 °C 1,6 km/h (1 Bft)
02.08.2018 06:23 16,2 °C 94 % 1017,4 hPa 0,0 mm 0,5 km/h (0 Bft) S-SW 202 ° 0 min 0,000 mm 0,0 UV-I 23 W/m² 15,2 °C 16,2 °C 1,6 km/h (1 Bft)
02.08.2018 06:24 16,1 °C 94 % 1017,4 hPa 0,0 mm 0,0 km/h (0 Bft) S-SW 202 ° 0 min 0,000 mm 0,0 UV-I 25 W/m² 15,1 °C 16,1 °C 0,0 km/h (0 Bft)
02.08.2018 06:25 16,1 °C 94 % 1017,4 hPa 0,0 mm 0,0 km/h (0 Bft) S-SW 202 ° 0 min 0,000 mm 0,0 UV-I 28 W/m² 15,1 °C 16,1 °C 0,0 km/h (0 Bft)
02.08.2018 06:26 16,1 °C 94 % 1017,4 hPa 0,0 mm 0,0 km/h (0 Bft) S-SW 202 ° 0 min 0,000 mm 0,0 UV-I 30 W/m² 15,1 °C 16,1 °C 0,0 km/h (0 Bft)
02.08.2018 06:27 16,1 °C 94 % 1017,4 hPa 0,0 mm 0,0 km/h (0 Bft) S-SW 202 ° 0 min 0,000 mm 0,0 UV-I 32 W/m² 15,1 °C 16,1 °C 0,0 km/h (0 Bft)
02.08.2018 06:28 16,1 °C 94 % 1017,5 hPa 0,0 mm 0,0 km/h (0 Bft) S-SW 202 ° 0 min 0,000 mm 0,0 UV-I 32 W/m² 15,1 °C 16,1 °C 0,0 km/h (0 Bft)
02.08.2018 06:29 16,2 °C 94 % 1017,4 hPa 0,0 mm 0,0 km/h (0 Bft) S-SW 202 ° 0 min 0,000 mm 0,0 UV-I 33 W/m² 15,2 °C 16,2 °C 0,0 km/h (0 Bft)
02.08.2018 06:30 16,2 °C 94 % 1017,4 hPa 0,0 mm 0,0 km/h (0 Bft) S-SW 202 ° 0 min 0,000 mm 0,0 UV-I 35 W/m² 15,2 °C 16,2 °C 0,0 km/h (0 Bft)
02.08.2018 06:31 16,2 °C 94 % 1017,4 hPa 0,0 mm 0,0 km/h (0 Bft) S-SW 202 ° 0 min 0,000 mm 0,0 UV-I 35 W/m² 15,2 °C 16,2 °C 0,0 km/h (0 Bft)
02.08.2018 06:32 16,2 °C 94 % 1017,4 hPa 0,0 mm 0,0 km/h (0 Bft) S-SW 202 ° 0 min 0,000 mm 0,0 UV-I 35 W/m² 15,2 °C 16,2 °C 0,0 km/h (0 Bft)
02.08.2018 06:33 16,2 °C 94 % 1017,4 hPa 0,0 mm 0,0 km/h (0 Bft) S-SW 202 ° 0 min 0,000 mm 0,0 UV-I 37 W/m² 15,2 °C 16,2 °C 0,0 km/h (0 Bft)
02.08.2018 06:34 16,2 °C 94 % 1017,4 hPa 0,0 mm 0,0 km/h (0 Bft) S-SW 202 ° 0 min 0,000 mm 0,0 UV-I 39 W/m² 15,2 °C 16,2 °C 0,0 km/h (0 Bft)
02.08.2018 06:35 16,2 °C 94 % 1017,4 hPa 0,0 mm 0,0 km/h (0 Bft) S-SW 202 ° 0 min 0,000 mm 0,0 UV-I 40 W/m² 15,2 °C 16,2 °C 0,0 km/h (0 Bft)
02.08.2018 06:36 16,3 °C 94 % 1017,4 hPa 0,0 mm 0,0 km/h (0 Bft) S-SW 202 ° 0 min 0,000 mm 0,0 UV-I 42 W/m² 15,3 °C 16,3 °C 0,0 km/h (0 Bft)
02.08.2018 06:37 16,3 °C 94 % 1017,3 hPa 0,0 mm 0,0 km/h (0 Bft) S-SW 202 ° 0 min 0,000 mm 0,0 UV-I 44 W/m² 15,3 °C 16,3 °C 0,0 km/h (0 Bft)
02.08.2018 06:38 16,3 °C 94 % 1017,4 hPa 0,0 mm 0,0 km/h (0 Bft) S-SW 202 ° 0 min 0,000 mm 0,0 UV-I 46 W/m² 15,3 °C 16,3 °C 0,0 km/h (0 Bft)
02.08.2018 06:39 16,3 °C 94 % 1017,3 hPa 0,0 mm 0,0 km/h (0 Bft) S-SW 202 ° 0 min 0,000 mm 0,0 UV-I 47 W/m² 15,3 °C 16,3 °C 0,0 km/h (0 Bft)
02.08.2018 06:40 16,4 °C 94 % 1017,3 hPa 0,0 mm 0,0 km/h (0 Bft) S-SW 202 ° 0 min 0,000 mm 0,0 UV-I 47 W/m² 15,4 °C 16,4 °C 0,0 km/h (0 Bft)
02.08.2018 06:41 16,4 °C 94 % 1017,3 hPa 0,0 mm 0,0 km/h (0 Bft) S-SW 202 ° 0 min 0,000 mm 0,0 UV-I 49 W/m² 15,4 °C 16,4 °C 0,0 km/h (0 Bft)
02.08.2018 06:42 16,4 °C 94 % 1017,3 hPa 0,0 mm 0,0 km/h (0 Bft) S-SW 202 ° 0 min 0,000 mm 0,0 UV-I 49 W/m² 15,4 °C 16,4 °C 0,0 km/h (0 Bft)
02.08.2018 06:43 16,4 °C 94 % 1017,3 hPa 0,0 mm 0,0 km/h (0 Bft) S-SW 202 ° 0 min 0,000 mm 0,0 UV-I 53 W/m² 15,4 °C 16,4 °C 0,0 km/h (0 Bft)
02.08.2018 06:44 16,4 °C 94 % 1017,3 hPa 0,0 mm 0,0 km/h (0 Bft) S-SW 202 ° 0 min 0,000 mm 0,0 UV-I 54 W/m² 15,4 °C 16,4 °C 0,0 km/h (0 Bft)
02.08.2018 06:45 16,4 °C 94 % 1017,3 hPa 0,0 mm 0,0 km/h (0 Bft) S-SW 202 ° 0 min 0,000 mm 0,0 UV-I 54 W/m² 15,4 °C 16,4 °C 0,0 km/h (0 Bft)
02.08.2018 06:46 16,4 °C 94 % 1017,3 hPa 0,0 mm 0,0 km/h (0 Bft) S-SW 202 ° 0 min 0,000 mm 0,0 UV-I 56 W/m² 15,4 °C 16,4 °C 0,0 km/h (0 Bft)
02.08.2018 06:47 16,4 °C 94 % 1017,2 hPa 0,0 mm 0,0 km/h (0 Bft) S-SW 202 ° 0 min 0,000 mm 0,0 UV-I 56 W/m² 15,4 °C 16,4 °C 0,0 km/h (0 Bft)
02.08.2018 06:48 16,4 °C 94 % 1017,2 hPa 0,0 mm 0,0 km/h (0 Bft) S-SW 202 ° 0 min 0,000 mm 0,0 UV-I 56 W/m² 15,4 °C 16,4 °C 0,0 km/h (0 Bft)
02.08.2018 06:49 16,4 °C 94 % 1017,2 hPa 0,0 mm 0,0 km/h (0 Bft) S-SW 202 ° 0 min 0,000 mm 0,0 UV-I 56 W/m² 15,4 °C 16,4 °C 0,0 km/h (0 Bft)
02.08.2018 06:50 16,5 °C 94 % 1017,2 hPa 0,0 mm 0,0 km/h (0 Bft) S-SW 202 ° 0 min 0,000 mm 0,0 UV-I 58 W/m² 15,5 °C 16,5 °C 0,0 km/h (0 Bft)
02.08.2018 06:51 16,5 °C 94 % 1017,2 hPa 0,0 mm 0,0 km/h (0 Bft) S-SW 202 ° 0 min 0,000 mm 0,0 UV-I 60 W/m² 15,5 °C 16,5 °C 0,0 km/h (0 Bft)
02.08.2018 06:52 16,6 °C 94 % 1017,2 hPa 0,0 mm 0,1 km/h (0 Bft) S-SW 202 ° 0 min 0,000 mm 0,0 UV-I 62 W/m² 15,6 °C 16,6 °C 1,6 km/h (1 Bft)
02.08.2018 06:53 16,6 °C 94 % 1017,2 hPa 0,0 mm 0,8 km/h (0 Bft) S-SW 202 ° 0 min 0,000 mm 0,0 UV-I 65 W/m² 15,6 °C 16,6 °C 1,6 km/h (1 Bft)
02.08.2018 06:54 16,6 °C 94 % 1017,3 hPa 0,0 mm 0,0 km/h (0 Bft) S-SW 202 ° 0 min 0,000 mm 0,0 UV-I 62 W/m² 15,6 °C 16,6 °C 0,0 km/h (0 Bft)
02.08.2018 06:55 16,6 °C 94 % 1017,2 hPa 0,0 mm 0,0 km/h (0 Bft) S-SW 202 ° 0 min 0,000 mm 0,0 UV-I 60 W/m² 15,6 °C 16,6 °C 0,0 km/h (0 Bft)
02.08.2018 06:56 16,6 °C 94 % 1017,3 hPa 0,0 mm 0,0 km/h (0 Bft) S-SW 202 ° 0 min 0,000 mm 0,0 UV-I 58 W/m² 15,6 °C 16,6 °C 0,0 km/h (0 Bft)
02.08.2018 06:57 16,6 °C 94 % 1017,2 hPa 0,0 mm 0,0 km/h (0 Bft) S-SW 202 ° 0 min 0,000 mm 0,0 UV-I 60 W/m² 15,6 °C 16,6 °C 0,0 km/h (0 Bft)
02.08.2018 06:58 16,6 °C 94 % 1017,3 hPa 0,0 mm 0,0 km/h (0 Bft) S-SW 202 ° 0 min 0,000 mm 0,0 UV-I 65 W/m² 15,6 °C 16,6 °C 0,0 km/h (0 Bft)
02.08.2018 06:59 16,6 °C 94 % 1017,3 hPa 0,0 mm 0,0 km/h (0 Bft) S-SW 202 ° 0 min 0,000 mm 0,0 UV-I 77 W/m² 15,6 °C 16,6 °C 0,0 km/h (0 Bft)
02.08.2018 07:00 16,6 °C 94 % 1017,3 hPa 0,0 mm 0,0 km/h (0 Bft) S-SW 202 ° 0 min 0,000 mm 0,0 UV-I 77 W/m² 15,6 °C 16,6 °C 0,0 km/h (0 Bft)
02.08.2018 07:01 16,6 °C 94 % 1017,3 hPa 0,0 mm 0,0 km/h (0 Bft) S-SW 202 ° 0 min 0,025 mm 0,0 UV-I 83 W/m² 15,6 °C 16,6 °C 0,0 km/h (0 Bft)
02.08.2018 07:02 16,6 °C 94 % 1017,3 hPa 0,0 mm 0,0 km/h (0 Bft) S-SW 202 ° 0 min 0,000 mm 0,0 UV-I 84 W/m² 15,6 °C 16,6 °C 0,0 km/h (0 Bft)
02.08.2018 07:03 16,7 °C 94 % 1017,3 hPa 0,0 mm 0,0 km/h (0 Bft) S-SW 202 ° 0 min 0,000 mm 0,0 UV-I 86 W/m² 15,7 °C 16,7 °C 0,0 km/h (0 Bft)
02.08.2018 07:04 16,6 °C 94 % 1017,3 hPa 0,0 mm 0,0 km/h (0 Bft) S-SW 202 ° 0 min 0,000 mm 0,0 UV-I 90 W/m² 15,6 °C 16,6 °C 0,0 km/h (0 Bft)
02.08.2018 07:05 16,7 °C 94 % 1017,3 hPa 0,0 mm 0,0 km/h (0 Bft) S-SW 202 ° 0 min 0,000 mm 0,0 UV-I 91 W/m² 15,7 °C 16,7 °C 0,0 km/h (0 Bft)
02.08.2018 07:06 16,7 °C 94 % 1017,3 hPa 0,0 mm 0,0 km/h (0 Bft) S-SW 202 ° 0 min 0,000 mm 0,0 UV-I 91 W/m² 15,7 °C 16,7 °C 0,0 km/h (0 Bft)
02.08.2018 07:07 16,7 °C 94 % 1017,3 hPa 0,0 mm 0,0 km/h (0 Bft) S-SW 202 ° 0 min 0,000 mm 0,0 UV-I 91 W/m² 15,7 °C 16,7 °C 0,0 km/h (0 Bft)
02.08.2018 07:08 16,7 °C 94 % 1017,3 hPa 0,0 mm 0,0 km/h (0 Bft) S-SW 202 ° 0 min 0,000 mm 0,0 UV-I 91 W/m² 15,7 °C 16,7 °C 0,0 km/h (0 Bft)
02.08.2018 07:09 16,7 °C 94 % 1017,3 hPa 0,0 mm 0,0 km/h (0 Bft) S-SW 202 ° 0 min 0,000 mm 0,0 UV-I 93 W/m² 15,7 °C 16,7 °C 0,0 km/h (0 Bft)
02.08.2018 07:10 16,7 °C 94 % 1017,3 hPa 0,0 mm 0,0 km/h (0 Bft) S-SW 202 ° 0 min 0,000 mm 0,0 UV-I 93 W/m² 15,7 °C 16,7 °C 0,0 km/h (0 Bft)
02.08.2018 07:11 16,7 °C 94 % 1017,3 hPa 0,0 mm 0,0 km/h (0 Bft) S-SW 202 ° 0 min 0,000 mm 0,5 UV-I 95 W/m² 15,7 °C 16,7 °C 0,0 km/h (0 Bft)
02.08.2018 07:12 16,7 °C 94 % 1017,3 hPa 0,0 mm 0,0 km/h (0 Bft) S-SW 202 ° 0 min 0,000 mm 0,5 UV-I 97 W/m² 15,7 °C 16,7 °C 0,0 km/h (0 Bft)
02.08.2018 07:13 16,7 °C 94 % 1017,3 hPa 0,0 mm 0,0 km/h (0 Bft) S-SW 202 ° 0 min 0,000 mm 0,5 UV-I 98 W/m² 15,7 °C 16,7 °C 0,0 km/h (0 Bft)
02.08.2018 07:14 16,7 °C 94 % 1017,3 hPa 0,0 mm 0,0 km/h (0 Bft) S-SW 202 ° 0 min 0,000 mm 0,5 UV-I 102 W/m² 15,7 °C 16,7 °C 0,0 km/h (0 Bft)
02.08.2018 07:15 16,8 °C 94 % 1017,3 hPa 0,0 mm 0,0 km/h (0 Bft) S-SW 202 ° 0 min 0,000 mm 0,5 UV-I 105 W/m² 15,8 °C 16,8 °C 0,0 km/h (0 Bft)
02.08.2018 07:16 16,8 °C 94 % 1017,3 hPa 0,0 mm 0,0 km/h (0 Bft) S-SW 202 ° 0 min 0,000 mm 0,5 UV-I 107 W/m² 15,8 °C 16,8 °C 0,0 km/h (0 Bft)
02.08.2018 07:17 16,8 °C 94 % 1017,3 hPa 0,0 mm 0,0 km/h (0 Bft) S-SW 202 ° 0 min 0,000 mm 0,5 UV-I 114 W/m² 15,8 °C 16,8 °C 0,0 km/h (0 Bft)
02.08.2018 07:18 16,8 °C 94 % 1017,3 hPa 0,0 mm 0,0 km/h (0 Bft) S-SW 202 ° 0 min 0,000 mm 0,5 UV-I 114 W/m² 15,8 °C 16,8 °C 0,0 km/h (0 Bft)
02.08.2018 07:19 16,8 °C 94 % 1017,3 hPa 0,0 mm 0,0 km/h (0 Bft) S-SW 202 ° 0 min 0,000 mm 0,5 UV-I 118 W/m² 15,8 °C 16,8 °C 0,0 km/h (0 Bft)
02.08.2018 07:20 16,8 °C 94 % 1017,3 hPa 0,0 mm 0,0 km/h (0 Bft) S-SW 202 ° 0 min 0,000 mm 0,6 UV-I 116 W/m² 15,8 °C 16,8 °C 0,0 km/h (0 Bft)
02.08.2018 07:21 16,9 °C 94 % 1017,3 hPa 0,0 mm 0,0 km/h (0 Bft) S-SW 202 ° 0 min 0,000 mm 0,6 UV-I 118 W/m² 15,9 °C 16,9 °C 0,0 km/h (0 Bft)
02.08.2018 07:22 16,8 °C 94 % 1017,2 hPa 0,0 mm 0,0 km/h (0 Bft) S-SW 202 ° 0 min 0,000 mm 0,6 UV-I 111 W/m² 15,8 °C 16,8 °C 0,0 km/h (0 Bft)
02.08.2018 07:23 16,9 °C 94 % 1017,2 hPa 0,0 mm 0,0 km/h (0 Bft) S-SW 202 ° 0 min 0,000 mm 0,6 UV-I 113 W/m² 15,9 °C 16,9 °C 0,0 km/h (0 Bft)
02.08.2018 07:24 16,9 °C 94 % 1017,2 hPa 0,0 mm 0,0 km/h (0 Bft) S-SW 202 ° 0 min 0,000 mm 0,6 UV-I 111 W/m² 15,9 °C 16,9 °C 0,0 km/h (0 Bft)
02.08.2018 07:25 17,0 °C 94 % 1017,1 hPa 0,0 mm 0,0 km/h (0 Bft) S-SW 202 ° 0 min 0,000 mm 0,6 UV-I 93 W/m² 16,0 °C 17,0 °C 0,0 km/h (0 Bft)
02.08.2018 07:26 17,1 °C 94 % 1017,1 hPa 0,0 mm 0,0 km/h (0 Bft) S-SW 202 ° 0 min 0,000 mm 0,6 UV-I 84 W/m² 16,1 °C 17,1 °C 0,0 km/h (0 Bft)
02.08.2018 07:27 17,1 °C 94 % 1017,1 hPa 0,0 mm 0,0 km/h (0 Bft) S-SW 202 ° 0 min 0,000 mm 0,6 UV-I 77 W/m² 16,1 °C 17,1 °C 0,0 km/h (0 Bft)
02.08.2018 07:28 17,1 °C 94 % 1017,1 hPa 0,0 mm 0,0 km/h (0 Bft) S-SW 202 ° 0 min 0,000 mm 0,6 UV-I 79 W/m² 16,1 °C 17,1 °C 0,0 km/h (0 Bft)
02.08.2018 07:29 17,1 °C 94 % 1017,2 hPa 0,0 mm 0,0 km/h (0 Bft) S-SW 202 ° 0 min 0,000 mm 0,6 UV-I 69 W/m² 16,1 °C 17,1 °C 0,0 km/h (0 Bft)
02.08.2018 07:30 17,2 °C 94 % 1017,2 hPa 0,0 mm 0,0 km/h (0 Bft) S-SW 202 ° 0 min 0,000 mm 0,6 UV-I 67 W/m² 16,2 °C 17,2 °C 0,0 km/h (0 Bft)
02.08.2018 07:31 17,2 °C 94 % 1017,2 hPa 0,0 mm 0,0 km/h (0 Bft) S-SW 202 ° 0 min 0,000 mm 0,7 UV-I 69 W/m² 16,2 °C 17,2 °C 0,0 km/h (0 Bft)
02.08.2018 07:32 17,2 °C 94 % 1017,3 hPa 0,0 mm 0,0 km/h (0 Bft) S-SW 202 ° 0 min 0,000 mm 0,7 UV-I 69 W/m² 16,2 °C 17,2 °C 0,0 km/h (0 Bft)
02.08.2018 07:33 17,2 °C 94 % 1017,2 hPa 0,0 mm 0,0 km/h (0 Bft) S-SW 202 ° 0 min 0,000 mm 0,7 UV-I 69 W/m² 16,2 °C 17,2 °C 0,0 km/h (0 Bft)
02.08.2018 07:34 17,2 °C 93 % 1017,2 hPa 0,0 mm 0,0 km/h (0 Bft) S-SW 202 ° 0 min 0,000 mm 0,7 UV-I 69 W/m² 16,1 °C 17,2 °C 0,0 km/h (0 Bft)
02.08.2018 07:35 17,3 °C 93 % 1017,3 hPa 0,0 mm 0,0 km/h (0 Bft) S-SW 202 ° 0 min 0,000 mm 0,7 UV-I 90 W/m² 16,2 °C 17,3 °C 0,0 km/h (0 Bft)
02.08.2018 07:36 17,3 °C 93 % 1017,2 hPa 0,0 mm 0,0 km/h (0 Bft) S-SW 202 ° 0 min 0,000 mm 0,7 UV-I 90 W/m² 16,2 °C 17,3 °C 0,0 km/h (0 Bft)
02.08.2018 07:37 17,3 °C 93 % 1017,2 hPa 0,0 mm 0,0 km/h (0 Bft) S-SW 202 ° 0 min 0,000 mm 0,7 UV-I 141 W/m² 16,2 °C 17,3 °C 0,0 km/h (0 Bft)
02.08.2018 07:38 17,3 °C 93 % 1017,3 hPa 0,0 mm 0,0 km/h (0 Bft) S-SW 202 ° 0 min 0,000 mm 0,8 UV-I 160 W/m² 16,2 °C 17,3 °C 0,0 km/h (0 Bft)
02.08.2018 07:39 17,3 °C 93 % 1017,3 hPa 0,0 mm 0,0 km/h (0 Bft) S-SW 202 ° 0 min 0,000 mm 0,8 UV-I 165 W/m² 16,2 °C 17,3 °C 0,0 km/h (0 Bft)
02.08.2018 07:40 17,5 °C 93 % 1017,2 hPa 0,0 mm 0,0 km/h (0 Bft) S-SW 202 ° 0 min 0,000 mm 0,8 UV-I 171 W/m² 16,4 °C 17,5 °C 0,0 km/h (0 Bft)
02.08.2018 07:41 17,6 °C 93 % 1017,3 hPa 0,0 mm 0,0 km/h (0 Bft) S-SW 202 ° 0 min 0,000 mm 0,8 UV-I 172 W/m² 16,5 °C 17,6 °C 0,0 km/h (0 Bft)
02.08.2018 07:42 17,7 °C 93 % 1017,2 hPa 0,0 mm 0,0 km/h (0 Bft) S-SW 202 ° 0 min 0,000 mm 0,8 UV-I 176 W/m² 16,6 °C 17,7 °C 0,0 km/h (0 Bft)
02.08.2018 07:43 17,8 °C 93 % 1017,2 hPa 0,0 mm 0,0 km/h (0 Bft) S-SW 202 ° 0 min 0,000 mm 0,8 UV-I 178 W/m² 16,7 °C 17,8 °C 0,0 km/h (0 Bft)
02.08.2018 07:44 17,8 °C 93 % 1017,3 hPa 0,0 mm 0,0 km/h (0 Bft) S-SW 202 ° 0 min 0,000 mm 0,8 UV-I 179 W/m² 16,7 °C 17,8 °C 0,0 km/h (0 Bft)
02.08.2018 07:45 17,8 °C 93 % 1017,3 hPa 0,0 mm 0,0 km/h (0 Bft) S-SW 202 ° 0 min 0,000 mm 0,9 UV-I 181 W/m² 16,7 °C 17,8 °C 0,0 km/h (0 Bft)
02.08.2018 07:46 17,8 °C 92 % 1017,3 hPa 0,0 mm 0,0 km/h (0 Bft) S-SW 202 ° 0 min 0,000 mm 0,9 UV-I 186 W/m² 16,5 °C 17,8 °C 0,0 km/h (0 Bft)
02.08.2018 07:47 17,8 °C 92 % 1017,3 hPa 0,0 mm 0,0 km/h (0 Bft) S-SW 202 ° 0 min 0,000 mm 0,9 UV-I 190 W/m² 16,5 °C 17,8 °C 0,0 km/h (0 Bft)
02.08.2018 07:48 17,9 °C 93 % 1017,3 hPa 0,0 mm 0,0 km/h (0 Bft) S-SW 202 ° 0 min 0,000 mm 0,9 UV-I 193 W/m² 16,8 °C 17,9 °C 0,0 km/h (0 Bft)
02.08.2018 07:49 17,9 °C 93 % 1017,3 hPa 0,0 mm 0,0 km/h (0 Bft) S-SW 202 ° 0 min 0,000 mm 0,9 UV-I 195 W/m² 16,8 °C 17,9 °C 0,0 km/h (0 Bft)
02.08.2018 07:50 17,9 °C 92 % 1017,4 hPa 0,0 mm 0,0 km/h (0 Bft) S-SW 202 ° 0 min 0,000 mm 0,9 UV-I 199 W/m² 16,6 °C 17,9 °C 0,0 km/h (0 Bft)
02.08.2018 07:51 17,9 °C 92 % 1017,4 hPa 0,0 mm 0,0 km/h (0 Bft) S-SW 202 ° 0 min 0,000 mm 0,9 UV-I 200 W/m² 16,6 °C 17,9 °C 0,0 km/h (0 Bft)
02.08.2018 07:52 18,0 °C 92 % 1017,4 hPa 0,0 mm 0,0 km/h (0 Bft) S-SW 202 ° 0 min 0,000 mm 1,0 UV-I 204 W/m² 16,7 °C 18,0 °C 0,0 km/h (0 Bft)
02.08.2018 07:53 18,1 °C 92 % 1017,4 hPa 0,0 mm 0,0 km/h (0 Bft) S-SW 202 ° 0 min 0,000 mm 1,0 UV-I 209 W/m² 16,8 °C 18,1 °C 0,0 km/h (0 Bft)
02.08.2018 07:54 18,1 °C 92 % 1017,3 hPa 0,0 mm 0,0 km/h (0 Bft) S-SW 202 ° 0 min 0,000 mm 1,0 UV-I 209 W/m² 16,8 °C 18,1 °C 0,0 km/h (0 Bft)
02.08.2018 07:55 18,2 °C 92 % 1017,3 hPa 0,0 mm 0,0 km/h (0 Bft) S-SW 202 ° 0 min 0,000 mm 1,0 UV-I 214 W/m² 16,9 °C 18,2 °C 0,0 km/h (0 Bft)
02.08.2018 07:56 18,2 °C 91 % 1017,3 hPa 0,0 mm 0,0 km/h (0 Bft) S-SW 202 ° 0 min 0,000 mm 1,0 UV-I 216 W/m² 16,7 °C 18,2 °C 0,0 km/h (0 Bft)
02.08.2018 07:57 18,2 °C 92 % 1017,3 hPa 0,0 mm 0,0 km/h (0 Bft) S-SW 202 ° 0 min 0,000 mm 1,1 UV-I 220 W/m² 16,9 °C 18,2 °C 0,0 km/h (0 Bft)
02.08.2018 07:58 18,2 °C 91 % 1017,2 hPa 0,0 mm 0,0 km/h (0 Bft) S-SW 202 ° 0 min 0,000 mm 1,1 UV-I 225 W/m² 16,7 °C 18,2 °C 0,0 km/h (0 Bft)
02.08.2018 07:59 18,2 °C 91 % 1017,3 hPa 0,0 mm 0,0 km/h (0 Bft) S-SW 202 ° 0 min 0,000 mm 1,1 UV-I 229 W/m² 16,7 °C 18,2 °C 0,0 km/h (0 Bft)
02.08.2018 08:00 18,3 °C 91 % 1017,2 hPa 0,0 mm 0,0 km/h (0 Bft) S-SW 202 ° 0 min 0,000 mm 1,1 UV-I 229 W/m² 16,8 °C 18,3 °C 0,0 km/h (0 Bft)
02.08.2018 08:01 18,3 °C 92 % 1017,2 hPa 0,0 mm 0,0 km/h (0 Bft) S-SW 202 ° 0 min 0,077 mm 1,1 UV-I 234 W/m² 17,0 °C 18,3 °C 0,0 km/h (0 Bft)
02.08.2018 08:02 18,4 °C 92 % 1017,2 hPa 0,0 mm 0,0 km/h (0 Bft) S-SW 202 ° 0 min 0,000 mm 1,1 UV-I 237 W/m² 17,1 °C 18,4 °C 0,0 km/h (0 Bft)
02.08.2018 08:03 18,4 °C 91 % 1017,1 hPa 0,0 mm 0,0 km/h (0 Bft) S-SW 202 ° 0 min 0,000 mm 1,1 UV-I 239 W/m² 16,9 °C 18,4 °C 0,0 km/h (0 Bft)
02.08.2018 08:04 18,4 °C 91 % 1017,1 hPa 0,0 mm 0,1 km/h (0 Bft) S-SW 202 ° 0 min 0,000 mm 1,2 UV-I 244 W/m² 16,9 °C 18,4 °C 1,6 km/h (1 Bft)
02.08.2018 08:05 18,5 °C 91 % 1017,2 hPa 0,0 mm 0,0 km/h (0 Bft) S-SW 202 ° 0 min 0,000 mm 1,2 UV-I 246 W/m² 17,0 °C 18,5 °C 0,0 km/h (0 Bft)
02.08.2018 08:06 18,5 °C 90 % 1017,2 hPa 0,0 mm 0,0 km/h (0 Bft) S-SW 202 ° 0 min 0,000 mm 1,2 UV-I 248 W/m² 16,8 °C 18,5 °C 0,0 km/h (0 Bft)
02.08.2018 08:07 18,5 °C 90 % 1017,2 hPa 0,0 mm 0,0 km/h (0 Bft) S-SW 202 ° 0 min 0,000 mm 1,2 UV-I 250 W/m² 16,8 °C 18,5 °C 0,0 km/h (0 Bft)
02.08.2018 08:08 18,5 °C 90 % 1017,2 hPa 0,0 mm 0,1 km/h (0 Bft) S-SW 202 ° 0 min 0,000 mm 1,2 UV-I 251 W/m² 16,8 °C 18,5 °C 1,6 km/h (1 Bft)
02.08.2018 08:09 18,5 °C 90 % 1017,2 hPa 0,0 mm 0,0 km/h (0 Bft) S-SW 202 ° 0 min 0,000 mm 1,2 UV-I 253 W/m² 16,8 °C 18,5 °C 0,0 km/h (0 Bft)
02.08.2018 08:10 18,6 °C 90 % 1017,2 hPa 0,0 mm 0,0 km/h (0 Bft) S-SW 202 ° 0 min 0,000 mm 1,2 UV-I 258 W/m² 16,9 °C 18,6 °C 0,0 km/h (0 Bft)
02.08.2018 08:11 18,6 °C 90 % 1017,3 hPa 0,0 mm 0,0 km/h (0 Bft) S-SW 202 ° 0 min 0,000 mm 1,3 UV-I 262 W/m² 16,9 °C 18,6 °C 0,0 km/h (0 Bft)
02.08.2018 08:12 18,7 °C 90 % 1017,2 hPa 0,0 mm 0,0 km/h (0 Bft) S-SW 202 ° 0 min 0,000 mm 1,3 UV-I 262 W/m² 17,0 °C 18,7 °C 0,0 km/h (0 Bft)
02.08.2018 08:13 18,8 °C 90 % 1017,3 hPa 0,0 mm 0,0 km/h (0 Bft) S-SW 202 ° 0 min 0,000 mm 1,3 UV-I 265 W/m² 17,1 °C 18,8 °C 0,0 km/h (0 Bft)
02.08.2018 08:14 18,8 °C 90 % 1017,3 hPa 0,0 mm 0,0 km/h (0 Bft) S-SW 202 ° 0 min 0,000 mm 1,3 UV-I 267 W/m² 17,1 °C 18,8 °C 0,0 km/h (0 Bft)
02.08.2018 08:15 18,8 °C 90 % 1017,3 hPa 0,0 mm 0,0 km/h (0 Bft) S-SW 202 ° 0 min 0,000 mm 1,3 UV-I 271 W/m² 17,1 °C 18,8 °C 0,0 km/h (0 Bft)
02.08.2018 08:16 18,8 °C 89 % 1017,2 hPa 0,0 mm 0,0 km/h (0 Bft) S-SW 202 ° 0 min 0,000 mm 1,3 UV-I 272 W/m² 16,9 °C 18,8 °C 0,0 km/h (0 Bft)
02.08.2018 08:17 18,8 °C 90 % 1017,3 hPa 0,0 mm 0,0 km/h (0 Bft) S-SW 202 ° 0 min 0,000 mm 1,4 UV-I 276 W/m² 17,1 °C 18,8 °C 0,0 km/h (0 Bft)
02.08.2018 08:18 18,9 °C 90 % 1017,3 hPa 0,0 mm 0,0 km/h (0 Bft) S-SW 202 ° 0 min 0,000 mm 1,4 UV-I 279 W/m² 17,2 °C 18,9 °C 0,0 km/h (0 Bft)
02.08.2018 08:19 18,9 °C 89 % 1017,3 hPa 0,0 mm 0,0 km/h (0 Bft) S-SW 202 ° 0 min 0,000 mm 1,4 UV-I 279 W/m² 17,0 °C 18,9 °C 0,0 km/h (0 Bft)
02.08.2018 08:20 18,9 °C 89 % 1017,3 hPa 0,0 mm 0,0 km/h (0 Bft) S-SW 202 ° 0 min 0,000 mm 1,4 UV-I 281 W/m² 17,0 °C 18,9 °C 0,0 km/h (0 Bft)
02.08.2018 08:21 18,9 °C 89 % 1017,3 hPa 0,0 mm 0,0 km/h (0 Bft) S-SW 202 ° 0 min 0,000 mm 1,4 UV-I 288 W/m² 17,0 °C 18,9 °C 0,0 km/h (0 Bft)
02.08.2018 08:22 18,9 °C 89 % 1017,3 hPa 0,0 mm 0,1 km/h (0 Bft) S-SW 202 ° 0 min 0,000 mm 1,4 UV-I 295 W/m² 17,0 °C 18,9 °C 1,6 km/h (1 Bft)
02.08.2018 08:23 19,1 °C 90 % 1017,3 hPa 0,0 mm 0,7 km/h (0 Bft) W 263 ° 0 min 0,000 mm 1,5 UV-I 294 W/m² 17,4 °C 19,1 °C 3,2 km/h (1 Bft)
02.08.2018 08:24 19,1 °C 89 % 1017,3 hPa 0,0 mm 0,1 km/h (0 Bft) W 263 ° 0 min 0,000 mm 1,5 UV-I 297 W/m² 17,2 °C 19,1 °C 1,6 km/h (1 Bft)
02.08.2018 08:25 19,3 °C 89 % 1017,3 hPa 0,0 mm 0,0 km/h (0 Bft) W 263 ° 0 min 0,000 mm 1,5 UV-I 299 W/m² 17,4 °C 19,3 °C 0,0 km/h (0 Bft)
02.08.2018 08:26 19,6 °C 88 % 1017,3 hPa 0,0 mm 1,9 km/h (1 Bft) W 271 ° 0 min 0,000 mm 1,5 UV-I 297 W/m² 17,6 °C 19,6 °C 4,8 km/h (1 Bft)
02.08.2018 08:27 19,8 °C 89 % 1017,3 hPa 0,0 mm 2,3 km/h (1 Bft) W 271 ° 0 min 0,000 mm 1,5 UV-I 299 W/m² 17,9 °C 19,8 °C 4,8 km/h (1 Bft)
02.08.2018 08:28 20,0 °C 88 % 1017,3 hPa 0,0 mm 2,5 km/h (1 Bft) W-NW 292 ° 0 min 0,000 mm 1,6 UV-I 302 W/m² 17,9 °C 20,0 °C 3,2 km/h (1 Bft)
02.08.2018 08:29 20,1 °C 86 % 1017,3 hPa 0,0 mm 2,1 km/h (1 Bft) W-NW 292 ° 0 min 0,000 mm 1,6 UV-I 308 W/m² 17,7 °C 20,1 °C 3,2 km/h (1 Bft)
02.08.2018 08:30 20,1 °C 86 % 1017,3 hPa 0,0 mm 1,3 km/h (1 Bft) W-NW 292 ° 0 min 0,000 mm 1,6 UV-I 308 W/m² 17,7 °C 20,1 °C 3,2 km/h (1 Bft)
02.08.2018 08:31 20,2 °C 85 % 1017,3 hPa 0,0 mm 2,5 km/h (1 Bft) W-NW 292 ° 0 min 0,000 mm 1,6 UV-I 313 W/m² 17,6 °C 20,2 °C 3,2 km/h (1 Bft)
02.08.2018 08:32 20,2 °C 86 % 1017,3 hPa 0,0 mm 1,1 km/h (1 Bft) W-NW 292 ° 0 min 0,000 mm 1,7 UV-I 318 W/m² 17,8 °C 20,2 °C 3,2 km/h (1 Bft)
02.08.2018 08:33 20,3 °C 86 % 1017,3 hPa 0,0 mm 0,6 km/h (0 Bft) W-NW 292 ° 0 min 0,000 mm 1,7 UV-I 323 W/m² 17,9 °C 20,3 °C 1,6 km/h (1 Bft)
02.08.2018 08:34 20,4 °C 86 % 1017,3 hPa 0,0 mm 0,7 km/h (0 Bft) W-NW 292 ° 0 min 0,000 mm 1,7 UV-I 323 W/m² 18,0 °C 20,4 °C 1,6 km/h (1 Bft)
02.08.2018 08:35 20,5 °C 85 % 1017,3 hPa 0,0 mm 4,6 km/h (1 Bft) W 268 ° 0 min 0,000 mm 1,7 UV-I 325 W/m² 17,9 °C 20,5 °C 6,4 km/h (2 Bft)
02.08.2018 08:36 20,6 °C 85 % 1017,3 hPa 0,0 mm 4,6 km/h (1 Bft) W 268 ° 0 min 0,000 mm 1,7 UV-I 327 W/m² 18,0 °C 20,6 °C 6,4 km/h (2 Bft)
02.08.2018 08:37 20,6 °C 83 % 1017,3 hPa 0,0 mm 4,2 km/h (1 Bft) W 269 ° 0 min 0,000 mm 1,8 UV-I 330 W/m² 17,6 °C 20,6 °C 6,4 km/h (2 Bft)
02.08.2018 08:38 20,6 °C 84 % 1017,3 hPa 0,0 mm 2,1 km/h (1 Bft) W 269 ° 0 min 0,000 mm 1,8 UV-I 332 W/m² 17,8 °C 20,6 °C 3,2 km/h (1 Bft)
02.08.2018 08:39 20,4 °C 86 % 1017,3 hPa 0,0 mm 1,5 km/h (1 Bft) W 269 ° 0 min 0,000 mm 1,8 UV-I 343 W/m² 18,0 °C 20,4 °C 4,8 km/h (1 Bft)
02.08.2018 08:40 20,4 °C 84 % 1017,3 hPa 0,0 mm 3,6 km/h (1 Bft) W 269 ° 0 min 0,000 mm 1,9 UV-I 345 W/m² 17,6 °C 20,4 °C 4,8 km/h (1 Bft)
02.08.2018 08:41 20,4 °C 86 % 1017,3 hPa 0,0 mm 3,6 km/h (1 Bft) W 270 ° 0 min 0,000 mm 1,9 UV-I 346 W/m² 18,0 °C 20,4 °C 6,4 km/h (2 Bft)
02.08.2018 08:42 20,5 °C 85 % 1017,3 hPa 0,0 mm 2,7 km/h (1 Bft) W 270 ° 0 min 0,000 mm 1,9 UV-I 350 W/m² 17,9 °C 20,5 °C 4,8 km/h (1 Bft)
02.08.2018 08:43 20,6 °C 83 % 1017,3 hPa 0,0 mm 3,3 km/h (1 Bft) W 270 ° 0 min 0,000 mm 1,9 UV-I 352 W/m² 17,6 °C 20,6 °C 6,4 km/h (2 Bft)
02.08.2018 08:44 20,6 °C 83 % 1017,3 hPa 0,0 mm 3,9 km/h (1 Bft) W 265 ° 0 min 0,000 mm 1,9 UV-I 353 W/m² 17,6 °C 20,6 °C 6,4 km/h (2 Bft)
02.08.2018 08:45 20,6 °C 82 % 1017,3 hPa 0,0 mm 4,7 km/h (1 Bft) W 265 ° 0 min 0,000 mm 2,0 UV-I 359 W/m² 17,4 °C 20,6 °C 6,4 km/h (2 Bft)
02.08.2018 08:46 20,7 °C 82 % 1017,3 hPa 0,0 mm 3,5 km/h (1 Bft) W 265 ° 0 min 0,000 mm 2,0 UV-I 362 W/m² 17,5 °C 20,7 °C 4,8 km/h (1 Bft)
02.08.2018 08:47 20,7 °C 82 % 1017,3 hPa 0,0 mm 1,5 km/h (1 Bft) W 265 ° 0 min 0,000 mm 2,0 UV-I 364 W/m² 17,5 °C 20,7 °C 3,2 km/h (1 Bft)
02.08.2018 08:48 20,8 °C 84 % 1017,3 hPa 0,0 mm 1,6 km/h (1 Bft) W 265 ° 0 min 0,000 mm 2,0 UV-I 364 W/m² 18,0 °C 20,8 °C 4,8 km/h (1 Bft)
02.08.2018 08:49 20,9 °C 84 % 1017,3 hPa 0,0 mm 3,3 km/h (1 Bft) W 265 ° 0 min 0,000 mm 2,0 UV-I 364 W/m² 18,1 °C 20,9 °C 6,4 km/h (2 Bft)
02.08.2018 08:50 21,0 °C 82 % 1017,4 hPa 0,0 mm 4,7 km/h (1 Bft) W-SW 257 ° 0 min 0,000 mm 2,1 UV-I 366 W/m² 17,8 °C 21,0 °C 6,4 km/h (2 Bft)
02.08.2018 08:51 21,0 °C 81 % 1017,4 hPa 0,0 mm 3,8 km/h (1 Bft) W 259 ° 0 min 0,000 mm 2,1 UV-I 367 W/m² 17,6 °C 21,0 °C 4,8 km/h (1 Bft)
02.08.2018 08:52 21,0 °C 81 % 1017,4 hPa 0,0 mm 5,0 km/h (1 Bft) W 259 ° 0 min 0,000 mm 2,1 UV-I 371 W/m² 17,6 °C 21,0 °C 9,7 km/h (2 Bft)
02.08.2018 08:53 20,9 °C 80 % 1017,4 hPa 0,0 mm 4,2 km/h (1 Bft) W 259 ° 0 min 0,000 mm 2,1 UV-I 374 W/m² 17,3 °C 20,9 °C 4,8 km/h (1 Bft)
02.08.2018 08:54 20,9 °C 80 % 1017,4 hPa 0,0 mm 2,3 km/h (1 Bft) W 259 ° 0 min 0,000 mm 2,1 UV-I 376 W/m² 17,3 °C 20,9 °C 3,2 km/h (1 Bft)
02.08.2018 08:55 20,9 °C 79 % 1017,4 hPa 0,0 mm 0,7 km/h (0 Bft) W 259 ° 0 min 0,000 mm 2,2 UV-I 380 W/m² 17,1 °C 20,9 °C 1,6 km/h (1 Bft)
02.08.2018 08:56 20,9 °C 79 % 1017,4 hPa 0,0 mm 0,8 km/h (0 Bft) W 259 ° 0 min 0,000 mm 2,2 UV-I 383 W/m² 17,1 °C 20,9 °C 1,6 km/h (1 Bft)
02.08.2018 08:57 20,9 °C 80 % 1017,4 hPa 0,0 mm 1,2 km/h (1 Bft) W 259 ° 0 min 0,000 mm 2,2 UV-I 387 W/m² 17,3 °C 20,9 °C 3,2 km/h (1 Bft)
02.08.2018 08:58 20,8 °C 82 % 1017,5 hPa 0,0 mm 1,7 km/h (1 Bft) W 259 ° 0 min 0,000 mm 2,2 UV-I 388 W/m² 17,6 °C 20,8 °C 4,8 km/h (1 Bft)
02.08.2018 08:59 20,8 °C 80 % 1017,4 hPa 0,0 mm 0,1 km/h (0 Bft) W 259 ° 0 min 0,000 mm 2,2 UV-I 390 W/m² 17,2 °C 20,8 °C 1,6 km/h (1 Bft)
02.08.2018 09:00 20,9 °C 82 % 1017,4 hPa 0,0 mm 0,7 km/h (0 Bft) W 259 ° 0 min 0,000 mm 2,2 UV-I 394 W/m² 17,7 °C 20,9 °C 3,2 km/h (1 Bft)
02.08.2018 09:01 21,0 °C 82 % 1017,5 hPa 0,0 mm 0,5 km/h (0 Bft) W 259 ° 0 min 0,177 mm 2,3 UV-I 397 W/m² 17,8 °C 21,0 °C 1,6 km/h (1 Bft)
02.08.2018 09:02 21,0 °C 80 % 1017,5 hPa 0,0 mm 0,0 km/h (0 Bft) W 259 ° 0 min 0,000 mm 2,3 UV-I 404 W/m² 17,4 °C 21,0 °C 0,0 km/h (0 Bft)
02.08.2018 09:03 20,9 °C 81 % 1017,5 hPa 0,0 mm 0,1 km/h (0 Bft) W 259 ° 0 min 0,000 mm 2,3 UV-I 404 W/m² 17,5 °C 20,9 °C 1,6 km/h (1 Bft)
02.08.2018 09:04 20,9 °C 84 % 1017,5 hPa 0,0 mm 3,1 km/h (1 Bft) W 275 ° 0 min 0,000 mm 2,3 UV-I 404 W/m² 18,1 °C 20,9 °C 4,8 km/h (1 Bft)
02.08.2018 09:05 20,9 °C 83 % 1017,5 hPa 0,0 mm 2,5 km/h (1 Bft) W 275 ° 0 min 0,000 mm 2,3 UV-I 404 W/m² 17,9 °C 20,9 °C 3,2 km/h (1 Bft)
02.08.2018 09:06 21,0 °C 80 % 1017,5 hPa 0,0 mm 1,1 km/h (1 Bft) W 275 ° 0 min 0,000 mm 2,4 UV-I 404 W/m² 17,4 °C 21,0 °C 3,2 km/h (1 Bft)
02.08.2018 09:07 21,1 °C 80 % 1017,5 hPa 0,0 mm 0,4 km/h (0 Bft) W 275 ° 0 min 0,000 mm 2,4 UV-I 411 W/m² 17,5 °C 21,1 °C 1,6 km/h (1 Bft)
02.08.2018 09:08 21,1 °C 80 % 1017,6 hPa 0,0 mm 0,1 km/h (0 Bft) W 275 ° 0 min 0,000 mm 2,4 UV-I 404 W/m² 17,5 °C 21,1 °C 1,6 km/h (1 Bft)
02.08.2018 09:09 21,1 °C 80 % 1017,5 hPa 0,0 mm 0,0 km/h (0 Bft) W 275 ° 0 min 0,000 mm 2,4 UV-I 404 W/m² 17,5 °C 21,1 °C 0,0 km/h (0 Bft)
02.08.2018 09:10 21,1 °C 80 % 1017,6 hPa 0,0 mm 0,1 km/h (0 Bft) W 275 ° 0 min 0,000 mm 2,4 UV-I 420 W/m² 17,5 °C 21,1 °C 1,6 km/h (1 Bft)
02.08.2018 09:11 20,9 °C 82 % 1017,6 hPa 0,0 mm 0,0 km/h (0 Bft) W 275 ° 0 min 0,000 mm 2,5 UV-I 422 W/m² 17,7 °C 20,9 °C 0,0 km/h (0 Bft)
02.08.2018 09:12 20,7 °C 82 % 1017,6 hPa 0,0 mm 0,0 km/h (0 Bft) W 275 ° 0 min 0,000 mm 2,5 UV-I 422 W/m² 17,5 °C 20,7 °C 0,0 km/h (0 Bft)
02.08.2018 09:13 20,6 °C 82 % 1017,6 hPa 0,0 mm 0,0 km/h (0 Bft) W 275 ° 0 min 0,000 mm 2,5 UV-I 420 W/m² 17,4 °C 20,6 °C 0,0 km/h (0 Bft)
02.08.2018 09:14 20,6 °C 84 % 1017,6 hPa 0,0 mm 0,3 km/h (0 Bft) W 275 ° 0 min 0,000 mm 2,5 UV-I 424 W/m² 17,8 °C 20,6 °C 1,6 km/h (1 Bft)
02.08.2018 09:15 20,6 °C 86 % 1017,6 hPa 0,0 mm 1,1 km/h (1 Bft) W 275 ° 0 min 0,000 mm 2,6 UV-I 431 W/m² 18,2 °C 20,6 °C 3,2 km/h (1 Bft)
02.08.2018 09:16 20,7 °C 83 % 1017,5 hPa 0,0 mm 0,1 km/h (0 Bft) W 275 ° 0 min 0,000 mm 2,6 UV-I 434 W/m² 17,7 °C 20,7 °C 1,6 km/h (1 Bft)
02.08.2018 09:17 20,9 °C 80 % 1017,6 hPa 0,0 mm 1,0 km/h (0 Bft) W 275 ° 0 min 0,000 mm 2,6 UV-I 436 W/m² 17,3 °C 20,9 °C 1,6 km/h (1 Bft)
02.08.2018 09:18 21,1 °C 79 % 1017,5 hPa 0,0 mm 0,3 km/h (0 Bft) W 275 ° 0 min 0,000 mm 2,6 UV-I 439 W/m² 17,3 °C 21,1 °C 1,6 km/h (1 Bft)
02.08.2018 09:19 21,1 °C 81 % 1017,5 hPa 0,0 mm 0,3 km/h (0 Bft) W 275 ° 0 min 0,000 mm 2,7 UV-I 443 W/m² 17,7 °C 21,1 °C 1,6 km/h (1 Bft)
02.08.2018 09:20 21,1 °C 83 % 1017,5 hPa 0,0 mm 1,4 km/h (1 Bft) W-NW 298 ° 0 min 0,000 mm 2,7 UV-I 438 W/m² 18,1 °C 21,1 °C 6,4 km/h (2 Bft)
02.08.2018 09:21 21,0 °C 83 % 1017,6 hPa 0,0 mm 3,8 km/h (1 Bft) W-NW 301 ° 0 min 0,000 mm 2,7 UV-I 439 W/m² 18,0 °C 21,0 °C 6,4 km/h (2 Bft)
02.08.2018 09:22 21,0 °C 82 % 1017,6 hPa 0,0 mm 1,9 km/h (1 Bft) W-NW 302 ° 0 min 0,000 mm 2,7 UV-I 441 W/m² 17,8 °C 21,0 °C 3,2 km/h (1 Bft)
02.08.2018 09:23 21,1 °C 80 % 1017,5 hPa 0,0 mm 0,2 km/h (0 Bft) W-NW 302 ° 0 min 0,000 mm 2,8 UV-I 448 W/m² 17,5 °C 21,1 °C 1,6 km/h (1 Bft)
02.08.2018 09:24 21,4 °C 79 % 1017,6 hPa 0,0 mm 3,2 km/h (1 Bft) W-NW 302 ° 0 min 0,000 mm 2,8 UV-I 448 W/m² 17,6 °C 21,4 °C 4,8 km/h (1 Bft)
02.08.2018 09:25 21,6 °C 81 % 1017,5 hPa 0,0 mm 1,5 km/h (1 Bft) W-NW 302 ° 0 min 0,000 mm 2,8 UV-I 439 W/m² 18,2 °C 21,6 °C 4,8 km/h (1 Bft)
02.08.2018 09:26 21,7 °C 79 % 1017,5 hPa 0,0 mm 2,5 km/h (1 Bft) W-NW 302 ° 0 min 0,000 mm 2,8 UV-I 459 W/m² 17,9 °C 21,7 °C 4,8 km/h (1 Bft)
02.08.2018 09:27 21,8 °C 76 % 1017,5 hPa 0,0 mm 2,0 km/h (1 Bft) W-NW 302 ° 0 min 0,000 mm 2,8 UV-I 452 W/m² 17,4 °C 21,8 °C 4,8 km/h (1 Bft)
02.08.2018 09:28 21,8 °C 77 % 1017,5 hPa 0,0 mm 5,3 km/h (1 Bft) W-SW 246 ° 0 min 0,000 mm 2,9 UV-I 455 W/m² 17,6 °C 21,8 °C 9,7 km/h (2 Bft)
02.08.2018 09:29 21,8 °C 77 % 1017,5 hPa 0,0 mm 3,9 km/h (1 Bft) W-SW 247 ° 0 min 0,000 mm 2,9 UV-I 469 W/m² 17,6 °C 21,8 °C 4,8 km/h (1 Bft)
02.08.2018 09:30 21,9 °C 79 % 1017,5 hPa 0,0 mm 3,8 km/h (1 Bft) W-SW 247 ° 0 min 0,000 mm 2,9 UV-I 475 W/m² 18,1 °C 21,9 °C 4,8 km/h (1 Bft)
02.08.2018 09:31 21,8 °C 75 % 1017,5 hPa 0,0 mm 1,2 km/h (1 Bft) W-SW 247 ° 0 min 0,000 mm 2,9 UV-I 468 W/m² 17,2 °C 21,8 °C 3,2 km/h (1 Bft)
02.08.2018 09:32 21,7 °C 76 % 1017,5 hPa 0,0 mm 1,6 km/h (1 Bft) W-SW 248 ° 0 min 0,000 mm 3,0 UV-I 469 W/m² 17,3 °C 21,7 °C 4,8 km/h (1 Bft)
02.08.2018 09:33 21,7 °C 77 % 1017,5 hPa 0,0 mm 3,0 km/h (1 Bft) W-NW 282 ° 0 min 0,000 mm 3,0 UV-I 471 W/m² 17,5 °C 21,7 °C 4,8 km/h (1 Bft)
02.08.2018 09:34 21,9 °C 79 % 1017,5 hPa 0,0 mm 3,6 km/h (1 Bft) W-NW 296 ° 0 min 0,000 mm 3,0 UV-I 473 W/m² 18,1 °C 21,9 °C 4,8 km/h (1 Bft)
02.08.2018 09:35 21,9 °C 79 % 1017,5 hPa 0,0 mm 1,3 km/h (1 Bft) W-NW 302 ° 0 min 0,000 mm 3,0 UV-I 487 W/m² 18,1 °C 21,9 °C 4,8 km/h (1 Bft)
02.08.2018 09:36 21,9 °C 78 % 1017,5 hPa 0,0 mm 2,8 km/h (1 Bft) W-NW 302 ° 0 min 0,000 mm 3,0 UV-I 482 W/m² 17,9 °C 21,9 °C 3,2 km/h (1 Bft)
02.08.2018 09:37 21,9 °C 78 % 1017,5 hPa 0,0 mm 1,1 km/h (1 Bft) W-NW 302 ° 0 min 0,000 mm 3,1 UV-I 473 W/m² 17,9 °C 21,9 °C 3,2 km/h (1 Bft)
02.08.2018 09:38 21,9 °C 79 % 1017,5 hPa 0,0 mm 2,5 km/h (1 Bft) W-NW 302 ° 0 min 0,000 mm 3,1 UV-I 501 W/m² 18,1 °C 21,9 °C 4,8 km/h (1 Bft)
02.08.2018 09:39 21,9 °C 78 % 1017,6 hPa 0,0 mm 1,3 km/h (1 Bft) W-NW 302 ° 0 min 0,000 mm 3,2 UV-I 510 W/m² 17,9 °C 21,9 °C 3,2 km/h (1 Bft)
02.08.2018 09:40 22,0 °C 76 % 1017,5 hPa 0,0 mm 0,6 km/h (0 Bft) W-NW 302 ° 0 min 0,000 mm 3,2 UV-I 513 W/m² 17,6 °C 22,0 °C 1,6 km/h (1 Bft)
02.08.2018 09:41 22,1 °C 78 % 1017,5 hPa 0,0 mm 4,3 km/h (1 Bft) NW 316 ° 0 min 0,000 mm 3,2 UV-I 527 W/m² 18,1 °C 22,1 °C 6,4 km/h (2 Bft)
02.08.2018 09:42 22,1 °C 79 % 1017,5 hPa 0,0 mm 2,3 km/h (1 Bft) NW 318 ° 0 min 0,000 mm 3,3 UV-I 538 W/m² 18,3 °C 22,1 °C 4,8 km/h (1 Bft)
02.08.2018 09:43 22,1 °C 78 % 1017,6 hPa 0,0 mm 2,5 km/h (1 Bft) NW 318 ° 0 min 0,000 mm 3,4 UV-I 548 W/m² 18,1 °C 22,1 °C 4,8 km/h (1 Bft)
02.08.2018 09:44 22,2 °C 79 % 1017,6 hPa 0,0 mm 4,1 km/h (1 Bft) NW 306 ° 0 min 0,000 mm 3,4 UV-I 545 W/m² 18,4 °C 22,2 °C 6,4 km/h (2 Bft)
02.08.2018 09:45 22,2 °C 77 % 1017,6 hPa 0,0 mm 6,3 km/h (2 Bft) W-SW 246 ° 0 min 0,000 mm 3,3 UV-I 529 W/m² 18,0 °C 22,2 °C 11,3 km/h (2 Bft)
02.08.2018 09:46 22,2 °C 77 % 1017,6 hPa 0,0 mm 3,0 km/h (1 Bft) W-SW 252 ° 0 min 0,000 mm 3,3 UV-I 520 W/m² 18,0 °C 22,2 °C 4,8 km/h (1 Bft)
02.08.2018 09:47 22,3 °C 77 % 1017,6 hPa 0,0 mm 3,1 km/h (1 Bft) W-NW 288 ° 0 min 0,000 mm 3,3 UV-I 510 W/m² 18,1 °C 22,3 °C 4,8 km/h (1 Bft)
02.08.2018 09:48 22,2 °C 76 % 1017,5 hPa 0,0 mm 3,7 km/h (1 Bft) N-NW 343 ° 0 min 0,000 mm 3,3 UV-I 513 W/m² 17,8 °C 22,2 °C 6,4 km/h (2 Bft)
02.08.2018 09:49 22,3 °C 77 % 1017,6 hPa 0,0 mm 4,6 km/h (1 Bft) W-NW 303 ° 0 min 0,000 mm 3,3 UV-I 520 W/m² 18,1 °C 22,3 °C 8,0 km/h (2 Bft)
02.08.2018 09:50 22,2 °C 74 % 1017,6 hPa 0,0 mm 2,0 km/h (1 Bft) W-NW 303 ° 0 min 0,000 mm 3,4 UV-I 527 W/m² 17,3 °C 22,2 °C 3,2 km/h (1 Bft)
02.08.2018 09:51 22,1 °C 72 % 1017,6 hPa 0,0 mm 1,0 km/h (0 Bft) W-NW 303 ° 0 min 0,000 mm 3,4 UV-I 522 W/m² 16,8 °C 22,1 °C 1,6 km/h (1 Bft)
02.08.2018 09:52 22,1 °C 75 % 1017,6 hPa 0,0 mm 4,4 km/h (1 Bft) NW 312 ° 0 min 0,000 mm 3,4 UV-I 527 W/m² 17,5 °C 22,1 °C 8,0 km/h (2 Bft)
02.08.2018 09:53 22,1 °C 75 % 1017,6 hPa 0,0 mm 4,2 km/h (1 Bft) NW 317 ° 0 min 0,000 mm 3,4 UV-I 536 W/m² 17,5 °C 22,1 °C 6,4 km/h (2 Bft)
02.08.2018 09:54 22,1 °C 75 % 1017,6 hPa 0,0 mm 3,6 km/h (1 Bft) NW 316 ° 0 min 0,000 mm 3,4 UV-I 529 W/m² 17,5 °C 22,1 °C 6,4 km/h (2 Bft)
02.08.2018 09:55 22,1 °C 75 % 1017,6 hPa 0,0 mm 4,3 km/h (1 Bft) NW 317 ° 0 min 0,000 mm 3,4 UV-I 519 W/m² 17,5 °C 22,1 °C 8,0 km/h (2 Bft)
02.08.2018 09:56 22,2 °C 77 % 1017,6 hPa 0,0 mm 4,2 km/h (1 Bft) NW 315 ° 0 min 0,000 mm 3,4 UV-I 522 W/m² 18,0 °C 22,2 °C 6,4 km/h (2 Bft)
02.08.2018 09:57 22,3 °C 76 % 1017,7 hPa 0,0 mm 4,4 km/h (1 Bft) NW 323 ° 0 min 0,000 mm 3,4 UV-I 519 W/m² 17,9 °C 22,3 °C 4,8 km/h (1 Bft)
02.08.2018 09:58 22,3 °C 75 % 1017,6 hPa 0,0 mm 6,2 km/h (2 Bft) NW 315 ° 0 min 0,000 mm 3,4 UV-I 517 W/m² 17,6 °C 22,3 °C 9,7 km/h (2 Bft)
02.08.2018 09:59 22,3 °C 75 % 1017,7 hPa 0,0 mm 3,5 km/h (1 Bft) NW 315 ° 0 min 0,000 mm 3,4 UV-I 517 W/m² 17,6 °C 22,3 °C 4,8 km/h (1 Bft)
02.08.2018 10:00 22,3 °C 75 % 1017,6 hPa 0,0 mm 4,0 km/h (1 Bft) W-NW 293 ° 0 min 0,000 mm 3,4 UV-I 497 W/m² 17,6 °C 22,3 °C 8,0 km/h (2 Bft)
02.08.2018 10:01 22,3 °C 74 % 1017,6 hPa 0,0 mm 3,4 km/h (1 Bft) W-NW 292 ° 0 min 0,280 mm 3,3 UV-I 510 W/m² 17,4 °C 22,3 °C 6,4 km/h (2 Bft)
02.08.2018 10:02 22,2 °C 76 % 1017,6 hPa 0,0 mm 3,7 km/h (1 Bft) W-NW 293 ° 0 min 0,000 mm 2,9 UV-I 348 W/m² 17,8 °C 22,2 °C 6,4 km/h (2 Bft)
02.08.2018 10:03 22,2 °C 74 % 1017,6 hPa 0,0 mm 4,8 km/h (1 Bft) N-NW 340 ° 0 min 0,000 mm 2,8 UV-I 308 W/m² 17,3 °C 22,2 °C 6,4 km/h (2 Bft)
02.08.2018 10:04 22,1 °C 74 % 1017,6 hPa 0,0 mm 5,2 km/h (1 Bft) NW 321 ° 0 min 0,000 mm 2,7 UV-I 295 W/m² 17,2 °C 22,1 °C 6,4 km/h (2 Bft)
02.08.2018 10:05 22,1 °C 78 % 1017,7 hPa 0,0 mm 3,6 km/h (1 Bft) W-NW 300 ° 0 min 0,000 mm 2,6 UV-I 274 W/m² 18,1 °C 22,1 °C 8,0 km/h (2 Bft)
02.08.2018 10:06 22,1 °C 76 % 1017,7 hPa 0,0 mm 3,1 km/h (1 Bft) NW 316 ° 0 min 0,000 mm 2,6 UV-I 253 W/m² 17,7 °C 22,1 °C 4,8 km/h (1 Bft)
02.08.2018 10:07 22,0 °C 76 % 1017,7 hPa 0,0 mm 4,8 km/h (1 Bft) N-NW 348 ° 0 min 0,000 mm 2,6 UV-I 274 W/m² 17,6 °C 22,0 °C 8,0 km/h (2 Bft)
02.08.2018 10:08 21,9 °C 76 % 1017,7 hPa 0,0 mm 6,2 km/h (2 Bft) W-NW 293 ° 0 min 0,000 mm 2,8 UV-I 297 W/m² 17,5 °C 21,9 °C 8,0 km/h (2 Bft)
02.08.2018 10:09 21,8 °C 75 % 1017,7 hPa 0,0 mm 4,8 km/h (1 Bft) W-NW 292 ° 0 min 0,000 mm 3,1 UV-I 297 W/m² 17,2 °C 21,8 °C 6,4 km/h (2 Bft)
02.08.2018 10:10 21,9 °C 77 % 1017,7 hPa 0,0 mm 6,0 km/h (2 Bft) NW 306 ° 0 min 0,000 mm 3,1 UV-I 432 W/m² 17,7 °C 21,9 °C 9,7 km/h (2 Bft)
02.08.2018 10:11 21,9 °C 76 % 1017,7 hPa 0,0 mm 5,2 km/h (1 Bft) W-NW 290 ° 0 min 0,000 mm 3,3 UV-I 448 W/m² 17,5 °C 21,9 °C 6,4 km/h (2 Bft)
02.08.2018 10:12 21,9 °C 77 % 1017,7 hPa 0,0 mm 3,4 km/h (1 Bft) W-NW 290 ° 0 min 0,000 mm 3,3 UV-I 499 W/m² 17,7 °C 21,9 °C 4,8 km/h (1 Bft)
02.08.2018 10:13 21,9 °C 76 % 1017,7 hPa 0,0 mm 4,8 km/h (1 Bft) W-NW 297 ° 0 min 0,000 mm 3,1 UV-I 334 W/m² 17,5 °C 21,9 °C 11,3 km/h (2 Bft)
02.08.2018 10:14 21,9 °C 76 % 1017,7 hPa 0,0 mm 4,0 km/h (1 Bft) W-NW 297 ° 0 min 0,000 mm 2,9 UV-I 327 W/m² 17,5 °C 21,9 °C 6,4 km/h (2 Bft)
02.08.2018 10:15 21,9 °C 77 % 1017,7 hPa 0,0 mm 3,5 km/h (1 Bft) W-NW 297 ° 0 min 0,000 mm 3,0 UV-I 338 W/m² 17,7 °C 21,9 °C 6,4 km/h (2 Bft)
02.08.2018 10:16 21,9 °C 77 % 1017,7 hPa 0,0 mm 3,4 km/h (1 Bft) NW 321 ° 0 min 0,000 mm 3,1 UV-I 360 W/m² 17,7 °C 21,9 °C 6,4 km/h (2 Bft)
02.08.2018 10:17 22,0 °C 78 % 1017,7 hPa 0,0 mm 3,5 km/h (1 Bft) NW 307 ° 0 min 0,000 mm 3,6 UV-I 360 W/m² 18,0 °C 22,0 °C 4,8 km/h (1 Bft)
02.08.2018 10:18 22,2 °C 80 % 1017,7 hPa 0,0 mm 4,5 km/h (1 Bft) W 279 ° 0 min 0,000 mm 3,5 UV-I 360 W/m² 18,6 °C 22,2 °C 6,4 km/h (2 Bft)
02.08.2018 10:19 22,2 °C 77 % 1017,7 hPa 0,0 mm 5,5 km/h (1 Bft) NW 313 ° 0 min 0,000 mm 3,3 UV-I 513 W/m² 18,0 °C 22,2 °C 8,0 km/h (2 Bft)
02.08.2018 10:20 22,2 °C 78 % 1017,7 hPa 0,0 mm 5,5 km/h (1 Bft) NW 304 ° 0 min 0,000 mm 3,3 UV-I 513 W/m² 18,2 °C 22,2 °C 11,3 km/h (2 Bft)
02.08.2018 10:21 22,3 °C 77 % 1017,7 hPa 0,0 mm 6,1 km/h (2 Bft) W 272 ° 0 min 0,000 mm 3,2 UV-I 394 W/m² 18,1 °C 22,3 °C 12,9 km/h (3 Bft)
02.08.2018 10:22 22,2 °C 76 % 1017,7 hPa 0,0 mm 5,9 km/h (2 Bft) W-NW 290 ° 0 min 0,000 mm 3,3 UV-I 374 W/m² 17,8 °C 22,2 °C 9,7 km/h (2 Bft)
02.08.2018 10:23 22,1 °C 76 % 1017,7 hPa 0,0 mm 5,9 km/h (2 Bft) NW 308 ° 0 min 0,000 mm 3,5 UV-I 399 W/m² 17,7 °C 22,1 °C 9,7 km/h (2 Bft)
02.08.2018 10:24 22,2 °C 77 % 1017,7 hPa 0,0 mm 3,8 km/h (1 Bft) W-NW 291 ° 0 min 0,000 mm 3,8 UV-I 399 W/m² 18,0 °C 22,2 °C 6,4 km/h (2 Bft)
02.08.2018 10:25 22,2 °C 75 % 1017,7 hPa 0,0 mm 6,6 km/h (2 Bft) W 259 ° 0 min 0,000 mm 3,7 UV-I 543 W/m² 17,5 °C 22,2 °C 11,3 km/h (2 Bft)
02.08.2018 10:26 22,1 °C 75 % 1017,8 hPa 0,0 mm 8,8 km/h (2 Bft) W-NW 301 ° 1 min 0,000 mm 4,0 UV-I 635 W/m² 17,5 °C 22,1 °C 11,3 km/h (2 Bft)
02.08.2018 10:27 22,2 °C 76 % 1017,8 hPa 0,0 mm 3,2 km/h (1 Bft) NW 314 ° 1 min 0,000 mm 4,1 UV-I 635 W/m² 17,8 °C 22,2 °C 4,8 km/h (1 Bft)
02.08.2018 10:28 22,3 °C 75 % 1017,7 hPa 0,0 mm 4,3 km/h (1 Bft) W-SW 251 ° 1 min 0,000 mm 4,0 UV-I 721 W/m² 17,6 °C 22,3 °C 6,4 km/h (2 Bft)
02.08.2018 10:29 22,3 °C 76 % 1017,7 hPa 0,0 mm 3,7 km/h (1 Bft) W-NW 293 ° 1 min 0,000 mm 3,4 UV-I 721 W/m² 17,9 °C 22,3 °C 6,4 km/h (2 Bft)
02.08.2018 10:30 22,3 °C 74 % 1017,8 hPa 0,0 mm 4,7 km/h (1 Bft) W-NW 282 ° 0 min 0,000 mm 3,3 UV-I 424 W/m² 17,4 °C 22,3 °C 9,7 km/h (2 Bft)
02.08.2018 10:31 22,3 °C 74 % 1017,8 hPa 0,0 mm 3,8 km/h (1 Bft) NW 311 ° 0 min 0,000 mm 3,4 UV-I 436 W/m² 17,4 °C 22,3 °C 6,4 km/h (2 Bft)
02.08.2018 10:32 22,2 °C 75 % 1017,8 hPa 0,0 mm 1,1 km/h (1 Bft) W 273 ° 0 min 0,000 mm 3,4 UV-I 434 W/m² 17,5 °C 22,2 °C 4,8 km/h (1 Bft)
02.08.2018 10:33 22,2 °C 75 % 1017,8 hPa 0,0 mm 4,2 km/h (1 Bft) W-NW 303 ° 0 min 0,000 mm 3,3 UV-I 417 W/m² 17,5 °C 22,2 °C 6,4 km/h (2 Bft)
02.08.2018 10:34 22,2 °C 77 % 1017,8 hPa 0,0 mm 6,0 km/h (2 Bft) W-NW 288 ° 0 min 0,000 mm 3,3 UV-I 406 W/m² 18,0 °C 22,2 °C 9,7 km/h (2 Bft)
02.08.2018 10:35 22,2 °C 77 % 1017,8 hPa 0,0 mm 5,2 km/h (1 Bft) W 270 ° 0 min 0,000 mm 3,2 UV-I 387 W/m² 18,0 °C 22,2 °C 9,7 km/h (2 Bft)
02.08.2018 10:36 22,2 °C 76 % 1017,8 hPa 0,0 mm 6,2 km/h (2 Bft) W-SW 255 ° 0 min 0,000 mm 3,0 UV-I 343 W/m² 17,8 °C 22,2 °C 9,7 km/h (2 Bft)
02.08.2018 10:37 22,2 °C 77 % 1017,9 hPa 0,0 mm 7,0 km/h (2 Bft) W 263 ° 0 min 0,000 mm 2,9 UV-I 336 W/m² 18,0 °C 22,2 °C 11,3 km/h (2 Bft)
02.08.2018 10:38 22,2 °C 78 % 1017,9 hPa 0,0 mm 2,9 km/h (1 Bft) W 268 ° 0 min 0,000 mm 2,9 UV-I 332 W/m² 18,2 °C 22,2 °C 6,4 km/h (2 Bft)
02.08.2018 10:39 22,1 °C 77 % 1017,8 hPa 0,0 mm 1,8 km/h (1 Bft) W 268 ° 0 min 0,000 mm 2,8 UV-I 332 W/m² 17,9 °C 22,1 °C 3,2 km/h (1 Bft)
02.08.2018 10:40 22,1 °C 77 % 1017,8 hPa 0,0 mm 6,4 km/h (2 Bft) NW 306 ° 0 min 0,000 mm 2,8 UV-I 325 W/m² 17,9 °C 22,1 °C 12,9 km/h (3 Bft)
02.08.2018 10:41 22,1 °C 77 % 1017,8 hPa 0,0 mm 7,7 km/h (2 Bft) W-NW 287 ° 0 min 0,000 mm 2,7 UV-I 316 W/m² 17,9 °C 22,1 °C 11,3 km/h (2 Bft)
02.08.2018 10:42 22,1 °C 77 % 1017,8 hPa 0,0 mm 3,5 km/h (1 Bft) N-NW 329 ° 0 min 0,000 mm 2,7 UV-I 301 W/m² 17,9 °C 22,1 °C 6,4 km/h (2 Bft)
02.08.2018 10:43 22,0 °C 76 % 1017,8 hPa 0,0 mm 5,6 km/h (1 Bft) W 271 ° 0 min 0,000 mm 2,7 UV-I 309 W/m² 17,6 °C 22,0 °C 8,0 km/h (2 Bft)
02.08.2018 10:44 22,0 °C 77 % 1017,9 hPa 0,0 mm 4,8 km/h (1 Bft) W-NW 300 ° 0 min 0,000 mm 2,8 UV-I 329 W/m² 17,8 °C 22,0 °C 8,0 km/h (2 Bft)
02.08.2018 10:45 22,0 °C 76 % 1017,8 hPa 0,0 mm 1,7 km/h (1 Bft) W-NW 300 ° 0 min 0,000 mm 2,8 UV-I 360 W/m² 17,6 °C 22,0 °C 4,8 km/h (1 Bft)
02.08.2018 10:46 22,0 °C 78 % 1017,8 hPa 0,0 mm 2,8 km/h (1 Bft) W-NW 298 ° 0 min 0,000 mm 2,8 UV-I 352 W/m² 18,0 °C 22,0 °C 4,8 km/h (1 Bft)
02.08.2018 10:47 22,0 °C 77 % 1017,8 hPa 0,0 mm 4,7 km/h (1 Bft) W-NW 292 ° 0 min 0,000 mm 3,0 UV-I 415 W/m² 17,8 °C 22,0 °C 8,0 km/h (2 Bft)
02.08.2018 10:48 22,1 °C 77 % 1017,9 hPa 0,0 mm 6,2 km/h (2 Bft) W-NW 298 ° 0 min 0,000 mm 3,0 UV-I 380 W/m² 17,9 °C 22,1 °C 8,0 km/h (2 Bft)
02.08.2018 10:49 22,1 °C 77 % 1017,8 hPa 0,0 mm 4,2 km/h (1 Bft) NW 313 ° 0 min 0,000 mm 4,0 UV-I 380 W/m² 17,9 °C 22,1 °C 6,4 km/h (2 Bft)
02.08.2018 10:50 22,2 °C 78 % 1017,8 hPa 0,0 mm 2,3 km/h (1 Bft) NW 313 ° 1 min 0,000 mm 3,9 UV-I 754 W/m² 18,2 °C 22,2 °C 4,8 km/h (1 Bft)
02.08.2018 10:51 22,2 °C 79 % 1017,8 hPa 0,0 mm 4,2 km/h (1 Bft) NW 323 ° 1 min 0,000 mm 3,4 UV-I 754 W/m² 18,4 °C 22,2 °C 9,7 km/h (2 Bft)
02.08.2018 10:52 22,4 °C 77 % 1017,8 hPa 0,0 mm 4,4 km/h (1 Bft) W-NW 295 ° 0 min 0,000 mm 4,2 UV-I 580 W/m² 18,2 °C 22,4 °C 6,4 km/h (2 Bft)
02.08.2018 10:53 22,4 °C 78 % 1017,8 hPa 0,0 mm 9,5 km/h (2 Bft) W-NW 286 ° 1 min 0,000 mm 4,0 UV-I 622 W/m² 18,4 °C 22,4 °C 12,9 km/h (3 Bft)
02.08.2018 10:54 22,5 °C 76 % 1017,8 hPa 0,0 mm 5,0 km/h (1 Bft) NW 311 ° 0 min 0,000 mm 3,4 UV-I 362 W/m² 18,0 °C 22,5 °C 9,7 km/h (2 Bft)
02.08.2018 10:55 22,4 °C 75 % 1017,8 hPa 0,0 mm 5,6 km/h (1 Bft) W-NW 296 ° 0 min 0,000 mm 3,9 UV-I 362 W/m² 17,7 °C 22,4 °C 9,7 km/h (2 Bft)
02.08.2018 10:56 22,4 °C 76 % 1017,8 hPa 0,0 mm 6,8 km/h (2 Bft) W-NW 288 ° 0 min 0,000 mm 3,6 UV-I 399 W/m² 18,0 °C 22,4 °C 11,3 km/h (2 Bft)
02.08.2018 10:57 22,4 °C 76 % 1017,8 hPa 0,0 mm 3,7 km/h (1 Bft) NW 317 ° 0 min 0,000 mm 4,6 UV-I 399 W/m² 18,0 °C 22,4 °C 4,8 km/h (1 Bft)
02.08.2018 10:58 22,4 °C 76 % 1017,8 hPa 0,0 mm 3,9 km/h (1 Bft) NW 310 ° 0 min 0,000 mm 4,5 UV-I 571 W/m² 18,0 °C 22,4 °C 6,4 km/h (2 Bft)
02.08.2018 10:59 22,6 °C 77 % 1017,7 hPa 0,0 mm 6,0 km/h (2 Bft) W-NW 298 ° 0 min 0,000 mm 4,8 UV-I 571 W/m² 18,4 °C 22,6 °C 8,0 km/h (2 Bft)
02.08.2018 11:00 22,7 °C 78 % 1017,7 hPa 0,0 mm 5,9 km/h (2 Bft) W-NW 294 ° 0 min 0,000 mm 3,8 UV-I 381 W/m² 18,7 °C 22,7 °C 11,3 km/h (2 Bft)
02.08.2018 11:01 22,8 °C 76 % 1017,8 hPa 0,0 mm 8,4 km/h (2 Bft) W-NW 298 ° 0 min 0,279 mm 3,9 UV-I 381 W/m² 18,3 °C 22,8 °C 11,3 km/h (2 Bft)
02.08.2018 11:02 22,8 °C 75 % 1017,8 hPa 0,0 mm 5,3 km/h (1 Bft) W-SW 252 ° 0 min 0,000 mm 4,3 UV-I 381 W/m² 18,1 °C 22,8 °C 11,3 km/h (2 Bft)
02.08.2018 11:03 22,8 °C 77 % 1017,8 hPa 0,0 mm 5,8 km/h (2 Bft) W-NW 284 ° 0 min 0,000 mm 4,3 UV-I 381 W/m² 18,5 °C 22,8 °C 9,7 km/h (2 Bft)
02.08.2018 11:04 22,9 °C 76 % 1017,8 hPa 0,0 mm 5,3 km/h (1 Bft) NW 309 ° 0 min 0,000 mm 5,1 UV-I 381 W/m² 18,4 °C 22,9 °C 9,7 km/h (2 Bft)
02.08.2018 11:05 22,9 °C 74 % 1017,8 hPa 0,0 mm 3,8 km/h (1 Bft) NW 305 ° 1 min 0,000 mm 4,9 UV-I 826 W/m² 18,0 °C 22,9 °C 6,4 km/h (2 Bft)
02.08.2018 11:06 22,9 °C 75 % 1017,8 hPa 0,0 mm 6,5 km/h (2 Bft) NW 323 ° 1 min 0,000 mm 4,7 UV-I 826 W/m² 18,2 °C 22,9 °C 11,3 km/h (2 Bft)
02.08.2018 11:07 22,9 °C 77 % 1017,8 hPa 0,0 mm 6,6 km/h (2 Bft) NW 323 ° 1 min 0,000 mm 4,7 UV-I 826 W/m² 18,6 °C 22,9 °C 12,9 km/h (3 Bft)
02.08.2018 11:08 22,9 °C 76 % 1017,7 hPa 0,0 mm 7,2 km/h (2 Bft) W-NW 292 ° 0 min 0,000 mm 3,5 UV-I 366 W/m² 18,4 °C 22,9 °C 14,5 km/h (3 Bft)
02.08.2018 11:09 22,8 °C 75 % 1017,7 hPa 0,0 mm 10,3 km/h (2 Bft) W-NW 301 ° 0 min 0,000 mm 3,3 UV-I 322 W/m² 18,1 °C 22,8 °C 16,1 km/h (3 Bft)
02.08.2018 11:10 22,7 °C 76 % 1017,7 hPa 0,0 mm 5,0 km/h (1 Bft) W 272 ° 0 min 0,000 mm 3,1 UV-I 295 W/m² 18,2 °C 22,7 °C 6,4 km/h (2 Bft)
02.08.2018 11:11 22,6 °C 75 % 1017,7 hPa 0,0 mm 6,8 km/h (2 Bft) W 272 ° 0 min 0,000 mm 3,0 UV-I 278 W/m² 17,9 °C 22,6 °C 11,3 km/h (2 Bft)
02.08.2018 11:12 22,4 °C 76 % 1017,7 hPa 0,0 mm 3,6 km/h (1 Bft) NW 304 ° 0 min 0,000 mm 3,1 UV-I 292 W/m² 18,0 °C 22,4 °C 6,4 km/h (2 Bft)
02.08.2018 11:13 22,4 °C 76 % 1017,7 hPa 0,0 mm 6,1 km/h (2 Bft) W 267 ° 0 min 0,000 mm 3,3 UV-I 350 W/m² 18,0 °C 22,4 °C 9,7 km/h (2 Bft)
02.08.2018 11:14 22,3 °C 77 % 1017,6 hPa 0,0 mm 4,2 km/h (1 Bft) W 271 ° 0 min 0,000 mm 4,2 UV-I 350 W/m² 18,1 °C 22,3 °C 9,7 km/h (2 Bft)
02.08.2018 11:15 22,3 °C 76 % 1017,6 hPa 0,0 mm 7,1 km/h (2 Bft) W 265 ° 0 min 0,000 mm 4,7 UV-I 350 W/m² 17,9 °C 22,3 °C 12,9 km/h (3 Bft)
02.08.2018 11:16 22,4 °C 79 % 1017,6 hPa 0,0 mm 7,6 km/h (2 Bft) W-NW 294 ° 1 min 0,000 mm 3,6 UV-I 722 W/m² 18,6 °C 22,4 °C 11,3 km/h (2 Bft)
02.08.2018 11:17 22,5 °C 78 % 1017,6 hPa 0,0 mm 6,3 km/h (2 Bft) W 276 ° 1 min 0,000 mm 4,7 UV-I 756 W/m² 18,5 °C 22,5 °C 12,9 km/h (3 Bft)
02.08.2018 11:18 22,6 °C 77 % 1017,6 hPa 0,0 mm 6,1 km/h (2 Bft) W-NW 303 ° 1 min 0,000 mm 5,4 UV-I 756 W/m² 18,4 °C 22,6 °C 12,9 km/h (3 Bft)
02.08.2018 11:19 22,7 °C 78 % 1017,6 hPa 0,0 mm 4,2 km/h (1 Bft) W 267 ° 1 min 0,000 mm 5,5 UV-I 823 W/m² 18,7 °C 22,7 °C 6,4 km/h (2 Bft)
02.08.2018 11:20 22,8 °C 76 % 1017,6 hPa 0,2 mm 4,8 km/h (1 Bft) NW 311 ° 1 min 0,000 mm 5,3 UV-I 789 W/m² 18,3 °C 22,8 °C 9,7 km/h (2 Bft)
02.08.2018 11:21 22,9 °C 77 % 1017,6 hPa 0,0 mm 7,8 km/h (2 Bft) W-NW 300 ° 1 min 0,000 mm 5,3 UV-I 789 W/m² 18,6 °C 22,9 °C 11,3 km/h (2 Bft)
02.08.2018 11:22 23,0 °C 76 % 1017,6 hPa 0,0 mm 6,5 km/h (2 Bft) W-NW 301 ° 1 min 0,000 mm 5,4 UV-I 782 W/m² 18,5 °C 23,0 °C 12,9 km/h (3 Bft)
02.08.2018 11:23 23,1 °C 77 % 1017,6 hPa 0,0 mm 5,3 km/h (1 Bft) W-SW 255 ° 1 min 0,000 mm 5,3 UV-I 719 W/m² 18,8 °C 23,1 °C 8,0 km/h (2 Bft)
02.08.2018 11:24 23,0 °C 76 % 1017,5 hPa 0,0 mm 5,8 km/h (2 Bft) NW 304 ° 1 min 0,000 mm 5,3 UV-I 740 W/m² 18,5 °C 23,0 °C 6,4 km/h (2 Bft)
02.08.2018 11:25 22,9 °C 75 % 1017,6 hPa 0,0 mm 2,4 km/h (1 Bft) W-NW 300 ° 1 min 0,000 mm 5,4 UV-I 756 W/m² 18,2 °C 22,9 °C 4,8 km/h (1 Bft)
02.08.2018 11:26 23,1 °C 76 % 1017,5 hPa 0,0 mm 7,0 km/h (2 Bft) W-NW 297 ° 1 min 0,000 mm 5,4 UV-I 766 W/m² 18,6 °C 23,1 °C 14,5 km/h (3 Bft)
02.08.2018 11:27 23,1 °C 75 % 1017,5 hPa 0,0 mm 8,9 km/h (2 Bft) NW 320 ° 1 min 0,000 mm 5,3 UV-I 737 W/m² 18,4 °C 23,1 °C 14,5 km/h (3 Bft)
02.08.2018 11:28 23,1 °C 76 % 1017,5 hPa 0,0 mm 6,4 km/h (2 Bft) W-NW 291 ° 1 min 0,000 mm 4,8 UV-I 737 W/m² 18,6 °C 23,1 °C 11,3 km/h (2 Bft)
02.08.2018 11:29 23,2 °C 75 % 1017,5 hPa 0,0 mm 9,8 km/h (2 Bft) W-NW 292 ° 1 min 0,000 mm 5,7 UV-I 816 W/m² 18,5 °C 23,2 °C 12,9 km/h (3 Bft)
02.08.2018 11:30 23,2 °C 75 % 1017,5 hPa 0,0 mm 7,9 km/h (2 Bft) NW 304 ° 1 min 0,000 mm 5,6 UV-I 812 W/m² 18,5 °C 23,2 °C 12,9 km/h (3 Bft)
02.08.2018 11:31 23,2 °C 75 % 1017,5 hPa 0,0 mm 6,7 km/h (2 Bft) W-NW 290 ° 1 min 0,000 mm 5,4 UV-I 780 W/m² 18,5 °C 23,2 °C 12,9 km/h (3 Bft)
02.08.2018 11:32 23,2 °C 73 % 1017,5 hPa 0,0 mm 8,4 km/h (2 Bft) W 265 ° 1 min 0,000 mm 5,2 UV-I 786 W/m² 18,1 °C 23,2 °C 11,3 km/h (2 Bft)
02.08.2018 11:33 23,0 °C 75 % 1017,5 hPa 0,0 mm 7,5 km/h (2 Bft) NW 306 ° 1 min 0,000 mm 4,1 UV-I 786 W/m² 18,3 °C 23,0 °C 11,3 km/h (2 Bft)
02.08.2018 11:34 22,9 °C 73 % 1017,5 hPa 0,0 mm 4,5 km/h (1 Bft) W-NW 302 ° 0 min 0,000 mm 4,0 UV-I 388 W/m² 17,8 °C 22,9 °C 6,4 km/h (2 Bft)
02.08.2018 11:35 22,8 °C 74 % 1017,5 hPa 0,0 mm 3,9 km/h (1 Bft) NW 323 ° 0 min 0,000 mm 3,9 UV-I 364 W/m² 17,9 °C 22,8 °C 4,8 km/h (1 Bft)
02.08.2018 11:36 22,8 °C 75 % 1017,6 hPa 0,0 mm 5,0 km/h (1 Bft) NW 314 ° 0 min 0,000 mm 3,6 UV-I 339 W/m² 18,1 °C 22,8 °C 6,4 km/h (2 Bft)
02.08.2018 11:37 22,8 °C 75 % 1017,5 hPa 0,0 mm 3,2 km/h (1 Bft) NW 321 ° 0 min 0,000 mm 3,6 UV-I 332 W/m² 18,1 °C 22,8 °C 8,0 km/h (2 Bft)
02.08.2018 11:38 22,9 °C 76 % 1017,5 hPa 0,0 mm 6,6 km/h (2 Bft) W-NW 286 ° 0 min 0,000 mm 4,4 UV-I 332 W/m² 18,4 °C 22,9 °C 11,3 km/h (2 Bft)
02.08.2018 11:39 22,8 °C 74 % 1017,6 hPa 0,0 mm 4,2 km/h (1 Bft) W 279 ° 0 min 0,000 mm 5,1 UV-I 332 W/m² 17,9 °C 22,8 °C 6,4 km/h (2 Bft)
02.08.2018 11:40 22,8 °C 74 % 1017,6 hPa 0,0 mm 4,5 km/h (1 Bft) W 259 ° 1 min 0,000 mm 5,2 UV-I 737 W/m² 17,9 °C 22,8 °C 9,7 km/h (2 Bft)
02.08.2018 11:41 22,9 °C 78 % 1017,5 hPa 0,0 mm 4,2 km/h (1 Bft) W 261 ° 1 min 0,000 mm 5,2 UV-I 710 W/m² 18,9 °C 22,9 °C 11,3 km/h (2 Bft)
02.08.2018 11:42 23,0 °C 77 % 1017,4 hPa 0,0 mm 6,7 km/h (2 Bft) W-SW 255 ° 1 min 0,000 mm 5,0 UV-I 689 W/m² 18,7 °C 23,0 °C 12,9 km/h (3 Bft)
02.08.2018 11:43 23,1 °C 76 % 1017,5 hPa 0,0 mm 5,2 km/h (1 Bft) NW 304 ° 1 min 0,000 mm 4,9 UV-I 652 W/m² 18,6 °C 23,1 °C 9,7 km/h (2 Bft)
02.08.2018 11:44 23,2 °C 75 % 1017,5 hPa 0,0 mm 2,1 km/h (1 Bft) NW 304 ° 1 min 0,000 mm 5,1 UV-I 717 W/m² 18,5 °C 23,2 °C 4,8 km/h (1 Bft)
02.08.2018 11:45 23,3 °C 75 % 1017,5 hPa 0,0 mm 0,9 km/h (0 Bft) W-NW 285 ° 1 min 0,000 mm 5,0 UV-I 654 W/m² 18,6 °C 23,3 °C 4,8 km/h (1 Bft)
02.08.2018 11:46 23,3 °C 75 % 1017,5 hPa 0,0 mm 6,8 km/h (2 Bft) W-NW 288 ° 1 min 0,000 mm 5,2 UV-I 722 W/m² 18,6 °C 23,3 °C 11,3 km/h (2 Bft)
02.08.2018 11:47 23,4 °C 75 % 1017,4 hPa 0,0 mm 5,9 km/h (2 Bft) W-NW 298 ° 1 min 0,000 mm 5,4 UV-I 745 W/m² 18,7 °C 23,4 °C 11,3 km/h (2 Bft)
02.08.2018 11:48 23,5 °C 75 % 1017,4 hPa 0,0 mm 5,5 km/h (1 Bft) W 266 ° 1 min 0,000 mm 5,6 UV-I 747 W/m² 18,8 °C 23,5 °C 11,3 km/h (2 Bft)
02.08.2018 11:49 23,6 °C 78 % 1017,4 hPa 0,0 mm 6,7 km/h (2 Bft) NW 321 ° 1 min 0,000 mm 5,6 UV-I 752 W/m² 19,5 °C 23,6 °C 11,3 km/h (2 Bft)
02.08.2018 11:50 23,6 °C 75 % 1017,4 hPa 0,0 mm 4,7 km/h (1 Bft) W 281 ° 1 min 0,000 mm 5,5 UV-I 742 W/m² 18,9 °C 23,6 °C 9,7 km/h (2 Bft)
02.08.2018 11:51 23,6 °C 74 % 1017,4 hPa 0,0 mm 5,4 km/h (1 Bft) NW 311 ° 1 min 0,000 mm 5,5 UV-I 717 W/m² 18,7 °C 23,6 °C 9,7 km/h (2 Bft)
02.08.2018 11:52 23,6 °C 73 % 1017,4 hPa 0,0 mm 2,1 km/h (1 Bft) NW 311 ° 1 min 0,000 mm 5,4 UV-I 701 W/m² 18,5 °C 23,6 °C 4,8 km/h (1 Bft)
02.08.2018 11:53 23,6 °C 73 % 1017,4 hPa 0,0 mm 5,8 km/h (2 Bft) W-NW 298 ° 0 min 0,000 mm 4,9 UV-I 506 W/m² 18,5 °C 23,6 °C 12,9 km/h (3 Bft)
02.08.2018 11:54 23,6 °C 76 % 1017,4 hPa 0,0 mm 3,8 km/h (1 Bft) NW 311 ° 0 min 0,000 mm 5,2 UV-I 506 W/m² 19,1 °C 23,6 °C 6,4 km/h (2 Bft)
02.08.2018 11:55 23,6 °C 75 % 1017,4 hPa 0,0 mm 6,8 km/h (2 Bft) W-NW 288 ° 1 min 0,000 mm 5,6 UV-I 654 W/m² 18,9 °C 23,6 °C 12,9 km/h (3 Bft)
02.08.2018 11:56 23,6 °C 74 % 1017,4 hPa 0,0 mm 7,6 km/h (2 Bft) W 280 ° 1 min 0,000 mm 5,4 UV-I 659 W/m² 18,7 °C 23,6 °C 11,3 km/h (2 Bft)
02.08.2018 11:57 23,5 °C 75 % 1017,4 hPa 0,0 mm 6,4 km/h (2 Bft) W-NW 285 ° 1 min 0,000 mm 5,6 UV-I 714 W/m² 18,8 °C 23,5 °C 11,3 km/h (2 Bft)
02.08.2018 11:58 23,4 °C 73 % 1017,4 hPa 0,0 mm 8,6 km/h (2 Bft) W 263 ° 1 min 0,000 mm 5,2 UV-I 631 W/m² 18,3 °C 23,4 °C 14,5 km/h (3 Bft)
02.08.2018 11:59 23,3 °C 73 % 1017,4 hPa 0,0 mm 5,1 km/h (1 Bft) W 265 ° 0 min 0,000 mm 4,9 UV-I 522 W/m² 18,2 °C 23,3 °C 9,7 km/h (2 Bft)
02.08.2018 12:00 23,3 °C 75 % 1017,4 hPa 0,0 mm 4,4 km/h (1 Bft) W 273 ° 0 min 0,000 mm 5,3 UV-I 522 W/m² 18,6 °C 23,3 °C 9,7 km/h (2 Bft)
02.08.2018 12:01 23,4 °C 75 % 1017,4 hPa 0,0 mm 1,6 km/h (1 Bft) NW 314 ° 0 min 0,407 mm 4,9 UV-I 577 W/m² 18,7 °C 23,4 °C 3,2 km/h (1 Bft)
02.08.2018 12:02 23,4 °C 75 % 1017,4 hPa 0,0 mm 2,7 km/h (1 Bft) NW 307 ° 1 min 0,000 mm 4,9 UV-I 652 W/m² 18,7 °C 23,4 °C 6,4 km/h (2 Bft)
02.08.2018 12:03 23,5 °C 75 % 1017,4 hPa 0,0 mm 6,2 km/h (2 Bft) NW 315 ° 1 min 0,000 mm 4,2 UV-I 652 W/m² 18,8 °C 23,5 °C 9,7 km/h (2 Bft)
02.08.2018 12:04 23,6 °C 76 % 1017,5 hPa 0,0 mm 9,4 km/h (2 Bft) W-NW 287 ° 0 min 0,000 mm 4,0 UV-I 381 W/m² 19,1 °C 23,6 °C 14,5 km/h (3 Bft)
02.08.2018 12:05 23,5 °C 75 % 1017,5 hPa 0,0 mm 7,1 km/h (2 Bft) W-NW 289 ° 0 min 0,000 mm 5,5 UV-I 381 W/m² 18,8 °C 23,5 °C 11,3 km/h (2 Bft)
02.08.2018 12:06 23,4 °C 73 % 1017,5 hPa 0,0 mm 8,5 km/h (2 Bft) W-SW 258 ° 1 min 0,000 mm 5,4 UV-I 719 W/m² 18,3 °C 23,4 °C 11,3 km/h (2 Bft)
02.08.2018 12:07 23,3 °C 72 % 1017,5 hPa 0,0 mm 5,6 km/h (1 Bft) W-NW 288 ° 1 min 0,000 mm 3,9 UV-I 719 W/m² 18,0 °C 23,3 °C 9,7 km/h (2 Bft)
02.08.2018 12:08 23,2 °C 73 % 1017,4 hPa 0,0 mm 3,6 km/h (1 Bft) W-NW 288 ° 0 min 0,000 mm 3,7 UV-I 355 W/m² 18,1 °C 23,2 °C 6,4 km/h (2 Bft)
02.08.2018 12:09 23,2 °C 73 % 1017,5 hPa 0,0 mm 5,3 km/h (1 Bft) W 277 ° 0 min 0,000 mm 3,6 UV-I 353 W/m² 18,1 °C 23,2 °C 9,7 km/h (2 Bft)
02.08.2018 12:10 23,2 °C 75 % 1017,4 hPa 0,0 mm 6,8 km/h (2 Bft) W-NW 299 ° 0 min 0,000 mm 3,4 UV-I 345 W/m² 18,5 °C 23,2 °C 11,3 km/h (2 Bft)
02.08.2018 12:11 23,1 °C 74 % 1017,4 hPa 0,0 mm 7,4 km/h (2 Bft) W-SW 253 ° 0 min 0,000 mm 3,5 UV-I 320 W/m² 18,2 °C 23,1 °C 14,5 km/h (3 Bft)
02.08.2018 12:12 23,0 °C 74 % 1017,4 hPa 0,0 mm 4,5 km/h (1 Bft) W-NW 290 ° 0 min 0,000 mm 3,6 UV-I 338 W/m² 18,1 °C 23,0 °C 9,7 km/h (2 Bft)
02.08.2018 12:13 22,9 °C 74 % 1017,4 hPa 0,0 mm 4,7 km/h (1 Bft) W-NW 300 ° 0 min 0,000 mm 4,0 UV-I 366 W/m² 18,0 °C 22,9 °C 6,4 km/h (2 Bft)
02.08.2018 12:14 22,9 °C 75 % 1017,4 hPa 0,0 mm 6,2 km/h (2 Bft) W-SW 255 ° 0 min 0,000 mm 4,3 UV-I 392 W/m² 18,2 °C 22,9 °C 12,9 km/h (3 Bft)
02.08.2018 12:15 22,9 °C 74 % 1017,4 hPa 0,0 mm 10,0 km/h (2 Bft) NW 313 ° 0 min 0,000 mm 5,8 UV-I 392 W/m² 18,0 °C 22,9 °C 14,5 km/h (3 Bft)
02.08.2018 12:16 22,9 °C 75 % 1017,4 hPa 0,0 mm 6,2 km/h (2 Bft) NW 311 ° 0 min 0,000 mm 5,9 UV-I 392 W/m² 18,2 °C 22,9 °C 11,3 km/h (2 Bft)
02.08.2018 12:17 23,2 °C 77 % 1017,4 hPa 0,0 mm 6,0 km/h (2 Bft) W-NW 292 ° 0 min 0,000 mm 5,2 UV-I 392 W/m² 18,9 °C 23,2 °C 8,0 km/h (2 Bft)
02.08.2018 12:18 23,3 °C 74 % 1017,4 hPa 0,0 mm 6,2 km/h (2 Bft) NW 304 ° 0 min 0,000 mm 5,0 UV-I 392 W/m² 18,4 °C 23,3 °C 9,7 km/h (2 Bft)
02.08.2018 12:19 23,3 °C 73 % 1017,4 hPa 0,0 mm 3,7 km/h (1 Bft) NW 324 ° 0 min 0,000 mm 4,7 UV-I 392 W/m² 18,2 °C 23,3 °C 6,4 km/h (2 Bft)
02.08.2018 12:20 23,4 °C 76 % 1017,4 hPa 0,0 mm 5,9 km/h (2 Bft) W-NW 298 ° 0 min 0,000 mm 4,4 UV-I 399 W/m² 18,9 °C 23,4 °C 11,3 km/h (2 Bft)
02.08.2018 12:21 23,4 °C 73 % 1017,4 hPa 0,0 mm 5,0 km/h (1 Bft) W-NW 297 ° 0 min 0,000 mm 4,5 UV-I 434 W/m² 18,3 °C 23,4 °C 8,0 km/h (2 Bft)
02.08.2018 12:22 23,4 °C 74 % 1017,4 hPa 0,0 mm 4,2 km/h (1 Bft) NW 319 ° 0 min 0,000 mm 5,7 UV-I 434 W/m² 18,5 °C 23,4 °C 6,4 km/h (2 Bft)
02.08.2018 12:23 23,6 °C 74 % 1017,4 hPa 0,0 mm 3,8 km/h (1 Bft) NW 321 ° 1 min 0,000 mm 6,1 UV-I 840 W/m² 18,7 °C 23,6 °C 9,7 km/h (2 Bft)
02.08.2018 12:24 23,7 °C 75 % 1017,4 hPa 0,0 mm 5,8 km/h (2 Bft) W-NW 301 ° 1 min 0,000 mm 6,1 UV-I 846 W/m² 19,0 °C 23,7 °C 9,7 km/h (2 Bft)
02.08.2018 12:25 23,8 °C 73 % 1017,4 hPa 0,0 mm 5,3 km/h (1 Bft) NW 316 ° 1 min 0,000 mm 6,1 UV-I 849 W/m² 18,7 °C 23,8 °C 6,4 km/h (2 Bft)
02.08.2018 12:26 24,0 °C 73 % 1017,4 hPa 0,0 mm 3,9 km/h (1 Bft) NW 319 ° 1 min 0,000 mm 6,1 UV-I 854 W/m² 18,9 °C 24,0 °C 6,4 km/h (2 Bft)
02.08.2018 12:27 24,2 °C 75 % 1017,4 hPa 0,0 mm 10,4 km/h (2 Bft) W-NW 292 ° 1 min 0,000 mm 6,0 UV-I 833 W/m² 19,5 °C 24,2 °C 17,7 km/h (3 Bft)
02.08.2018 12:28 24,1 °C 70 % 1017,4 hPa 0,0 mm 7,7 km/h (2 Bft) W 265 ° 1 min 0,000 mm 4,6 UV-I 608 W/m² 18,3 °C 24,1 °C 11,3 km/h (2 Bft)
02.08.2018 12:29 24,1 °C 73 % 1017,4 hPa 0,0 mm 7,6 km/h (2 Bft) W-NW 287 ° 1 min 0,000 mm 4,5 UV-I 608 W/m² 18,9 °C 24,1 °C 11,3 km/h (2 Bft)
02.08.2018 12:30 24,0 °C 74 % 1017,4 hPa 0,0 mm 4,6 km/h (1 Bft) W 280 ° 1 min 0,000 mm 5,9 UV-I 608 W/m² 19,1 °C 24,0 °C 9,7 km/h (2 Bft)
02.08.2018 12:31 23,9 °C 73 % 1017,4 hPa 0,0 mm 5,4 km/h (1 Bft) W 267 ° 1 min 0,000 mm 5,1 UV-I 608 W/m² 18,8 °C 23,9 °C 14,5 km/h (3 Bft)
02.08.2018 12:32 23,8 °C 72 % 1017,5 hPa 0,0 mm 8,6 km/h (2 Bft) W-NW 289 ° 1 min 0,000 mm 5,5 UV-I 608 W/m² 18,4 °C 23,8 °C 14,5 km/h (3 Bft)
02.08.2018 12:33 23,8 °C 73 % 1017,5 hPa 0,0 mm 4,8 km/h (1 Bft) W-NW 292 ° 1 min 0,000 mm 4,3 UV-I 608 W/m² 18,7 °C 23,8 °C 6,4 km/h (2 Bft)
02.08.2018 12:34 23,7 °C 72 % 1017,4 hPa 0,0 mm 2,5 km/h (1 Bft) NW 306 ° 0 min 0,000 mm 3,8 UV-I 381 W/m² 18,3 °C 23,7 °C 6,4 km/h (2 Bft)
02.08.2018 12:35 23,6 °C 74 % 1017,5 hPa 0,0 mm 3,3 km/h (1 Bft) NW 304 ° 0 min 0,000 mm 3,8 UV-I 371 W/m² 18,7 °C 23,6 °C 6,4 km/h (2 Bft)
02.08.2018 12:36 23,5 °C 72 % 1017,4 hPa 0,0 mm 3,5 km/h (1 Bft) NW 316 ° 0 min 0,000 mm 4,0 UV-I 408 W/m² 18,2 °C 23,5 °C 6,4 km/h (2 Bft)
02.08.2018 12:37 23,5 °C 73 % 1017,4 hPa 0,0 mm 2,0 km/h (1 Bft) NW 316 ° 0 min 0,000 mm 3,8 UV-I 362 W/m² 18,4 °C 23,5 °C 3,2 km/h (1 Bft)
02.08.2018 12:38 23,5 °C 75 % 1017,4 hPa 0,0 mm 0,4 km/h (0 Bft) NW 316 ° 0 min 0,000 mm 4,8 UV-I 362 W/m² 18,8 °C 23,5 °C 1,6 km/h (1 Bft)
02.08.2018 12:39 23,6 °C 74 % 1017,4 hPa 0,0 mm 1,8 km/h (1 Bft) W 281 ° 0 min 0,000 mm 4,1 UV-I 362 W/m² 18,7 °C 23,6 °C 4,8 km/h (1 Bft)
02.08.2018 12:40 23,7 °C 75 % 1017,5 hPa 0,0 mm 4,2 km/h (1 Bft) NW 321 ° 0 min 0,000 mm 4,5 UV-I 362 W/m² 19,0 °C 23,7 °C 6,4 km/h (2 Bft)
02.08.2018 12:41 23,8 °C 76 % 1017,4 hPa 0,0 mm 4,0 km/h (1 Bft) W 274 ° 0 min 0,000 mm 5,4 UV-I 362 W/m² 19,3 °C 23,8 °C 6,4 km/h (2 Bft)
02.08.2018 12:42 23,8 °C 73 % 1017,5 hPa 0,0 mm 6,7 km/h (2 Bft) W 261 ° 0 min 0,000 mm 4,7 UV-I 362 W/m² 18,7 °C 23,8 °C 11,3 km/h (2 Bft)
02.08.2018 12:43 23,8 °C 74 % 1017,5 hPa 0,0 mm 5,7 km/h (1 Bft) W-NW 302 ° 0 min 0,000 mm 4,8 UV-I 538 W/m² 18,9 °C 23,8 °C 9,7 km/h (2 Bft)
02.08.2018 12:44 23,8 °C 75 % 1017,5 hPa 0,0 mm 6,8 km/h (2 Bft) W-SW 254 ° 0 min 0,000 mm 4,6 UV-I 475 W/m² 19,1 °C 23,8 °C 11,3 km/h (2 Bft)
02.08.2018 12:45 23,8 °C 74 % 1017,4 hPa 0,0 mm 4,8 km/h (1 Bft) NW 311 ° 0 min 0,000 mm 4,2 UV-I 394 W/m² 18,9 °C 23,8 °C 8,0 km/h (2 Bft)
02.08.2018 12:46 23,8 °C 73 % 1017,4 hPa 0,0 mm 5,9 km/h (2 Bft) NW 311 ° 0 min 0,000 mm 3,9 UV-I 380 W/m² 18,7 °C 23,8 °C 8,0 km/h (2 Bft)
02.08.2018 12:47 23,8 °C 75 % 1017,4 hPa 0,0 mm 4,7 km/h (1 Bft) NW 309 ° 0 min 0,000 mm 4,0 UV-I 390 W/m² 19,1 °C 23,8 °C 6,4 km/h (2 Bft)
02.08.2018 12:48 23,8 °C 72 % 1017,4 hPa 0,0 mm 5,0 km/h (1 Bft) W-NW 285 ° 0 min 0,000 mm 4,2 UV-I 455 W/m² 18,4 °C 23,8 °C 8,0 km/h (2 Bft)
02.08.2018 12:49 23,7 °C 73 % 1017,4 hPa 0,0 mm 3,9 km/h (1 Bft) W 281 ° 0 min 0,000 mm 3,9 UV-I 396 W/m² 18,6 °C 23,7 °C 4,8 km/h (1 Bft)
02.08.2018 12:50 23,7 °C 74 % 1017,4 hPa 0,0 mm 3,4 km/h (1 Bft) W-NW 287 ° 0 min 0,000 mm 3,7 UV-I 396 W/m² 18,8 °C 23,7 °C 4,8 km/h (1 Bft)
02.08.2018 12:51 23,7 °C 74 % 1017,4 hPa 0,0 mm 3,8 km/h (1 Bft) W 281 ° 0 min 0,000 mm 3,7 UV-I 316 W/m² 18,8 °C 23,7 °C 4,8 km/h (1 Bft)
02.08.2018 12:52 23,7 °C 75 % 1017,4 hPa 0,0 mm 4,4 km/h (1 Bft) W 281 ° 0 min 0,000 mm 5,5 UV-I 316 W/m² 19,0 °C 23,7 °C 6,4 km/h (2 Bft)
02.08.2018 12:53 23,7 °C 73 % 1017,4 hPa 0,0 mm 5,9 km/h (2 Bft) NW 320 ° 1 min 0,000 mm 5,1 UV-I 812 W/m² 18,6 °C 23,7 °C 8,0 km/h (2 Bft)
02.08.2018 12:54 23,7 °C 73 % 1017,4 hPa 0,0 mm 3,6 km/h (1 Bft) W-NW 286 ° 1 min 0,000 mm 5,1 UV-I 784 W/m² 18,6 °C 23,7 °C 6,4 km/h (2 Bft)
02.08.2018 12:55 23,7 °C 73 % 1017,5 hPa 0,0 mm 3,8 km/h (1 Bft) W-NW 286 ° 1 min 0,000 mm 3,8 UV-I 784 W/m² 18,6 °C 23,7 °C 8,0 km/h (2 Bft)
02.08.2018 12:56 23,7 °C 74 % 1017,4 hPa 0,0 mm 6,2 km/h (2 Bft) W 264 ° 0 min 0,000 mm 3,6 UV-I 364 W/m² 18,8 °C 23,7 °C 11,3 km/h (2 Bft)
02.08.2018 12:57 23,6 °C 73 % 1017,5 hPa 0,0 mm 7,8 km/h (2 Bft) W 278 ° 0 min 0,000 mm 3,3 UV-I 294 W/m² 18,5 °C 23,6 °C 11,3 km/h (2 Bft)
02.08.2018 12:58 23,6 °C 74 % 1017,5 hPa 0,0 mm 9,1 km/h (2 Bft) W-NW 290 ° 0 min 0,000 mm 3,1 UV-I 281 W/m² 18,7 °C 23,6 °C 12,9 km/h (3 Bft)
02.08.2018 12:59 23,5 °C 74 % 1017,4 hPa 0,0 mm 3,4 km/h (1 Bft) W 268 ° 0 min 0,000 mm 3,0 UV-I 276 W/m² 18,6 °C 23,5 °C 9,7 km/h (2 Bft)
02.08.2018 13:00 23,4 °C 75 % 1017,5 hPa 0,0 mm 8,9 km/h (2 Bft) W 266 ° 0 min 0,000 mm 3,1 UV-I 279 W/m² 18,7 °C 23,4 °C 12,9 km/h (3 Bft)
02.08.2018 13:01 23,4 °C 74 % 1017,5 hPa 0,0 mm 5,8 km/h (2 Bft) W 279 ° 0 min 0,330 mm 3,9 UV-I 309 W/m² 18,5 °C 23,4 °C 11,3 km/h (2 Bft)
02.08.2018 13:02 23,3 °C 73 % 1017,5 hPa 0,0 mm 4,2 km/h (1 Bft) W-NW 290 ° 0 min 0,000 mm 3,4 UV-I 332 W/m² 18,2 °C 23,3 °C 8,0 km/h (2 Bft)
02.08.2018 13:03 23,4 °C 75 % 1017,5 hPa 0,0 mm 3,1 km/h (1 Bft) W-NW 285 ° 0 min 0,000 mm 3,5 UV-I 355 W/m² 18,7 °C 23,4 °C 6,4 km/h (2 Bft)
02.08.2018 13:04 23,4 °C 75 % 1017,5 hPa 0,0 mm 6,0 km/h (2 Bft) W 270 ° 0 min 0,000 mm 3,8 UV-I 390 W/m² 18,7 °C 23,4 °C 9,7 km/h (2 Bft)
02.08.2018 13:05 23,4 °C 75 % 1017,5 hPa 0,0 mm 9,7 km/h (2 Bft) NW 304 ° 0 min 0,000 mm 3,7 UV-I 381 W/m² 18,7 °C 23,4 °C 12,9 km/h (3 Bft)
02.08.2018 13:06 23,4 °C 74 % 1017,6 hPa 0,0 mm 6,7 km/h (2 Bft) NW 323 ° 0 min 0,000 mm 3,6 UV-I 364 W/m² 18,5 °C 23,4 °C 9,7 km/h (2 Bft)
02.08.2018 13:07 23,4 °C 74 % 1017,5 hPa 0,0 mm 2,6 km/h (1 Bft) W 281 ° 0 min 0,000 mm 3,5 UV-I 345 W/m² 18,5 °C 23,4 °C 4,8 km/h (1 Bft)
02.08.2018 13:08 23,5 °C 75 % 1017,5 hPa 0,0 mm 4,6 km/h (1 Bft) W-NW 290 ° 0 min 0,000 mm 3,4 UV-I 320 W/m² 18,8 °C 23,5 °C 8,0 km/h (2 Bft)
02.08.2018 13:09 23,6 °C 74 % 1017,5 hPa 0,0 mm 2,2 km/h (1 Bft) W-NW 290 ° 0 min 0,000 mm 3,4 UV-I 309 W/m² 18,7 °C 23,6 °C 3,2 km/h (1 Bft)
02.08.2018 13:10 23,6 °C 75 % 1017,5 hPa 0,0 mm 5,4 km/h (1 Bft) W 267 ° 0 min 0,000 mm 3,4 UV-I 313 W/m² 18,9 °C 23,6 °C 9,7 km/h (2 Bft)
02.08.2018 13:11 23,5 °C 74 % 1017,5 hPa 0,0 mm 6,2 km/h (2 Bft) W-SW 250 ° 0 min 0,000 mm 3,5 UV-I 338 W/m² 18,6 °C 23,5 °C 11,3 km/h (2 Bft)
02.08.2018 13:12 23,5 °C 74 % 1017,5 hPa 0,0 mm 8,6 km/h (2 Bft) W 271 ° 0 min 0,000 mm 3,8 UV-I 397 W/m² 18,6 °C 23,5 °C 12,9 km/h (3 Bft)
02.08.2018 13:13 23,6 °C 75 % 1017,5 hPa 0,0 mm 7,8 km/h (2 Bft) W 267 ° 0 min 0,000 mm 4,0 UV-I 411 W/m² 18,9 °C 23,6 °C 12,9 km/h (3 Bft)
02.08.2018 13:14 23,6 °C 75 % 1017,5 hPa 0,0 mm 7,5 km/h (2 Bft) W 276 ° 0 min 0,000 mm 4,1 UV-I 380 W/m² 18,9 °C 23,6 °C 11,3 km/h (2 Bft)
02.08.2018 13:15 23,7 °C 75 % 1017,5 hPa 0,0 mm 6,4 km/h (2 Bft) W 273 ° 0 min 0,000 mm 3,8 UV-I 388 W/m² 19,0 °C 23,7 °C 9,7 km/h (2 Bft)
02.08.2018 13:16 23,6 °C 73 % 1017,5 hPa 0,0 mm 4,5 km/h (1 Bft) W-NW 290 ° 0 min 0,000 mm 3,6 UV-I 431 W/m² 18,5 °C 23,6 °C 6,4 km/h (2 Bft)
02.08.2018 13:17 23,6 °C 74 % 1017,5 hPa 0,0 mm 3,2 km/h (1 Bft) NW 325 ° 0 min 0,000 mm 3,4 UV-I 352 W/m² 18,7 °C 23,6 °C 8,0 km/h (2 Bft)
02.08.2018 13:18 23,7 °C 76 % 1017,5 hPa 0,0 mm 5,6 km/h (1 Bft) NW 309 ° 0 min 0,000 mm 3,2 UV-I 311 W/m² 19,2 °C 23,7 °C 8,0 km/h (2 Bft)
02.08.2018 13:19 23,7 °C 75 % 1017,5 hPa 0,0 mm 2,5 km/h (1 Bft) NW 309 ° 0 min 0,000 mm 3,2 UV-I 301 W/m² 19,0 °C 23,7 °C 4,8 km/h (1 Bft)
02.08.2018 13:20 23,7 °C 74 % 1017,5 hPa 0,0 mm 5,1 km/h (1 Bft) W-NW 300 ° 0 min 0,000 mm 3,2 UV-I 301 W/m² 18,8 °C 23,7 °C 8,0 km/h (2 Bft)
02.08.2018 13:21 23,7 °C 72 % 1017,5 hPa 0,0 mm 8,0 km/h (2 Bft) W-NW 294 ° 0 min 0,000 mm 3,3 UV-I 304 W/m² 18,3 °C 23,7 °C 12,9 km/h (3 Bft)
02.08.2018 13:22 23,7 °C 72 % 1017,5 hPa 0,0 mm 8,5 km/h (2 Bft) NW 305 ° 0 min 0,000 mm 3,5 UV-I 332 W/m² 18,3 °C 23,7 °C 11,3 km/h (2 Bft)
02.08.2018 13:23 23,7 °C 73 % 1017,5 hPa 0,0 mm 2,7 km/h (1 Bft) W-NW 292 ° 0 min 0,000 mm 3,6 UV-I 322 W/m² 18,6 °C 23,7 °C 4,8 km/h (1 Bft)
02.08.2018 13:24 23,7 °C 75 % 1017,5 hPa 0,0 mm 3,4 km/h (1 Bft) W-NW 294 ° 0 min 0,000 mm 3,7 UV-I 316 W/m² 19,0 °C 23,7 °C 6,4 km/h (2 Bft)
02.08.2018 13:25 23,8 °C 74 % 1017,5 hPa 0,0 mm 2,5 km/h (1 Bft) W-NW 285 ° 0 min 0,000 mm 3,9 UV-I 332 W/m² 18,9 °C 23,8 °C 4,8 km/h (1 Bft)
02.08.2018 13:26 23,7 °C 73 % 1017,5 hPa 0,0 mm 6,8 km/h (2 Bft) W 267 ° 0 min 0,000 mm 4,7 UV-I 332 W/m² 18,6 °C 23,7 °C 11,3 km/h (2 Bft)
02.08.2018 13:27 23,8 °C 73 % 1017,4 hPa 0,0 mm 3,0 km/h (1 Bft) W 267 ° 1 min 0,000 mm 6,3 UV-I 861 W/m² 18,7 °C 23,8 °C 6,4 km/h (2 Bft)
02.08.2018 13:28 23,9 °C 73 % 1017,4 hPa 0,0 mm 4,2 km/h (1 Bft) W-NW 302 ° 1 min 0,000 mm 6,4 UV-I 856 W/m² 18,8 °C 23,9 °C 8,0 km/h (2 Bft)
02.08.2018 13:29 23,9 °C 71 % 1017,4 hPa 0,0 mm 8,2 km/h (2 Bft) W 270 ° 1 min 0,000 mm 6,5 UV-I 854 W/m² 18,3 °C 23,9 °C 11,3 km/h (2 Bft)
02.08.2018 13:30 24,1 °C 73 % 1017,4 hPa 0,0 mm 8,5 km/h (2 Bft) W-NW 302 ° 1 min 0,000 mm 6,5 UV-I 849 W/m² 18,9 °C 24,1 °C 11,3 km/h (2 Bft)
02.08.2018 13:31 24,2 °C 70 % 1017,4 hPa 0,0 mm 5,2 km/h (1 Bft) W-NW 296 ° 1 min 0,000 mm 6,5 UV-I 837 W/m² 18,4 °C 24,2 °C 6,4 km/h (2 Bft)
02.08.2018 13:32 24,2 °C 72 % 1017,4 hPa 0,0 mm 4,2 km/h (1 Bft) W-NW 289 ° 1 min 0,000 mm 6,4 UV-I 833 W/m² 18,8 °C 24,2 °C 6,4 km/h (2 Bft)
02.08.2018 13:33 24,3 °C 70 % 1017,4 hPa 0,0 mm 6,6 km/h (2 Bft) W 265 ° 1 min 0,000 mm 6,0 UV-I 833 W/m² 18,5 °C 24,3 °C 11,3 km/h (2 Bft)
02.08.2018 13:34 24,3 °C 71 % 1017,4 hPa 0,0 mm 5,6 km/h (1 Bft) W-NW 287 ° 1 min 0,000 mm 6,3 UV-I 656 W/m² 18,7 °C 24,3 °C 8,0 km/h (2 Bft)
02.08.2018 13:35 24,5 °C 72 % 1017,5 hPa 0,0 mm 4,3 km/h (1 Bft) NW 306 ° 1 min 0,000 mm 6,5 UV-I 656 W/m² 19,1 °C 24,5 °C 9,7 km/h (2 Bft)
02.08.2018 13:36 24,6 °C 71 % 1017,5 hPa 0,0 mm 3,3 km/h (1 Bft) W-NW 285 ° 1 min 0,000 mm 6,6 UV-I 893 W/m² 19,0 °C 24,6 °C 4,8 km/h (1 Bft)
02.08.2018 13:37 24,6 °C 71 % 1017,5 hPa 0,0 mm 4,4 km/h (1 Bft) W-NW 300 ° 1 min 0,000 mm 6,4 UV-I 893 W/m² 19,0 °C 24,6 °C 9,7 km/h (2 Bft)
02.08.2018 13:38 24,6 °C 71 % 1017,5 hPa 0,0 mm 3,2 km/h (1 Bft) W-NW 300 ° 1 min 0,000 mm 5,6 UV-I 803 W/m² 19,0 °C 24,6 °C 4,8 km/h (1 Bft)
02.08.2018 13:39 24,7 °C 73 % 1017,5 hPa 0,0 mm 3,7 km/h (1 Bft) N-NW 337 ° 1 min 0,000 mm 5,4 UV-I 803 W/m² 19,5 °C 24,7 °C 6,4 km/h (2 Bft)
02.08.2018 13:40 24,8 °C 72 % 1017,5 hPa 0,0 mm 4,2 km/h (1 Bft) N-NW 329 ° 1 min 0,000 mm 6,4 UV-I 803 W/m² 19,4 °C 24,8 °C 6,4 km/h (2 Bft)
02.08.2018 13:41 24,8 °C 68 % 1017,4 hPa 0,0 mm 3,8 km/h (1 Bft) N-NW 329 ° 1 min 0,000 mm 6,4 UV-I 858 W/m² 18,5 °C 24,8 °C 6,4 km/h (2 Bft)
02.08.2018 13:42 24,8 °C 70 % 1017,6 hPa 0,0 mm 7,0 km/h (2 Bft) NW 309 ° 1 min 0,000 mm 6,1 UV-I 847 W/m² 18,9 °C 24,8 °C 12,9 km/h (3 Bft)
02.08.2018 13:43 24,8 °C 71 % 1017,5 hPa 0,0 mm 3,4 km/h (1 Bft) W-NW 299 ° 0 min 0,000 mm 5,0 UV-I 589 W/m² 19,2 °C 24,8 °C 4,8 km/h (1 Bft)
02.08.2018 13:44 24,7 °C 71 % 1017,5 hPa 0,0 mm 3,1 km/h (1 Bft) W-NW 301 ° 0 min 0,000 mm 5,7 UV-I 589 W/m² 19,1 °C 24,7 °C 4,8 km/h (1 Bft)
02.08.2018 13:45 24,7 °C 72 % 1017,4 hPa 0,0 mm 2,2 km/h (1 Bft) W-NW 301 ° 0 min 0,000 mm 5,5 UV-I 589 W/m² 19,3 °C 24,7 °C 4,8 km/h (1 Bft)
02.08.2018 13:46 24,7 °C 71 % 1017,5 hPa 0,0 mm 4,8 km/h (1 Bft) W-NW 301 ° 0 min 0,000 mm 4,0 UV-I 589 W/m² 19,1 °C 24,7 °C 8,0 km/h (2 Bft)
02.08.2018 13:47 24,8 °C 73 % 1017,4 hPa 0,0 mm 6,2 km/h (2 Bft) W-NW 296 ° 0 min 0,000 mm 3,9 UV-I 330 W/m² 19,6 °C 24,8 °C 9,7 km/h (2 Bft)
02.08.2018 13:48 24,7 °C 72 % 1017,4 hPa 0,0 mm 7,6 km/h (2 Bft) W 260 ° 0 min 0,000 mm 3,7 UV-I 278 W/m² 19,3 °C 24,7 °C 16,1 km/h (3 Bft)
02.08.2018 13:49 24,6 °C 72 % 1017,4 hPa 0,0 mm 8,2 km/h (2 Bft) W 261 ° 0 min 0,000 mm 3,6 UV-I 253 W/m² 19,2 °C 24,6 °C 12,9 km/h (3 Bft)
02.08.2018 13:50 24,4 °C 71 % 1017,5 hPa 0,0 mm 6,0 km/h (2 Bft) W 276 ° 0 min 0,000 mm 3,5 UV-I 246 W/m² 18,8 °C 24,4 °C 9,7 km/h (2 Bft)
02.08.2018 13:51 24,2 °C 70 % 1017,5 hPa 0,0 mm 2,2 km/h (1 Bft) W 276 ° 0 min 0,000 mm 3,4 UV-I 237 W/m² 18,4 °C 24,2 °C 3,2 km/h (1 Bft)
02.08.2018 13:52 24,1 °C 71 % 1017,5 hPa 0,0 mm 2,8 km/h (1 Bft) W 275 ° 0 min 0,000 mm 3,3 UV-I 234 W/m² 18,5 °C 24,1 °C 4,8 km/h (1 Bft)
02.08.2018 13:53 24,0 °C 72 % 1017,5 hPa 0,0 mm 0,7 km/h (0 Bft) W 276 ° 0 min 0,000 mm 3,4 UV-I 234 W/m² 18,6 °C 24,0 °C 1,6 km/h (1 Bft)
02.08.2018 13:54 23,9 °C 73 % 1017,4 hPa 0,0 mm 0,1 km/h (0 Bft) W 276 ° 0 min 0,000 mm 3,4 UV-I 257 W/m² 18,8 °C 23,9 °C 1,6 km/h (1 Bft)
02.08.2018 13:55 23,8 °C 71 % 1017,5 hPa 0,0 mm 3,1 km/h (1 Bft) W-NW 300 ° 0 min 0,000 mm 3,5 UV-I 276 W/m² 18,2 °C 23,8 °C 4,8 km/h (1 Bft)
02.08.2018 13:56 23,9 °C 72 % 1017,5 hPa 0,0 mm 2,7 km/h (1 Bft) W 275 ° 0 min 0,000 mm 3,9 UV-I 313 W/m² 18,5 °C 23,9 °C 4,8 km/h (1 Bft)
02.08.2018 13:57 24,0 °C 74 % 1017,5 hPa 0,0 mm 4,0 km/h (1 Bft) W 277 ° 0 min 0,000 mm 5,0 UV-I 313 W/m² 19,1 °C 24,0 °C 6,4 km/h (2 Bft)
02.08.2018 13:58 24,1 °C 72 % 1017,5 hPa 0,0 mm 4,2 km/h (1 Bft) W 281 ° 1 min 0,000 mm 5,1 UV-I 605 W/m² 18,7 °C 24,1 °C 6,4 km/h (2 Bft)
02.08.2018 13:59 24,3 °C 73 % 1017,5 hPa 0,0 mm 4,9 km/h (1 Bft) W 266 ° 1 min 0,000 mm 5,3 UV-I 605 W/m² 19,1 °C 24,3 °C 9,7 km/h (2 Bft)
02.08.2018 14:00 24,5 °C 73 % 1017,5 hPa 0,0 mm 4,0 km/h (1 Bft) N-NO 15 ° 1 min 0,000 mm 4,8 UV-I 671 W/m² 19,3 °C 24,5 °C 6,4 km/h (2 Bft)
02.08.2018 14:01 24,6 °C 74 % 1017,5 hPa 0,0 mm 2,5 km/h (1 Bft) NW 314 ° 1 min 0,330 mm 5,0 UV-I 671 W/m² 19,6 °C 24,6 °C 4,8 km/h (1 Bft)
02.08.2018 14:02 24,6 °C 72 % 1017,5 hPa 0,0 mm 3,1 km/h (1 Bft) NW 315 ° 1 min 0,000 mm 5,3 UV-I 698 W/m² 19,2 °C 24,6 °C 4,8 km/h (1 Bft)
02.08.2018 14:03 24,6 °C 70 % 1017,4 hPa 0,0 mm 4,5 km/h (1 Bft) N-NW 332 ° 1 min 0,000 mm 5,4 UV-I 708 W/m² 18,8 °C 24,6 °C 6,4 km/h (2 Bft)
02.08.2018 14:04 24,6 °C 69 % 1017,4 hPa 0,0 mm 1,5 km/h (1 Bft) N-NW 348 ° 1 min 0,000 mm 5,5 UV-I 731 W/m² 18,5 °C 24,6 °C 3,2 km/h (1 Bft)
02.08.2018 14:05 24,7 °C 72 % 1017,3 hPa 0,0 mm 5,9 km/h (2 Bft) NW 306 ° 1 min 0,000 mm 5,5 UV-I 731 W/m² 19,3 °C 24,7 °C 9,7 km/h (2 Bft)
02.08.2018 14:06 24,8 °C 71 % 1017,4 hPa 0,0 mm 5,6 km/h (1 Bft) NW 314 ° 1 min 0,000 mm 5,8 UV-I 731 W/m² 19,2 °C 24,8 °C 8,0 km/h (2 Bft)
02.08.2018 14:07 24,8 °C 70 % 1017,4 hPa 0,0 mm 1,4 km/h (1 Bft) NW 314 ° 1 min 0,000 mm 5,8 UV-I 689 W/m² 18,9 °C 24,8 °C 6,4 km/h (2 Bft)
02.08.2018 14:08 24,8 °C 70 % 1017,3 hPa 0,0 mm 2,1 km/h (1 Bft) NW 314 ° 1 min 0,000 mm 5,7 UV-I 705 W/m² 18,9 °C 24,8 °C 4,8 km/h (1 Bft)
02.08.2018 14:09 24,8 °C 71 % 1017,4 hPa 0,0 mm 6,5 km/h (2 Bft) N 350 ° 1 min 0,000 mm 5,5 UV-I 682 W/m² 19,2 °C 24,8 °C 9,7 km/h (2 Bft)
02.08.2018 14:10 24,8 °C 71 % 1017,4 hPa 0,0 mm 3,1 km/h (1 Bft) N 360 ° 1 min 0,000 mm 5,6 UV-I 684 W/m² 19,2 °C 24,8 °C 6,4 km/h (2 Bft)
02.08.2018 14:11 24,9 °C 73 % 1017,4 hPa 0,0 mm 1,5 km/h (1 Bft) N 360 ° 1 min 0,000 mm 5,4 UV-I 679 W/m² 19,7 °C 24,9 °C 3,2 km/h (1 Bft)
02.08.2018 14:12 24,9 °C 69 % 1017,4 hPa 0,0 mm 2,3 km/h (1 Bft) N 5 ° 1 min 0,000 mm 5,6 UV-I 682 W/m² 18,8 °C 24,9 °C 4,8 km/h (1 Bft)
02.08.2018 14:13 24,9 °C 70 % 1017,3 hPa 0,0 mm 2,5 km/h (1 Bft) W 260 ° 1 min 0,000 mm 5,7 UV-I 738 W/m² 19,0 °C 24,9 °C 6,4 km/h (2 Bft)
02.08.2018 14:14 24,8 °C 69 % 1017,4 hPa 0,0 mm 6,6 km/h (2 Bft) W 269 ° 1 min 0,000 mm 5,8 UV-I 744 W/m² 18,7 °C 24,8 °C 11,3 km/h (2 Bft)
02.08.2018 14:15 24,7 °C 68 % 1017,4 hPa 0,0 mm 1,3 km/h (1 Bft) N-NW 327 ° 1 min 0,000 mm 5,7 UV-I 715 W/m² 18,4 °C 24,7 °C 3,2 km/h (1 Bft)
02.08.2018 14:16 24,7 °C 70 % 1017,4 hPa 0,0 mm 1,7 km/h (1 Bft) NW 323 ° 1 min 0,000 mm 5,7 UV-I 712 W/m² 18,8 °C 24,7 °C 3,2 km/h (1 Bft)
02.08.2018 14:17 24,7 °C 72 % 1017,4 hPa 0,0 mm 2,0 km/h (1 Bft) NW 322 ° 1 min 0,000 mm 5,7 UV-I 694 W/m² 19,3 °C 24,7 °C 6,4 km/h (2 Bft)
02.08.2018 14:18 24,8 °C 73 % 1017,3 hPa 0,0 mm 3,7 km/h (1 Bft) N 5 ° 1 min 0,000 mm 5,7 UV-I 747 W/m² 19,6 °C 24,8 °C 9,7 km/h (2 Bft)
02.08.2018 14:19 25,0 °C 73 % 1017,4 hPa 0,0 mm 5,4 km/h (1 Bft) W 259 ° 1 min 0,000 mm 4,9 UV-I 747 W/m² 19,8 °C 25,0 °C 12,9 km/h (3 Bft)
02.08.2018 14:20 24,9 °C 69 % 1017,4 hPa 0,0 mm 6,1 km/h (2 Bft) W-NW 286 ° 1 min 0,000 mm 5,7 UV-I 766 W/m² 18,8 °C 24,9 °C 9,7 km/h (2 Bft)
02.08.2018 14:21 24,9 °C 69 % 1017,3 hPa 0,0 mm 4,6 km/h (1 Bft) W-NW 302 ° 1 min 0,000 mm 5,7 UV-I 728 W/m² 18,8 °C 24,9 °C 6,4 km/h (2 Bft)
02.08.2018 14:22 24,8 °C 71 % 1017,4 hPa 0,0 mm 4,2 km/h (1 Bft) N-NW 348 ° 1 min 0,000 mm 5,6 UV-I 707 W/m² 19,2 °C 24,8 °C 4,8 km/h (1 Bft)
02.08.2018 14:23 24,9 °C 70 % 1017,3 hPa 0,0 mm 6,2 km/h (2 Bft) N-NO 12 ° 1 min 0,000 mm 5,6 UV-I 724 W/m² 19,0 °C 24,9 °C 9,7 km/h (2 Bft)
02.08.2018 14:24 25,1 °C 70 % 1017,3 hPa 0,0 mm 7,0 km/h (2 Bft) O-NO 58 ° 1 min 0,000 mm 5,6 UV-I 724 W/m² 19,2 °C 25,1 °C 11,3 km/h (2 Bft)
02.08.2018 14:25 25,2 °C 69 % 1017,3 hPa 0,0 mm 5,6 km/h (1 Bft) NO 44 ° 1 min 0,000 mm 5,5 UV-I 728 W/m² 19,1 °C 25,2 °C 9,7 km/h (2 Bft)
02.08.2018 14:26 25,2 °C 70 % 1017,3 hPa 0,0 mm 6,0 km/h (2 Bft) N-NO 24 ° 1 min 0,000 mm 4,9 UV-I 728 W/m² 19,3 °C 25,2 °C 9,7 km/h (2 Bft)
02.08.2018 14:27 25,2 °C 68 % 1017,3 hPa 0,0 mm 2,5 km/h (1 Bft) N-NO 17 ° 1 min 0,000 mm 5,5 UV-I 728 W/m² 18,9 °C 25,2 °C 8,0 km/h (2 Bft)
02.08.2018 14:28 25,2 °C 70 % 1017,3 hPa 0,0 mm 4,6 km/h (1 Bft) N-NO 17 ° 1 min 0,000 mm 5,3 UV-I 694 W/m² 19,3 °C 25,2 °C 9,7 km/h (2 Bft)
02.08.2018 14:29 25,2 °C 68 % 1017,2 hPa 0,0 mm 6,4 km/h (2 Bft) N 360 ° 1 min 0,000 mm 4,7 UV-I 694 W/m² 18,9 °C 25,2 °C 11,3 km/h (2 Bft)
02.08.2018 14:30 25,2 °C 68 % 1017,3 hPa 0,0 mm 6,2 km/h (2 Bft) N-NW 339 ° 0 min 0,000 mm 3,8 UV-I 248 W/m² 18,9 °C 25,2 °C 8,0 km/h (2 Bft)
02.08.2018 14:31 25,1 °C 69 % 1017,3 hPa 0,0 mm 5,9 km/h (2 Bft) W-NW 302 ° 0 min 0,000 mm 3,6 UV-I 239 W/m² 19,0 °C 25,1 °C 9,7 km/h (2 Bft)
02.08.2018 14:32 24,9 °C 70 % 1017,3 hPa 0,0 mm 7,6 km/h (2 Bft) NW 306 ° 0 min 0,000 mm 3,6 UV-I 239 W/m² 19,0 °C 24,9 °C 12,9 km/h (3 Bft)
02.08.2018 14:33 24,7 °C 71 % 1017,3 hPa 0,0 mm 9,1 km/h (2 Bft) NW 304 ° 0 min 0,000 mm 3,7 UV-I 243 W/m² 19,1 °C 24,7 °C 12,9 km/h (3 Bft)
02.08.2018 14:34 24,5 °C 71 % 1017,3 hPa 0,0 mm 3,7 km/h (1 Bft) NW 305 ° 0 min 0,000 mm 3,9 UV-I 262 W/m² 18,9 °C 24,5 °C 6,4 km/h (2 Bft)
02.08.2018 14:35 24,4 °C 73 % 1017,3 hPa 0,0 mm 3,7 km/h (1 Bft) N 360 ° 0 min 0,000 mm 4,1 UV-I 292 W/m² 19,2 °C 24,4 °C 6,4 km/h (2 Bft)
02.08.2018 14:36 24,3 °C 72 % 1017,2 hPa 0,0 mm 3,5 km/h (1 Bft) N-NW 347 ° 0 min 0,000 mm 4,2 UV-I 304 W/m² 18,9 °C 24,3 °C 4,8 km/h (1 Bft)
02.08.2018 14:37 24,3 °C 74 % 1017,3 hPa 0,0 mm 7,6 km/h (2 Bft) NW 314 ° 0 min 0,000 mm 5,5 UV-I 304 W/m² 19,4 °C 24,3 °C 12,9 km/h (3 Bft)
02.08.2018 14:38 24,4 °C 73 % 1017,3 hPa 0,0 mm 5,9 km/h (2 Bft) N-NW 337 ° 0 min 0,000 mm 5,7 UV-I 304 W/m² 19,2 °C 24,4 °C 9,7 km/h (2 Bft)
02.08.2018 14:39 24,5 °C 73 % 1017,2 hPa 0,0 mm 8,3 km/h (2 Bft) N-NW 334 ° 1 min 0,000 mm 5,6 UV-I 707 W/m² 19,3 °C 24,5 °C 14,5 km/h (3 Bft)
02.08.2018 14:40 24,5 °C 73 % 1017,2 hPa 0,0 mm 9,3 km/h (2 Bft) N-NW 329 ° 1 min 0,000 mm 5,7 UV-I 719 W/m² 19,3 °C 24,5 °C 12,9 km/h (3 Bft)
02.08.2018 14:41 24,7 °C 74 % 1017,2 hPa 0,0 mm 7,9 km/h (2 Bft) NW 319 ° 1 min 0,000 mm 5,8 UV-I 770 W/m² 19,7 °C 24,7 °C 12,9 km/h (3 Bft)
02.08.2018 14:42 24,8 °C 72 % 1017,2 hPa 0,0 mm 6,6 km/h (2 Bft) N 355 ° 1 min 0,000 mm 5,9 UV-I 758 W/m² 19,4 °C 24,8 °C 12,9 km/h (3 Bft)
02.08.2018 14:43 24,9 °C 72 % 1017,2 hPa 0,0 mm 5,1 km/h (1 Bft) W-NW 286 ° 1 min 0,000 mm 5,7 UV-I 761 W/m² 19,5 °C 24,9 °C 8,0 km/h (2 Bft)
02.08.2018 14:44 24,9 °C 70 % 1017,1 hPa 0,0 mm 6,9 km/h (2 Bft) N 355 ° 1 min 0,000 mm 5,8 UV-I 780 W/m² 19,0 °C 24,9 °C 12,9 km/h (3 Bft)
02.08.2018 14:45 24,9 °C 72 % 1017,2 hPa 0,0 mm 2,2 km/h (1 Bft) N 355 ° 1 min 0,000 mm 5,8 UV-I 780 W/m² 19,5 °C 24,9 °C 6,4 km/h (2 Bft)
02.08.2018 14:46 24,9 °C 73 % 1017,2 hPa 0,0 mm 6,9 km/h (2 Bft) N-NW 338 ° 1 min 0,000 mm 5,9 UV-I 791 W/m² 19,7 °C 24,9 °C 12,9 km/h (3 Bft)
02.08.2018 14:47 25,1 °C 72 % 1017,1 hPa 0,0 mm 7,6 km/h (2 Bft) NW 321 ° 1 min 0,000 mm 5,9 UV-I 800 W/m² 19,7 °C 25,1 °C 9,7 km/h (2 Bft)
02.08.2018 14:48 25,1 °C 68 % 1017,1 hPa 0,0 mm 0,8 km/h (0 Bft) NW 321 ° 1 min 0,000 mm 5,9 UV-I 789 W/m² 18,8 °C 25,1 °C 3,2 km/h (1 Bft)
02.08.2018 14:49 25,0 °C 69 % 1017,1 hPa 0,0 mm 5,3 km/h (1 Bft) NW 311 ° 1 min 0,000 mm 5,9 UV-I 777 W/m² 18,9 °C 25,0 °C 8,0 km/h (2 Bft)
02.08.2018 14:50 25,0 °C 70 % 1017,1 hPa 0,0 mm 5,6 km/h (1 Bft) W-NW 291 ° 1 min 0,000 mm 5,8 UV-I 768 W/m² 19,1 °C 25,0 °C 9,7 km/h (2 Bft)
02.08.2018 14:51 25,1 °C 72 % 1017,0 hPa 0,0 mm 7,2 km/h (2 Bft) N-NW 348 ° 1 min 0,000 mm 5,9 UV-I 773 W/m² 19,7 °C 25,1 °C 12,9 km/h (3 Bft)
02.08.2018 14:52 25,2 °C 70 % 1017,0 hPa 0,0 mm 5,6 km/h (1 Bft) N 349 ° 1 min 0,000 mm 5,8 UV-I 751 W/m² 19,3 °C 25,2 °C 9,7 km/h (2 Bft)
02.08.2018 14:53 25,1 °C 69 % 1017,1 hPa 0,0 mm 4,0 km/h (1 Bft) W-NW 302 ° 1 min 0,000 mm 5,8 UV-I 754 W/m² 19,0 °C 25,1 °C 6,4 km/h (2 Bft)
02.08.2018 14:54 25,0 °C 71 % 1017,0 hPa 0,0 mm 4,8 km/h (1 Bft) NW 321 ° 1 min 0,000 mm 5,9 UV-I 775 W/m² 19,4 °C 25,0 °C 6,4 km/h (2 Bft)
02.08.2018 14:55 25,1 °C 71 % 1017,0 hPa 0,0 mm 4,9 km/h (1 Bft) O-NO 71 ° 1 min 0,000 mm 5,9 UV-I 780 W/m² 19,5 °C 25,1 °C 11,3 km/h (2 Bft)
02.08.2018 14:56 25,2 °C 72 % 1016,9 hPa 0,0 mm 7,2 km/h (2 Bft) N 9 ° 1 min 0,000 mm 5,8 UV-I 770 W/m² 19,8 °C 25,2 °C 12,9 km/h (3 Bft)
02.08.2018 14:57 25,3 °C 69 % 1017,0 hPa 0,0 mm 4,7 km/h (1 Bft) NO 46 ° 1 min 0,000 mm 5,8 UV-I 775 W/m² 19,2 °C 25,3 °C 6,4 km/h (2 Bft)
02.08.2018 14:58 25,3 °C 71 % 1016,9 hPa 0,0 mm 2,1 km/h (1 Bft) N 9 ° 1 min 0,000 mm 5,8 UV-I 780 W/m² 19,7 °C 25,3 °C 4,8 km/h (1 Bft)
02.08.2018 14:59 25,4 °C 71 % 1016,9 hPa 0,0 mm 4,2 km/h (1 Bft) N 10 ° 1 min 0,000 mm 5,8 UV-I 780 W/m² 19,7 °C 25,4 °C 4,8 km/h (1 Bft)
02.08.2018 15:00 25,4 °C 68 % 1016,9 hPa 0,0 mm 7,0 km/h (2 Bft) N-NO 25 ° 1 min 0,000 mm 5,8 UV-I 777 W/m² 19,1 °C 25,4 °C 11,3 km/h (2 Bft)
02.08.2018 15:01 25,4 °C 69 % 1016,8 hPa 0,0 mm 8,0 km/h (2 Bft) NW 316 ° 1 min 0,432 mm 5,8 UV-I 770 W/m² 19,3 °C 25,4 °C 12,9 km/h (3 Bft)
02.08.2018 15:02 25,4 °C 69 % 1016,9 hPa 0,0 mm 6,8 km/h (2 Bft) N-NO 28 ° 1 min 0,000 mm 5,8 UV-I 775 W/m² 19,3 °C 25,4 °C 11,3 km/h (2 Bft)
02.08.2018 15:03 25,4 °C 69 % 1016,8 hPa 0,0 mm 5,4 km/h (1 Bft) N 350 ° 1 min 0,000 mm 5,8 UV-I 777 W/m² 19,3 °C 25,4 °C 6,4 km/h (2 Bft)
02.08.2018 15:04 25,4 °C 70 % 1016,8 hPa 0,0 mm 5,9 km/h (2 Bft) NW 323 ° 1 min 0,000 mm 5,8 UV-I 766 W/m² 19,5 °C 25,4 °C 8,0 km/h (2 Bft)
02.08.2018 15:05 25,5 °C 70 % 1016,8 hPa 0,0 mm 10,6 km/h (2 Bft) NW 306 ° 1 min 0,000 mm 5,8 UV-I 766 W/m² 19,6 °C 25,5 °C 16,1 km/h (3 Bft)
02.08.2018 15:06 25,4 °C 68 % 1016,8 hPa 0,0 mm 4,2 km/h (1 Bft) N-NW 333 ° 1 min 0,000 mm 5,7 UV-I 768 W/m² 19,1 °C 25,4 °C 6,4 km/h (2 Bft)
02.08.2018 15:07 25,3 °C 69 % 1016,8 hPa 0,0 mm 4,8 km/h (1 Bft) N-NW 330 ° 1 min 0,000 mm 5,7 UV-I 770 W/m² 19,2 °C 25,3 °C 6,4 km/h (2 Bft)
02.08.2018 15:08 25,3 °C 68 % 1016,8 hPa 0,0 mm 7,5 km/h (2 Bft) NW 304 ° 1 min 0,000 mm 5,7 UV-I 763 W/m² 19,0 °C 25,3 °C 12,9 km/h (3 Bft)
02.08.2018 15:09 25,3 °C 70 % 1016,8 hPa 0,0 mm 7,3 km/h (2 Bft) W-NW 297 ° 1 min 0,000 mm 5,6 UV-I 761 W/m² 19,4 °C 25,3 °C 12,9 km/h (3 Bft)
02.08.2018 15:10 25,3 °C 69 % 1016,8 hPa 0,0 mm 6,4 km/h (2 Bft) N-NW 336 ° 1 min 0,000 mm 5,6 UV-I 759 W/m² 19,2 °C 25,3 °C 12,9 km/h (3 Bft)
02.08.2018 15:11 25,2 °C 69 % 1016,8 hPa 0,0 mm 8,2 km/h (2 Bft) N-NW 333 ° 1 min 0,000 mm 5,5 UV-I 756 W/m² 19,1 °C 25,2 °C 14,5 km/h (3 Bft)
02.08.2018 15:12 25,2 °C 68 % 1016,8 hPa 0,0 mm 8,9 km/h (2 Bft) NW 324 ° 1 min 0,000 mm 5,5 UV-I 751 W/m² 18,9 °C 25,2 °C 12,9 km/h (3 Bft)
02.08.2018 15:13 25,2 °C 69 % 1016,8 hPa 0,0 mm 6,7 km/h (2 Bft) N-NW 331 ° 1 min 0,000 mm 5,5 UV-I 751 W/m² 19,1 °C 25,2 °C 9,7 km/h (2 Bft)
02.08.2018 15:14 25,1 °C 67 % 1016,8 hPa 0,0 mm 2,2 km/h (1 Bft) NO 34 ° 1 min 0,000 mm 5,4 UV-I 740 W/m² 18,5 °C 25,1 °C 6,4 km/h (2 Bft)
02.08.2018 15:15 25,3 °C 72 % 1016,8 hPa 0,0 mm 5,8 km/h (2 Bft) N 10 ° 1 min 0,000 mm 5,3 UV-I 735 W/m² 19,9 °C 25,3 °C 8,0 km/h (2 Bft)
02.08.2018 15:16 25,4 °C 70 % 1016,7 hPa 0,0 mm 3,9 km/h (1 Bft) N 355 ° 1 min 0,000 mm 5,3 UV-I 745 W/m² 19,5 °C 25,4 °C 6,4 km/h (2 Bft)
02.08.2018 15:17 25,6 °C 68 % 1016,8 hPa 0,0 mm 6,1 km/h (2 Bft) W 277 ° 1 min 0,000 mm 5,2 UV-I 715 W/m² 19,2 °C 25,6 °C 9,7 km/h (2 Bft)
02.08.2018 15:18 25,5 °C 66 % 1016,7 hPa 0,0 mm 7,4 km/h (2 Bft) N-NW 331 ° 1 min 0,000 mm 5,2 UV-I 731 W/m² 18,7 °C 25,5 °C 12,9 km/h (3 Bft)
02.08.2018 15:19 25,4 °C 68 % 1016,7 hPa 0,0 mm 4,2 km/h (1 Bft) NW 319 ° 1 min 0,000 mm 5,3 UV-I 737 W/m² 19,1 °C 25,4 °C 6,4 km/h (2 Bft)
02.08.2018 15:20 25,2 °C 67 % 1016,8 hPa 0,0 mm 3,9 km/h (1 Bft) N-NW 327 ° 1 min 0,000 mm 5,3 UV-I 742 W/m² 18,6 °C 25,2 °C 8,0 km/h (2 Bft)
02.08.2018 15:21 25,2 °C 69 % 1016,7 hPa 0,0 mm 1,9 km/h (1 Bft) N 355 ° 1 min 0,000 mm 5,3 UV-I 740 W/m² 19,1 °C 25,2 °C 3,2 km/h (1 Bft)
02.08.2018 15:22 25,3 °C 70 % 1016,7 hPa 0,0 mm 5,4 km/h (1 Bft) O-NO 63 ° 1 min 0,000 mm 5,3 UV-I 745 W/m² 19,4 °C 25,3 °C 8,0 km/h (2 Bft)
02.08.2018 15:23 25,4 °C 66 % 1016,7 hPa 0,0 mm 7,0 km/h (2 Bft) N-NO 26 ° 1 min 0,000 mm 5,0 UV-I 722 W/m² 18,6 °C 25,4 °C 11,3 km/h (2 Bft)
02.08.2018 15:24 25,5 °C 69 % 1016,8 hPa 0,0 mm 2,1 km/h (1 Bft) W 273 ° 1 min 0,000 mm 5,1 UV-I 722 W/m² 19,4 °C 25,5 °C 4,8 km/h (1 Bft)
02.08.2018 15:25 25,5 °C 68 % 1016,7 hPa 0,0 mm 2,2 km/h (1 Bft) N-NO 32 ° 1 min 0,000 mm 5,1 UV-I 726 W/m² 19,1 °C 25,5 °C 4,8 km/h (1 Bft)
02.08.2018 15:26 25,6 °C 70 % 1016,7 hPa 0,0 mm 5,6 km/h (1 Bft) N-NO 28 ° 1 min 0,000 mm 5,2 UV-I 722 W/m² 19,7 °C 25,6 °C 9,7 km/h (2 Bft)
02.08.2018 15:27 25,7 °C 67 % 1016,7 hPa 0,0 mm 4,4 km/h (1 Bft) N-NW 327 ° 1 min 0,000 mm 5,2 UV-I 722 W/m² 19,1 °C 25,7 °C 8,0 km/h (2 Bft)
02.08.2018 15:28 25,8 °C 69 % 1016,7 hPa 0,0 mm 4,8 km/h (1 Bft) O-NO 58 ° 1 min 0,000 mm 5,1 UV-I 717 W/m² 19,7 °C 25,8 °C 6,4 km/h (2 Bft)
02.08.2018 15:29 25,7 °C 65 % 1016,7 hPa 0,0 mm 2,8 km/h (1 Bft) O-NO 69 ° 1 min 0,000 mm 5,1 UV-I 715 W/m² 18,6 °C 25,7 °C 4,8 km/h (1 Bft)
02.08.2018 15:30 25,4 °C 66 % 1016,7 hPa 0,0 mm 3,6 km/h (1 Bft) O-NO 69 ° 1 min 0,000 mm 5,0 UV-I 714 W/m² 18,6 °C 25,4 °C 4,8 km/h (1 Bft)
02.08.2018 15:31 25,4 °C 68 % 1016,7 hPa 0,0 mm 4,7 km/h (1 Bft) N-NO 18 ° 1 min 0,000 mm 5,0 UV-I 714 W/m² 19,1 °C 25,4 °C 6,4 km/h (2 Bft)
02.08.2018 15:33 25,5 °C 70 % 1016,6 hPa 0,0 mm 3,9 km/h (1 Bft) N 350 ° 2 min 0,000 mm 5,0 UV-I 715 W/m² 19,6 °C 25,5 °C 8,0 km/h (2 Bft)
02.08.2018 15:34 25,7 °C 67 % 1016,7 hPa 0,0 mm 5,0 km/h (1 Bft) N-NO 32 ° 1 min 0,000 mm 5,1 UV-I 717 W/m² 19,1 °C 25,7 °C 8,0 km/h (2 Bft)
02.08.2018 15:35 25,8 °C 66 % 1016,7 hPa 0,0 mm 5,6 km/h (1 Bft) N 360 ° 1 min 0,000 mm 5,1 UV-I 726 W/m² 19,0 °C 25,8 °C 8,0 km/h (2 Bft)
02.08.2018 15:36 25,8 °C 66 % 1016,7 hPa 0,0 mm 3,8 km/h (1 Bft) N-NO 29 ° 1 min 0,000 mm 5,0 UV-I 705 W/m² 19,0 °C 25,8 °C 4,8 km/h (1 Bft)
02.08.2018 15:37 25,8 °C 68 % 1016,7 hPa 0,0 mm 5,8 km/h (2 Bft) N 355 ° 1 min 0,000 mm 4,8 UV-I 664 W/m² 19,4 °C 25,8 °C 9,7 km/h (2 Bft)
02.08.2018 15:38 25,8 °C 68 % 1016,7 hPa 0,0 mm 4,8 km/h (1 Bft) W-NW 302 ° 1 min 0,000 mm 4,8 UV-I 650 W/m² 19,4 °C 25,8 °C 8,0 km/h (2 Bft)
02.08.2018 15:39 25,9 °C 65 % 1016,7 hPa 0,0 mm 6,4 km/h (2 Bft) NW 311 ° 1 min 0,000 mm 4,8 UV-I 684 W/m² 18,8 °C 25,9 °C 9,7 km/h (2 Bft)
02.08.2018 15:40 25,8 °C 67 % 1016,7 hPa 0,0 mm 3,5 km/h (1 Bft) NW 310 ° 1 min 0,000 mm 4,8 UV-I 661 W/m² 19,2 °C 25,8 °C 6,4 km/h (2 Bft)
02.08.2018 15:41 25,7 °C 66 % 1016,7 hPa 0,0 mm 5,0 km/h (1 Bft) NW 311 ° 1 min 0,000 mm 4,7 UV-I 659 W/m² 18,9 °C 25,7 °C 8,0 km/h (2 Bft)
02.08.2018 15:42 25,6 °C 65 % 1016,7 hPa 0,0 mm 1,4 km/h (1 Bft) NW 311 ° 1 min 0,000 mm 4,6 UV-I 643 W/m² 18,5 °C 25,6 °C 3,2 km/h (1 Bft)
02.08.2018 15:43 25,6 °C 67 % 1016,7 hPa 0,0 mm 2,8 km/h (1 Bft) N-NW 348 ° 0 min 0,000 mm 4,5 UV-I 598 W/m² 19,0 °C 25,6 °C 6,4 km/h (2 Bft)
02.08.2018 15:44 25,5 °C 66 % 1016,7 hPa 0,0 mm 2,0 km/h (1 Bft) N-NW 348 ° 1 min 0,000 mm 4,6 UV-I 647 W/m² 18,7 °C 25,5 °C 3,2 km/h (1 Bft)
02.08.2018 15:45 25,4 °C 68 % 1016,7 hPa 0,0 mm 1,8 km/h (1 Bft) NW 311 ° 1 min 0,000 mm 4,4 UV-I 649 W/m² 19,1 °C 25,4 °C 8,0 km/h (2 Bft)
02.08.2018 15:46 25,5 °C 66 % 1016,7 hPa 0,0 mm 5,0 km/h (1 Bft) N-NW 334 ° 1 min 0,000 mm 4,1 UV-I 649 W/m² 18,7 °C 25,5 °C 8,0 km/h (2 Bft)
02.08.2018 15:47 25,4 °C 67 % 1016,7 hPa 0,0 mm 2,8 km/h (1 Bft) N-NW 348 ° 0 min 0,000 mm 3,2 UV-I 174 W/m² 18,8 °C 25,4 °C 6,4 km/h (2 Bft)
02.08.2018 15:48 25,4 °C 69 % 1016,7 hPa 0,0 mm 2,8 km/h (1 Bft) N-NW 336 ° 0 min 0,000 mm 4,2 UV-I 174 W/m² 19,3 °C 25,4 °C 4,8 km/h (1 Bft)
02.08.2018 15:49 25,3 °C 67 % 1016,7 hPa 0,0 mm 4,4 km/h (1 Bft) NW 305 ° 1 min 0,000 mm 4,3 UV-I 631 W/m² 18,7 °C 25,3 °C 6,4 km/h (2 Bft)
02.08.2018 15:50 25,3 °C 65 % 1016,7 hPa 0,0 mm 3,6 km/h (1 Bft) NW 305 ° 1 min 0,000 mm 4,3 UV-I 652 W/m² 18,2 °C 25,3 °C 6,4 km/h (2 Bft)
02.08.2018 15:51 25,2 °C 65 % 1016,7 hPa 0,0 mm 0,8 km/h (0 Bft) NW 305 ° 1 min 0,000 mm 4,5 UV-I 679 W/m² 18,1 °C 25,2 °C 3,2 km/h (1 Bft)
02.08.2018 15:52 25,2 °C 65 % 1016,7 hPa 0,0 mm 0,1 km/h (0 Bft) NW 305 ° 1 min 0,000 mm 4,5 UV-I 682 W/m² 18,1 °C 25,2 °C 1,6 km/h (1 Bft)
02.08.2018 15:53 25,3 °C 67 % 1016,7 hPa 0,0 mm 6,4 km/h (2 Bft) NW 320 ° 1 min 0,000 mm 4,5 UV-I 659 W/m² 18,7 °C 25,3 °C 16,1 km/h (3 Bft)
02.08.2018 15:54 25,4 °C 68 % 1016,7 hPa 0,0 mm 7,1 km/h (2 Bft) N-NW 342 ° 0 min 0,000 mm 4,3 UV-I 582 W/m² 19,1 °C 25,4 °C 16,1 km/h (3 Bft)
02.08.2018 15:55 25,6 °C 66 % 1016,7 hPa 0,0 mm 1,7 km/h (1 Bft) N-NW 348 ° 0 min 0,000 mm 4,2 UV-I 555 W/m² 18,8 °C 25,6 °C 3,2 km/h (1 Bft)
02.08.2018 15:56 25,6 °C 65 % 1016,7 hPa 0,0 mm 4,8 km/h (1 Bft) NW 322 ° 0 min 0,000 mm 4,0 UV-I 531 W/m² 18,5 °C 25,6 °C 6,4 km/h (2 Bft)
02.08.2018 15:57 25,5 °C 64 % 1016,7 hPa 0,0 mm 1,1 km/h (1 Bft) NW 322 ° 0 min 0,000 mm 4,0 UV-I 538 W/m² 18,2 °C 25,5 °C 3,2 km/h (1 Bft)
02.08.2018 15:58 25,5 °C 65 % 1016,7 hPa 0,0 mm 3,2 km/h (1 Bft) N-NW 340 ° 0 min 0,000 mm 4,0 UV-I 533 W/m² 18,4 °C 25,5 °C 6,4 km/h (2 Bft)
02.08.2018 15:59 25,5 °C 69 % 1016,7 hPa 0,0 mm 2,4 km/h (1 Bft) N-NW 346 ° 1 min 0,000 mm 4,2 UV-I 612 W/m² 19,4 °C 25,5 °C 6,4 km/h (2 Bft)
02.08.2018 16:00 25,5 °C 65 % 1016,7 hPa 0,0 mm 2,5 km/h (1 Bft) N-NW 348 ° 1 min 0,000 mm 4,2 UV-I 610 W/m² 18,4 °C 25,5 °C 4,8 km/h (1 Bft)
02.08.2018 16:01 25,6 °C 64 % 1016,8 hPa 0,0 mm 2,0 km/h (1 Bft) NW 315 ° 0 min 0,457 mm 4,1 UV-I 582 W/m² 18,3 °C 25,6 °C 8,0 km/h (2 Bft)
02.08.2018 16:02 25,6 °C 65 % 1016,7 hPa 0,0 mm 6,1 km/h (2 Bft) N-NW 342 ° 0 min 0,000 mm 4,2 UV-I 598 W/m² 18,5 °C 25,6 °C 8,0 km/h (2 Bft)
02.08.2018 16:03 25,5 °C 65 % 1016,7 hPa 0,0 mm 5,9 km/h (2 Bft) N-NW 340 ° 1 min 0,000 mm 4,1 UV-I 601 W/m² 18,4 °C 25,5 °C 9,7 km/h (2 Bft)
02.08.2018 16:04 25,6 °C 64 % 1016,7 hPa 0,0 mm 4,8 km/h (1 Bft) N-NO 17 ° 0 min 0,000 mm 4,0 UV-I 575 W/m² 18,3 °C 25,6 °C 8,0 km/h (2 Bft)
02.08.2018 16:05 25,7 °C 64 % 1016,7 hPa 0,0 mm 7,0 km/h (2 Bft) NO 37 ° 0 min 0,000 mm 4,0 UV-I 568 W/m² 18,4 °C 25,7 °C 12,9 km/h (3 Bft)
02.08.2018 16:06 25,7 °C 64 % 1016,7 hPa 0,0 mm 3,8 km/h (1 Bft) N 360 ° 0 min 0,000 mm 4,0 UV-I 587 W/m² 18,4 °C 25,7 °C 8,0 km/h (2 Bft)
02.08.2018 16:07 25,7 °C 63 % 1016,7 hPa 0,0 mm 5,0 km/h (1 Bft) NO 38 ° 0 min 0,000 mm 3,9 UV-I 591 W/m² 18,1 °C 25,7 °C 8,0 km/h (2 Bft)
02.08.2018 16:08 25,7 °C 65 % 1016,7 hPa 0,0 mm 3,3 km/h (1 Bft) N-NO 33 ° 0 min 0,000 mm 3,9 UV-I 584 W/m² 18,6 °C 25,7 °C 6,4 km/h (2 Bft)
02.08.2018 16:09 25,7 °C 64 % 1016,7 hPa 0,0 mm 5,8 km/h (2 Bft) NW 323 ° 0 min 0,000 mm 3,9 UV-I 584 W/m² 18,4 °C 25,7 °C 8,0 km/h (2 Bft)
02.08.2018 16:10 25,8 °C 65 % 1016,7 hPa 0,0 mm 6,8 km/h (2 Bft) N-NO 22 ° 0 min 0,000 mm 3,9 UV-I 575 W/m² 18,7 °C 25,8 °C 8,0 km/h (2 Bft)
02.08.2018 16:11 25,8 °C 65 % 1016,7 hPa 0,0 mm 7,5 km/h (2 Bft) N-NO 30 ° 0 min 0,000 mm 3,8 UV-I 476 W/m² 18,7 °C 25,8 °C 12,9 km/h (3 Bft)
02.08.2018 16:12 25,7 °C 63 % 1016,7 hPa 0,0 mm 4,0 km/h (1 Bft) NW 322 ° 0 min 0,000 mm 3,7 UV-I 476 W/m² 18,1 °C 25,7 °C 6,4 km/h (2 Bft)
02.08.2018 16:13 25,7 °C 65 % 1016,7 hPa 0,0 mm 2,6 km/h (1 Bft) N-NW 327 ° 0 min 0,000 mm 3,7 UV-I 399 W/m² 18,6 °C 25,7 °C 4,8 km/h (1 Bft)
02.08.2018 16:14 25,7 °C 63 % 1016,7 hPa 0,0 mm 1,3 km/h (1 Bft) N-NW 328 ° 0 min 0,000 mm 3,7 UV-I 459 W/m² 18,1 °C 25,7 °C 3,2 km/h (1 Bft)
02.08.2018 16:15 25,7 °C 66 % 1016,7 hPa 0,0 mm 2,7 km/h (1 Bft) N-NW 328 ° 0 min 0,000 mm 3,7 UV-I 522 W/m² 18,9 °C 25,7 °C 6,4 km/h (2 Bft)
02.08.2018 16:16 25,7 °C 66 % 1016,8 hPa 0,0 mm 3,7 km/h (1 Bft) NW 323 ° 0 min 0,000 mm 3,7 UV-I 578 W/m² 18,9 °C 25,7 °C 6,4 km/h (2 Bft)
02.08.2018 16:17 25,7 °C 64 % 1016,8 hPa 0,0 mm 0,6 km/h (0 Bft) NW 323 ° 0 min 0,000 mm 3,7 UV-I 570 W/m² 18,4 °C 25,7 °C 1,6 km/h (1 Bft)
02.08.2018 16:18 25,6 °C 64 % 1016,8 hPa 0,0 mm 1,3 km/h (1 Bft) NW 323 ° 0 min 0,000 mm 3,7 UV-I 508 W/m² 18,3 °C 25,6 °C 4,8 km/h (1 Bft)
02.08.2018 16:19 25,6 °C 64 % 1016,8 hPa 0,0 mm 2,1 km/h (1 Bft) NW 323 ° 0 min 0,000 mm 3,3 UV-I 508 W/m² 18,3 °C 25,6 °C 4,8 km/h (1 Bft)
02.08.2018 16:20 25,6 °C 65 % 1016,8 hPa 0,0 mm 0,3 km/h (0 Bft) NW 323 ° 0 min 0,000 mm 3,0 UV-I 508 W/m² 18,5 °C 25,6 °C 1,6 km/h (1 Bft)
02.08.2018 16:21 25,6 °C 65 % 1016,8 hPa 0,0 mm 3,8 km/h (1 Bft) W-NW 288 ° 0 min 0,000 mm 2,9 UV-I 156 W/m² 18,5 °C 25,6 °C 6,4 km/h (2 Bft)
02.08.2018 16:22 25,5 °C 65 % 1016,8 hPa 0,0 mm 5,5 km/h (1 Bft) NW 309 ° 0 min 0,000 mm 2,9 UV-I 153 W/m² 18,4 °C 25,5 °C 11,3 km/h (2 Bft)
02.08.2018 16:23 25,6 °C 63 % 1016,8 hPa 0,0 mm 5,2 km/h (1 Bft) NW 321 ° 0 min 0,000 mm 2,9 UV-I 151 W/m² 18,0 °C 25,6 °C 8,0 km/h (2 Bft)
02.08.2018 16:24 25,5 °C 63 % 1016,8 hPa 0,0 mm 1,1 km/h (1 Bft) N-NW 333 ° 0 min 0,000 mm 2,8 UV-I 151 W/m² 17,9 °C 25,5 °C 3,2 km/h (1 Bft)
02.08.2018 16:25 25,6 °C 63 % 1016,8 hPa 0,0 mm 4,0 km/h (1 Bft) N 349 ° 0 min 0,000 mm 2,8 UV-I 151 W/m² 18,0 °C 25,6 °C 6,4 km/h (2 Bft)
02.08.2018 16:26 25,7 °C 64 % 1016,8 hPa 0,0 mm 3,9 km/h (1 Bft) N-NO 13 ° 0 min 0,000 mm 2,8 UV-I 151 W/m² 18,4 °C 25,7 °C 6,4 km/h (2 Bft)
02.08.2018 16:27 25,7 °C 64 % 1016,8 hPa 0,0 mm 2,2 km/h (1 Bft) N 355 ° 0 min 0,000 mm 2,8 UV-I 156 W/m² 18,4 °C 25,7 °C 4,8 km/h (1 Bft)
02.08.2018 16:28 25,8 °C 66 % 1016,8 hPa 0,0 mm 4,2 km/h (1 Bft) NW 317 ° 0 min 0,000 mm 2,8 UV-I 162 W/m² 19,0 °C 25,8 °C 6,4 km/h (2 Bft)
02.08.2018 16:29 25,8 °C 66 % 1016,8 hPa 0,0 mm 3,0 km/h (1 Bft) NW 317 ° 0 min 0,000 mm 2,8 UV-I 169 W/m² 19,0 °C 25,8 °C 4,8 km/h (1 Bft)
02.08.2018 16:30 25,8 °C 66 % 1016,9 hPa 0,0 mm 2,5 km/h (1 Bft) W 271 ° 0 min 0,000 mm 2,8 UV-I 165 W/m² 19,0 °C 25,8 °C 6,4 km/h (2 Bft)
02.08.2018 16:31 25,8 °C 65 % 1016,8 hPa 0,0 mm 4,3 km/h (1 Bft) W 272 ° 0 min 0,000 mm 2,8 UV-I 165 W/m² 18,7 °C 25,8 °C 6,4 km/h (2 Bft)
02.08.2018 16:32 25,7 °C 65 % 1016,8 hPa 0,0 mm 6,3 km/h (2 Bft) W-NW 284 ° 0 min 0,000 mm 2,7 UV-I 171 W/m² 18,6 °C 25,7 °C 11,3 km/h (2 Bft)
02.08.2018 16:33 25,7 °C 65 % 1016,8 hPa 0,0 mm 9,2 km/h (2 Bft) W 262 ° 0 min 0,000 mm 2,7 UV-I 171 W/m² 18,6 °C 25,7 °C 12,9 km/h (3 Bft)
02.08.2018 16:34 25,6 °C 65 % 1016,8 hPa 0,0 mm 5,0 km/h (1 Bft) W 281 ° 0 min 0,000 mm 2,7 UV-I 169 W/m² 18,5 °C 25,6 °C 6,4 km/h (2 Bft)
02.08.2018 16:35 25,6 °C 65 % 1016,8 hPa 0,0 mm 6,8 km/h (2 Bft) W 273 ° 0 min 0,000 mm 2,7 UV-I 171 W/m² 18,5 °C 25,6 °C 11,3 km/h (2 Bft)
02.08.2018 16:36 25,6 °C 64 % 1016,8 hPa 0,0 mm 5,0 km/h (1 Bft) W-NW 287 ° 0 min 0,000 mm 2,7 UV-I 174 W/m² 18,3 °C 25,6 °C 8,0 km/h (2 Bft)
02.08.2018 16:37 25,7 °C 65 % 1016,9 hPa 0,0 mm 5,8 km/h (2 Bft) NW 306 ° 0 min 0,000 mm 2,6 UV-I 179 W/m² 18,6 °C 25,7 °C 8,0 km/h (2 Bft)
02.08.2018 16:38 25,7 °C 66 % 1016,8 hPa 0,0 mm 3,1 km/h (1 Bft) W-NW 288 ° 0 min 0,000 mm 2,6 UV-I 185 W/m² 18,9 °C 25,7 °C 6,4 km/h (2 Bft)
02.08.2018 16:39 25,7 °C 65 % 1016,9 hPa 0,0 mm 5,4 km/h (1 Bft) W 277 ° 0 min 0,000 mm 2,6 UV-I 188 W/m² 18,6 °C 25,7 °C 9,7 km/h (2 Bft)
02.08.2018 16:40 25,7 °C 65 % 1016,9 hPa 0,0 mm 2,7 km/h (1 Bft) W 277 ° 0 min 0,000 mm 2,6 UV-I 192 W/m² 18,6 °C 25,7 °C 4,8 km/h (1 Bft)
02.08.2018 16:41 25,7 °C 66 % 1016,8 hPa 0,0 mm 4,7 km/h (1 Bft) W-SW 254 ° 0 min 0,000 mm 2,6 UV-I 190 W/m² 18,9 °C 25,7 °C 8,0 km/h (2 Bft)
02.08.2018 16:42 25,7 °C 64 % 1016,8 hPa 0,0 mm 4,8 km/h (1 Bft) W-SW 247 ° 0 min 0,000 mm 2,5 UV-I 195 W/m² 18,4 °C 25,7 °C 8,0 km/h (2 Bft)
02.08.2018 16:43 25,7 °C 66 % 1016,8 hPa 0,0 mm 4,7 km/h (1 Bft) W-SW 257 ° 0 min 0,000 mm 2,5 UV-I 200 W/m² 18,9 °C 25,7 °C 8,0 km/h (2 Bft)
02.08.2018 16:44 25,7 °C 66 % 1016,8 hPa 0,0 mm 1,3 km/h (1 Bft) W-SW 257 ° 0 min 0,000 mm 2,5 UV-I 207 W/m² 18,9 °C 25,7 °C 3,2 km/h (1 Bft)
02.08.2018 16:45 25,7 °C 67 % 1016,8 hPa 0,0 mm 2,3 km/h (1 Bft) NW 314 ° 0 min 0,000 mm 2,5 UV-I 200 W/m² 19,1 °C 25,7 °C 6,4 km/h (2 Bft)
02.08.2018 16:46 25,8 °C 67 % 1016,8 hPa 0,0 mm 3,8 km/h (1 Bft) NW 321 ° 0 min 0,000 mm 2,5 UV-I 199 W/m² 19,2 °C 25,8 °C 6,4 km/h (2 Bft)
02.08.2018 16:47 25,8 °C 66 % 1016,8 hPa 0,0 mm 3,3 km/h (1 Bft) NW 311 ° 0 min 0,000 mm 2,4 UV-I 199 W/m² 19,0 °C 25,8 °C 6,4 km/h (2 Bft)
02.08.2018 16:48 25,8 °C 66 % 1016,8 hPa 0,0 mm 0,8 km/h (0 Bft) NW 311 ° 0 min 0,000 mm 2,4 UV-I 195 W/m² 19,0 °C 25,8 °C 1,6 km/h (1 Bft)
02.08.2018 16:49 25,8 °C 65 % 1016,8 hPa 0,0 mm 2,1 km/h (1 Bft) W 265 ° 0 min 0,000 mm 2,3 UV-I 192 W/m² 18,7 °C 25,8 °C 4,8 km/h (1 Bft)
02.08.2018 16:50 25,7 °C 64 % 1016,8 hPa 0,0 mm 4,0 km/h (1 Bft) W 265 ° 0 min 0,000 mm 2,3 UV-I 186 W/m² 18,4 °C 25,7 °C 6,4 km/h (2 Bft)
02.08.2018 16:51 25,7 °C 67 % 1016,9 hPa 0,0 mm 3,6 km/h (1 Bft) W 265 ° 0 min 0,000 mm 2,2 UV-I 179 W/m² 19,1 °C 25,7 °C 4,8 km/h (1 Bft)
02.08.2018 16:52 25,7 °C 66 % 1016,8 hPa 0,0 mm 1,7 km/h (1 Bft) W 265 ° 0 min 0,000 mm 2,2 UV-I 176 W/m² 18,9 °C 25,7 °C 3,2 km/h (1 Bft)
02.08.2018 16:53 25,7 °C 66 % 1016,9 hPa 0,0 mm 3,1 km/h (1 Bft) N-NW 327 ° 0 min 0,000 mm 2,2 UV-I 176 W/m² 18,9 °C 25,7 °C 6,4 km/h (2 Bft)
02.08.2018 16:54 25,8 °C 66 % 1016,9 hPa 0,0 mm 5,3 km/h (1 Bft) N-NW 344 ° 0 min 0,000 mm 2,2 UV-I 174 W/m² 19,0 °C 25,8 °C 8,0 km/h (2 Bft)
02.08.2018 16:55 25,8 °C 66 % 1016,8 hPa 0,0 mm 5,7 km/h (1 Bft) N 355 ° 0 min 0,000 mm 2,2 UV-I 178 W/m² 19,0 °C 25,8 °C 9,7 km/h (2 Bft)
02.08.2018 16:56 25,8 °C 66 % 1016,9 hPa 0,0 mm 5,8 km/h (2 Bft) NW 321 ° 0 min 0,000 mm 2,3 UV-I 179 W/m² 19,0 °C 25,8 °C 9,7 km/h (2 Bft)
02.08.2018 16:57 25,8 °C 65 % 1016,9 hPa 0,0 mm 7,3 km/h (2 Bft) NW 321 ° 0 min 0,000 mm 2,3 UV-I 179 W/m² 18,7 °C 25,8 °C 11,3 km/h (2 Bft)
02.08.2018 16:58 25,8 °C 64 % 1016,9 hPa 0,0 mm 4,5 km/h (1 Bft) N-NW 342 ° 0 min 0,000 mm 2,3 UV-I 176 W/m² 18,5 °C 25,8 °C 8,0 km/h (2 Bft)
02.08.2018 16:59 25,7 °C 64 % 1016,9 hPa 0,0 mm 4,2 km/h (1 Bft) N 355 ° 0 min 0,000 mm 2,3 UV-I 176 W/m² 18,4 °C 25,7 °C 8,0 km/h (2 Bft)
02.08.2018 17:00 25,8 °C 66 % 1016,9 hPa 0,0 mm 6,1 km/h (2 Bft) NW 314 ° 0 min 0,000 mm 2,3 UV-I 176 W/m² 19,0 °C 25,8 °C 11,3 km/h (2 Bft)
02.08.2018 17:01 25,8 °C 64 % 1016,9 hPa 0,0 mm 5,3 km/h (1 Bft) NW 317 ° 0 min 0,203 mm 2,3 UV-I 176 W/m² 18,5 °C 25,8 °C 11,3 km/h (2 Bft)
02.08.2018 17:02 25,8 °C 66 % 1016,9 hPa 0,0 mm 6,5 km/h (2 Bft) NO 35 ° 0 min 0,000 mm 2,3 UV-I 179 W/m² 19,0 °C 25,8 °C 8,0 km/h (2 Bft)
02.08.2018 17:03 25,8 °C 65 % 1017,0 hPa 0,0 mm 4,7 km/h (1 Bft) NW 316 ° 0 min 0,000 mm 2,3 UV-I 186 W/m² 18,7 °C 25,8 °C 8,0 km/h (2 Bft)
02.08.2018 17:04 25,9 °C 66 % 1016,9 hPa 0,0 mm 8,5 km/h (2 Bft) N-NW 340 ° 0 min 0,000 mm 2,3 UV-I 207 W/m² 19,0 °C 25,9 °C 12,9 km/h (3 Bft)
02.08.2018 17:05 25,9 °C 66 % 1017,0 hPa 0,0 mm 5,7 km/h (1 Bft) N 350 ° 0 min 0,000 mm 2,3 UV-I 213 W/m² 19,0 °C 25,9 °C 6,4 km/h (2 Bft)
02.08.2018 17:06 25,9 °C 65 % 1017,0 hPa 0,0 mm 1,9 km/h (1 Bft) N 350 ° 0 min 0,000 mm 2,3 UV-I 213 W/m² 18,8 °C 25,9 °C 4,8 km/h (1 Bft)
02.08.2018 17:07 26,0 °C 65 % 1016,9 hPa 0,0 mm 4,5 km/h (1 Bft) N-NW 342 ° 0 min 0,000 mm 2,2 UV-I 213 W/m² 18,9 °C 26,0 °C 6,4 km/h (2 Bft)
02.08.2018 17:08 26,0 °C 64 % 1016,9 hPa 0,0 mm 4,4 km/h (1 Bft) W-NW 286 ° 0 min 0,000 mm 2,2 UV-I 220 W/m² 18,6 °C 26,0 °C 6,4 km/h (2 Bft)
02.08.2018 17:09 25,9 °C 64 % 1016,9 hPa 0,0 mm 2,7 km/h (1 Bft) W-NW 282 ° 0 min 0,000 mm 2,2 UV-I 218 W/m² 18,6 °C 25,9 °C 4,8 km/h (1 Bft)
02.08.2018 17:10 25,9 °C 64 % 1016,9 hPa 0,0 mm 3,8 km/h (1 Bft) W-NW 298 ° 0 min 0,000 mm 2,2 UV-I 221 W/m² 18,6 °C 25,9 °C 4,8 km/h (1 Bft)
02.08.2018 17:11 25,9 °C 66 % 1016,9 hPa 0,0 mm 3,6 km/h (1 Bft) W-NW 294 ° 0 min 0,000 mm 2,2 UV-I 221 W/m² 19,0 °C 25,9 °C 4,8 km/h (1 Bft)
02.08.2018 17:12 25,8 °C 63 % 1016,9 hPa 0,0 mm 0,7 km/h (0 Bft) NW 313 ° 0 min 0,000 mm 2,2 UV-I 223 W/m² 18,2 °C 25,8 °C 4,8 km/h (1 Bft)
02.08.2018 17:13 25,9 °C 65 % 1016,9 hPa 0,0 mm 3,0 km/h (1 Bft) N-NW 332 ° 0 min 0,000 mm 2,2 UV-I 227 W/m² 18,8 °C 25,9 °C 4,8 km/h (1 Bft)
02.08.2018 17:14 25,9 °C 67 % 1016,9 hPa 0,0 mm 6,1 km/h (2 Bft) NW 321 ° 0 min 0,000 mm 2,1 UV-I 227 W/m² 19,3 °C 25,9 °C 9,7 km/h (2 Bft)
02.08.2018 17:15 26,1 °C 64 % 1016,9 hPa 0,0 mm 3,7 km/h (1 Bft) NW 323 ° 0 min 0,000 mm 2,1 UV-I 225 W/m² 18,7 °C 26,1 °C 8,0 km/h (2 Bft)
02.08.2018 17:16 26,1 °C 65 % 1016,9 hPa 0,0 mm 4,2 km/h (1 Bft) NW 321 ° 0 min 0,000 mm 2,0 UV-I 223 W/m² 19,0 °C 26,1 °C 6,4 km/h (2 Bft)
02.08.2018 17:17 26,1 °C 64 % 1017,0 hPa 0,0 mm 3,4 km/h (1 Bft) N-NO 17 ° 0 min 0,000 mm 2,0 UV-I 218 W/m² 18,7 °C 26,1 °C 6,4 km/h (2 Bft)
02.08.2018 17:18 26,2 °C 65 % 1016,9 hPa 0,0 mm 4,4 km/h (1 Bft) NW 313 ° 0 min 0,000 mm 2,0 UV-I 216 W/m² 19,1 °C 26,2 °C 6,4 km/h (2 Bft)
02.08.2018 17:19 26,3 °C 64 % 1017,0 hPa 0,0 mm 3,0 km/h (1 Bft) NW 311 ° 0 min 0,000 mm 2,0 UV-I 218 W/m² 18,9 °C 26,3 °C 4,8 km/h (1 Bft)
02.08.2018 17:20 26,3 °C 64 % 1016,9 hPa 0,0 mm 3,0 km/h (1 Bft) NW 312 ° 0 min 0,000 mm 2,0 UV-I 213 W/m² 18,9 °C 26,3 °C 4,8 km/h (1 Bft)
02.08.2018 17:21 26,3 °C 65 % 1016,9 hPa 0,0 mm 4,1 km/h (1 Bft) NO 45 ° 0 min 0,000 mm 2,0 UV-I 207 W/m² 19,2 °C 26,3 °C 9,7 km/h (2 Bft)
02.08.2018 17:22 26,3 °C 63 % 1016,9 hPa 0,0 mm 6,3 km/h (2 Bft) N 5 ° 0 min 0,000 mm 1,9 UV-I 200 W/m² 18,7 °C 26,3 °C 9,7 km/h (2 Bft)
02.08.2018 17:23 26,2 °C 64 % 1016,9 hPa 0,0 mm 4,8 km/h (1 Bft) O-NO 58 ° 0 min 0,000 mm 1,9 UV-I 192 W/m² 18,8 °C 26,2 °C 8,0 km/h (2 Bft)
02.08.2018 17:24 26,2 °C 65 % 1016,9 hPa 0,0 mm 3,8 km/h (1 Bft) N 11 ° 0 min 0,000 mm 1,8 UV-I 179 W/m² 19,1 °C 26,2 °C 6,4 km/h (2 Bft)
02.08.2018 17:25 26,2 °C 64 % 1017,0 hPa 0,0 mm 7,7 km/h (2 Bft) N 5 ° 0 min 0,000 mm 1,8 UV-I 167 W/m² 18,8 °C 26,2 °C 11,3 km/h (2 Bft)
02.08.2018 17:26 26,2 °C 63 % 1017,0 hPa 0,0 mm 4,3 km/h (1 Bft) N-NW 335 ° 0 min 0,000 mm 1,8 UV-I 153 W/m² 18,6 °C 26,2 °C 8,0 km/h (2 Bft)
02.08.2018 17:27 26,1 °C 63 % 1016,9 hPa 0,0 mm 2,0 km/h (1 Bft) N-NW 335 ° 0 min 0,000 mm 1,7 UV-I 153 W/m² 18,5 °C 26,1 °C 4,8 km/h (1 Bft)
02.08.2018 17:28 25,9 °C 64 % 1017,0 hPa 0,0 mm 0,8 km/h (0 Bft) N-NW 335 ° 0 min 0,000 mm 1,7 UV-I 139 W/m² 18,6 °C 25,9 °C 3,2 km/h (1 Bft)
02.08.2018 17:29 25,9 °C 65 % 1016,9 hPa 0,0 mm 0,7 km/h (0 Bft) N 360 ° 0 min 0,000 mm 1,7 UV-I 141 W/m² 18,8 °C 25,9 °C 3,2 km/h (1 Bft)
02.08.2018 17:30 26,0 °C 65 % 1016,9 hPa 0,0 mm 3,4 km/h (1 Bft) N-NO 22 ° 0 min 0,000 mm 1,7 UV-I 148 W/m² 18,9 °C 26,0 °C 8,0 km/h (2 Bft)
02.08.2018 17:31 26,0 °C 64 % 1016,9 hPa 0,0 mm 4,0 km/h (1 Bft) O-NO 59 ° 0 min 0,000 mm 1,7 UV-I 149 W/m² 18,6 °C 26,0 °C 6,4 km/h (2 Bft)
02.08.2018 17:32 25,9 °C 64 % 1017,0 hPa 0,0 mm 2,3 km/h (1 Bft) O-NO 59 ° 0 min 0,000 mm 1,8 UV-I 146 W/m² 18,6 °C 25,9 °C 4,8 km/h (1 Bft)
02.08.2018 17:33 25,8 °C 63 % 1017,0 hPa 0,0 mm 1,2 km/h (1 Bft) NO 53 ° 0 min 0,000 mm 1,8 UV-I 148 W/m² 18,2 °C 25,8 °C 3,2 km/h (1 Bft)
02.08.2018 17:34 25,8 °C 65 % 1017,0 hPa 0,0 mm 5,4 km/h (1 Bft) N-NW 347 ° 0 min 0,000 mm 1,8 UV-I 148 W/m² 18,7 °C 25,8 °C 8,0 km/h (2 Bft)
02.08.2018 17:35 25,8 °C 64 % 1017,0 hPa 0,0 mm 5,3 km/h (1 Bft) N-NW 333 ° 0 min 0,000 mm 1,8 UV-I 142 W/m² 18,5 °C 25,8 °C 8,0 km/h (2 Bft)
02.08.2018 17:36 25,7 °C 65 % 1017,0 hPa 0,0 mm 4,1 km/h (1 Bft) N-NW 348 ° 0 min 0,000 mm 1,8 UV-I 141 W/m² 18,6 °C 25,7 °C 6,4 km/h (2 Bft)
02.08.2018 17:37 25,7 °C 66 % 1017,0 hPa 0,0 mm 3,2 km/h (1 Bft) N 350 ° 0 min 0,000 mm 1,8 UV-I 135 W/m² 18,9 °C 25,7 °C 4,8 km/h (1 Bft)
02.08.2018 17:38 25,7 °C 67 % 1016,9 hPa 0,0 mm 6,4 km/h (2 Bft) N 355 ° 0 min 0,000 mm 1,7 UV-I 134 W/m² 19,1 °C 25,7 °C 9,7 km/h (2 Bft)
02.08.2018 17:39 25,7 °C 65 % 1016,9 hPa 0,0 mm 5,4 km/h (1 Bft) N-NW 334 ° 0 min 0,000 mm 1,7 UV-I 130 W/m² 18,6 °C 25,7 °C 8,0 km/h (2 Bft)
02.08.2018 17:40 25,6 °C 65 % 1016,9 hPa 0,0 mm 6,5 km/h (2 Bft) N-NW 348 ° 0 min 0,000 mm 1,7 UV-I 130 W/m² 18,5 °C 25,6 °C 9,7 km/h (2 Bft)
02.08.2018 17:41 25,6 °C 65 % 1016,9 hPa 0,0 mm 6,6 km/h (2 Bft) N 9 ° 0 min 0,000 mm 1,7 UV-I 130 W/m² 18,5 °C 25,6 °C 9,7 km/h (2 Bft)
02.08.2018 17:42 25,6 °C 65 % 1016,9 hPa 0,0 mm 4,0 km/h (1 Bft) NW 306 ° 0 min 0,000 mm 1,6 UV-I 127 W/m² 18,5 °C 25,6 °C 6,4 km/h (2 Bft)
02.08.2018 17:43 25,5 °C 65 % 1016,9 hPa 0,0 mm 8,7 km/h (2 Bft) N-NW 334 ° 0 min 0,000 mm 1,6 UV-I 121 W/m² 18,4 °C 25,5 °C 12,9 km/h (3 Bft)
02.08.2018 17:44 25,5 °C 66 % 1016,9 hPa 0,0 mm 4,3 km/h (1 Bft) N-NW 338 ° 0 min 0,000 mm 1,6 UV-I 114 W/m² 18,7 °C 25,5 °C 8,0 km/h (2 Bft)
02.08.2018 17:45 25,6 °C 66 % 1016,9 hPa 0,0 mm 6,1 km/h (2 Bft) N-NO 12 ° 0 min 0,000 mm 1,5 UV-I 105 W/m² 18,8 °C 25,6 °C 8,0 km/h (2 Bft)
02.08.2018 17:46 25,6 °C 65 % 1016,8 hPa 0,0 mm 4,2 km/h (1 Bft) N-NW 344 ° 0 min 0,000 mm 1,5 UV-I 102 W/m² 18,5 °C 25,6 °C 6,4 km/h (2 Bft)
02.08.2018 17:47 25,6 °C 65 % 1016,8 hPa 0,0 mm 3,7 km/h (1 Bft) N 350 ° 0 min 0,000 mm 1,5 UV-I 97 W/m² 18,5 °C 25,6 °C 4,8 km/h (1 Bft)
02.08.2018 17:48 25,6 °C 65 % 1016,8 hPa 0,0 mm 3,0 km/h (1 Bft) NW 317 ° 0 min 0,000 mm 1,5 UV-I 95 W/m² 18,5 °C 25,6 °C 4,8 km/h (1 Bft)
02.08.2018 17:49 25,6 °C 65 % 1016,8 hPa 0,0 mm 1,5 km/h (1 Bft) NW 317 ° 0 min 0,000 mm 1,5 UV-I 95 W/m² 18,5 °C 25,6 °C 3,2 km/h (1 Bft)
02.08.2018 17:50 25,6 °C 66 % 1016,8 hPa 0,0 mm 2,4 km/h (1 Bft) NW 317 ° 0 min 0,000 mm 1,5 UV-I 95 W/m² 18,8 °C 25,6 °C 3,2 km/h (1 Bft)
02.08.2018 17:51 25,5 °C 66 % 1016,7 hPa 0,0 mm 3,6 km/h (1 Bft) NW 317 ° 0 min 0,000 mm 1,5 UV-I 93 W/m² 18,7 °C 25,5 °C 4,8 km/h (1 Bft)
02.08.2018 17:52 25,5 °C 67 % 1016,8 hPa 0,0 mm 2,0 km/h (1 Bft) NW 317 ° 0 min 0,000 mm 1,5 UV-I 95 W/m² 18,9 °C 25,5 °C 3,2 km/h (1 Bft)
02.08.2018 17:53 25,5 °C 67 % 1016,8 hPa 0,0 mm 0,4 km/h (0 Bft) NW 317 ° 0 min 0,000 mm 1,5 UV-I 95 W/m² 18,9 °C 25,5 °C 1,6 km/h (1 Bft)
02.08.2018 17:54 25,5 °C 67 % 1016,8 hPa 0,0 mm 0,2 km/h (0 Bft) NW 321 ° 0 min 0,000 mm 1,5 UV-I 93 W/m² 18,9 °C 25,5 °C 3,2 km/h (1 Bft)
02.08.2018 17:55 25,6 °C 68 % 1016,8 hPa 0,0 mm 3,3 km/h (1 Bft) N-NO 29 ° 0 min 0,000 mm 1,5 UV-I 95 W/m² 19,2 °C 25,6 °C 6,4 km/h (2 Bft)
02.08.2018 17:56 25,6 °C 67 % 1016,8 hPa 0,0 mm 5,0 km/h (1 Bft) N-NW 329 ° 0 min 0,000 mm 1,5 UV-I 97 W/m² 19,0 °C 25,6 °C 8,0 km/h (2 Bft)
02.08.2018 17:57 25,6 °C 68 % 1016,8 hPa 0,0 mm 6,4 km/h (2 Bft) N-NO 28 ° 0 min 0,000 mm 1,5 UV-I 95 W/m² 19,2 °C 25,6 °C 8,0 km/h (2 Bft)
02.08.2018 17:58 25,6 °C 68 % 1016,8 hPa 0,0 mm 4,4 km/h (1 Bft) N 5 ° 0 min 0,000 mm 1,4 UV-I 91 W/m² 19,2 °C 25,6 °C 6,4 km/h (2 Bft)
02.08.2018 17:59 25,6 °C 68 % 1016,8 hPa 0,0 mm 4,6 km/h (1 Bft) N-NO 28 ° 0 min 0,000 mm 1,5 UV-I 93 W/m² 19,2 °C 25,6 °C 6,4 km/h (2 Bft)
02.08.2018 18:00 25,6 °C 68 % 1016,8 hPa 0,0 mm 3,1 km/h (1 Bft) O-NO 74 ° 0 min 0,000 mm 1,5 UV-I 98 W/m² 19,2 °C 25,6 °C 4,8 km/h (1 Bft)
02.08.2018 18:01 25,6 °C 69 % 1016,9 hPa 0,0 mm 3,4 km/h (1 Bft) N-NO 32 ° 0 min 0,127 mm 1,5 UV-I 104 W/m² 19,5 °C 25,6 °C 8,0 km/h (2 Bft)
02.08.2018 18:02 25,6 °C 69 % 1016,9 hPa 0,0 mm 4,8 km/h (1 Bft) N 11 ° 0 min 0,000 mm 1,4 UV-I 102 W/m² 19,5 °C 25,6 °C 8,0 km/h (2 Bft)
02.08.2018 18:03 25,6 °C 68 % 1016,9 hPa 0,0 mm 5,4 km/h (1 Bft) N-NW 348 ° 0 min 0,000 mm 1,4 UV-I 102 W/m² 19,2 °C 25,6 °C 6,4 km/h (2 Bft)
02.08.2018 18:04 25,6 °C 68 % 1016,9 hPa 0,0 mm 5,5 km/h (1 Bft) NO 40 ° 0 min 0,000 mm 1,4 UV-I 102 W/m² 19,2 °C 25,6 °C 8,0 km/h (2 Bft)
02.08.2018 18:05 25,6 °C 69 % 1016,9 hPa 0,0 mm 2,8 km/h (1 Bft) O-NO 63 ° 0 min 0,000 mm 1,4 UV-I 98 W/m² 19,5 °C 25,6 °C 4,8 km/h (1 Bft)
02.08.2018 18:06 25,6 °C 68 % 1016,9 hPa 0,0 mm 2,9 km/h (1 Bft) O-NO 69 ° 0 min 0,000 mm 1,4 UV-I 95 W/m² 19,2 °C 25,6 °C 8,0 km/h (2 Bft)
02.08.2018 18:07 25,6 °C 67 % 1016,9 hPa 0,0 mm 6,8 km/h (2 Bft) N 9 ° 0 min 0,000 mm 1,4 UV-I 95 W/m² 19,0 °C 25,6 °C 11,3 km/h (2 Bft)
02.08.2018 18:08 25,5 °C 68 % 1016,9 hPa 0,0 mm 4,4 km/h (1 Bft) NO 55 ° 0 min 0,000 mm 1,4 UV-I 93 W/m² 19,1 °C 25,5 °C 6,4 km/h (2 Bft)
02.08.2018 18:09 25,6 °C 67 % 1016,8 hPa 0,0 mm 6,8 km/h (2 Bft) NO 45 ° 0 min 0,000 mm 1,4 UV-I 93 W/m² 19,0 °C 25,6 °C 9,7 km/h (2 Bft)
02.08.2018 18:10 25,6 °C 67 % 1016,8 hPa 0,0 mm 5,3 km/h (1 Bft) O-NO 67 ° 0 min 0,000 mm 1,3 UV-I 91 W/m² 19,0 °C 25,6 °C 9,7 km/h (2 Bft)
02.08.2018 18:11 25,6 °C 68 % 1016,8 hPa 0,0 mm 3,1 km/h (1 Bft) NO 50 ° 0 min 0,000 mm 1,3 UV-I 90 W/m² 19,2 °C 25,6 °C 4,8 km/h (1 Bft)
02.08.2018 18:12 25,6 °C 68 % 1016,8 hPa 0,0 mm 1,4 km/h (1 Bft) NO 50 ° 0 min 0,000 mm 1,3 UV-I 90 W/m² 19,2 °C 25,6 °C 6,4 km/h (2 Bft)
02.08.2018 18:13 25,5 °C 66 % 1016,8 hPa 0,0 mm 3,0 km/h (1 Bft) NO 46 ° 0 min 0,000 mm 1,3 UV-I 88 W/m² 18,7 °C 25,5 °C 6,4 km/h (2 Bft)
02.08.2018 18:14 25,5 °C 67 % 1016,7 hPa 0,0 mm 0,5 km/h (0 Bft) NO 46 ° 0 min 0,000 mm 1,3 UV-I 86 W/m² 18,9 °C 25,5 °C 3,2 km/h (1 Bft)
02.08.2018 18:15 25,5 °C 67 % 1016,7 hPa 0,0 mm 1,9 km/h (1 Bft) O-NO 59 ° 0 min 0,000 mm 1,3 UV-I 84 W/m² 18,9 °C 25,5 °C 4,8 km/h (1 Bft)
02.08.2018 18:16 25,5 °C 66 % 1016,7 hPa 0,0 mm 3,0 km/h (1 Bft) O-NO 59 ° 0 min 0,000 mm 1,3 UV-I 84 W/m² 18,7 °C 25,5 °C 4,8 km/h (1 Bft)
02.08.2018 18:17 25,5 °C 66 % 1016,7 hPa 0,0 mm 2,7 km/h (1 Bft) O-NO 59 ° 0 min 0,000 mm 1,3 UV-I 84 W/m² 18,7 °C 25,5 °C 6,4 km/h (2 Bft)
02.08.2018 18:18 25,4 °C 66 % 1016,7 hPa 0,0 mm 4,2 km/h (1 Bft) O-NO 59 ° 0 min 0,000 mm 1,3 UV-I 84 W/m² 18,6 °C 25,4 °C 6,4 km/h (2 Bft)
02.08.2018 18:19 25,4 °C 67 % 1016,8 hPa 0,0 mm 1,9 km/h (1 Bft) O-NO 61 ° 0 min 0,000 mm 1,3 UV-I 83 W/m² 18,8 °C 25,4 °C 3,2 km/h (1 Bft)
02.08.2018 18:20 25,4 °C 66 % 1016,8 hPa 0,0 mm 1,6 km/h (1 Bft) O-NO 61 ° 0 min 0,000 mm 1,3 UV-I 83 W/m² 18,6 °C 25,4 °C 3,2 km/h (1 Bft)
02.08.2018 18:21 25,4 °C 66 % 1016,8 hPa 0,0 mm 0,5 km/h (0 Bft) O-NO 61 ° 0 min 0,000 mm 1,2 UV-I 83 W/m² 18,6 °C 25,4 °C 1,6 km/h (1 Bft)
02.08.2018 18:22 25,3 °C 67 % 1016,8 hPa 0,0 mm 1,9 km/h (1 Bft) O 88 ° 0 min 0,000 mm 1,2 UV-I 83 W/m² 18,7 °C 25,3 °C 4,8 km/h (1 Bft)
02.08.2018 18:23 25,3 °C 67 % 1016,8 hPa 0,0 mm 1,0 km/h (0 Bft) O 88 ° 0 min 0,000 mm 1,2 UV-I 83 W/m² 18,7 °C 25,3 °C 3,2 km/h (1 Bft)
02.08.2018 18:24 25,3 °C 67 % 1016,8 hPa 0,0 mm 0,7 km/h (0 Bft) O 88 ° 0 min 0,000 mm 1,2 UV-I 81 W/m² 18,7 °C 25,3 °C 3,2 km/h (1 Bft)
02.08.2018 18:25 25,3 °C 68 % 1016,8 hPa 0,0 mm 3,1 km/h (1 Bft) O 88 ° 0 min 0,000 mm 1,2 UV-I 81 W/m² 19,0 °C 25,3 °C 4,8 km/h (1 Bft)
02.08.2018 18:26 25,3 °C 68 % 1016,8 hPa 0,0 mm 3,3 km/h (1 Bft) O 88 ° 0 min 0,000 mm 1,2 UV-I 81 W/m² 19,0 °C 25,3 °C 4,8 km/h (1 Bft)
02.08.2018 18:27 25,3 °C 69 % 1016,9 hPa 0,0 mm 1,7 km/h (1 Bft) O 88 ° 0 min 0,000 mm 1,2 UV-I 81 W/m² 19,2 °C 25,3 °C 3,2 km/h (1 Bft)
02.08.2018 18:28 25,3 °C 67 % 1016,8 hPa 0,0 mm 2,3 km/h (1 Bft) O 88 ° 0 min 0,000 mm 1,2 UV-I 81 W/m² 18,7 °C 25,3 °C 4,8 km/h (1 Bft)
02.08.2018 18:29 25,3 °C 68 % 1016,9 hPa 0,0 mm 0,8 km/h (0 Bft) O 88 ° 0 min 0,000 mm 1,2 UV-I 81 W/m² 19,0 °C 25,3 °C 1,6 km/h (1 Bft)
02.08.2018 18:30 25,3 °C 67 % 1016,9 hPa 0,0 mm 0,1 km/h (0 Bft) O 88 ° 0 min 0,000 mm 1,2 UV-I 81 W/m² 18,7 °C 25,3 °C 1,6 km/h (1 Bft)
02.08.2018 18:31 25,3 °C 69 % 1016,9 hPa 0,0 mm 1,6 km/h (1 Bft) O 86 ° 0 min 0,000 mm 1,2 UV-I 81 W/m² 19,2 °C 25,3 °C 3,2 km/h (1 Bft)
02.08.2018 18:32 25,4 °C 69 % 1016,9 hPa 0,0 mm 2,5 km/h (1 Bft) N-NW 337 ° 0 min 0,000 mm 1,1 UV-I 81 W/m² 19,3 °C 25,4 °C 4,8 km/h (1 Bft)
02.08.2018 18:33 25,4 °C 66 % 1017,0 hPa 0,0 mm 3,6 km/h (1 Bft) N 5 ° 0 min 0,000 mm 1,1 UV-I 81 W/m² 18,6 °C 25,4 °C 4,8 km/h (1 Bft)
02.08.2018 18:34 25,5 °C 65 % 1017,0 hPa 0,0 mm 5,5 km/h (1 Bft) N 9 ° 0 min 0,000 mm 1,1 UV-I 81 W/m² 18,4 °C 25,5 °C 8,0 km/h (2 Bft)
02.08.2018 18:35 25,6 °C 66 % 1017,0 hPa 0,0 mm 4,6 km/h (1 Bft) N-NO 13 ° 0 min 0,000 mm 1,1 UV-I 81 W/m² 18,8 °C 25,6 °C 6,4 km/h (2 Bft)
02.08.2018 18:36 25,6 °C 65 % 1017,0 hPa 0,0 mm 2,5 km/h (1 Bft) N-NO 13 ° 0 min 0,000 mm 1,1 UV-I 81 W/m² 18,5 °C 25,6 °C 4,8 km/h (1 Bft)
02.08.2018 18:37 25,7 °C 65 % 1017,0 hPa 0,0 mm 2,2 km/h (1 Bft) N 360 ° 0 min 0,000 mm 1,1 UV-I 81 W/m² 18,6 °C 25,7 °C 4,8 km/h (1 Bft)
02.08.2018 18:38 25,7 °C 66 % 1016,9 hPa 0,0 mm 3,8 km/h (1 Bft) N-NO 16 ° 0 min 0,000 mm 1,1 UV-I 79 W/m² 18,9 °C 25,7 °C 6,4 km/h (2 Bft)
02.08.2018 18:39 25,8 °C 65 % 1017,0 hPa 0,0 mm 1,0 km/h (0 Bft) O 80 ° 0 min 0,000 mm 1,1 UV-I 79 W/m² 18,7 °C 25,8 °C 4,8 km/h (1 Bft)
02.08.2018 18:40 25,8 °C 66 % 1016,9 hPa 0,0 mm 8,3 km/h (2 Bft) O 80 ° 0 min 0,000 mm 1,1 UV-I 79 W/m² 19,0 °C 25,8 °C 11,3 km/h (2 Bft)
02.08.2018 18:41 25,8 °C 65 % 1017,0 hPa 0,0 mm 3,7 km/h (1 Bft) O-NO 78 ° 0 min 0,000 mm 1,0 UV-I 81 W/m² 18,7 °C 25,8 °C 4,8 km/h (1 Bft)
02.08.2018 18:42 25,7 °C 65 % 1016,9 hPa 0,0 mm 3,1 km/h (1 Bft) NO 36 ° 0 min 0,000 mm 1,0 UV-I 81 W/m² 18,6 °C 25,7 °C 6,4 km/h (2 Bft)
02.08.2018 18:43 25,7 °C 66 % 1016,9 hPa 0,0 mm 4,1 km/h (1 Bft) NO 40 ° 0 min 0,000 mm 1,0 UV-I 81 W/m² 18,9 °C 25,7 °C 6,4 km/h (2 Bft)
02.08.2018 18:44 25,6 °C 64 % 1016,9 hPa 0,0 mm 2,7 km/h (1 Bft) NO 41 ° 0 min 0,000 mm 1,0 UV-I 79 W/m² 18,3 °C 25,6 °C 6,4 km/h (2 Bft)
02.08.2018 18:45 25,7 °C 65 % 1016,8 hPa 0,0 mm 2,7 km/h (1 Bft) NO 47 ° 0 min 0,000 mm 1,0 UV-I 79 W/m² 18,6 °C 25,7 °C 4,8 km/h (1 Bft)
02.08.2018 18:46 25,7 °C 64 % 1016,9 hPa 0,0 mm 0,8 km/h (0 Bft) O-SO 114 ° 0 min 0,000 mm 1,0 UV-I 79 W/m² 18,4 °C 25,7 °C 3,2 km/h (1 Bft)
02.08.2018 18:47 25,7 °C 65 % 1016,9 hPa 0,0 mm 4,3 km/h (1 Bft) NO 44 ° 0 min 0,000 mm 1,0 UV-I 77 W/m² 18,6 °C 25,7 °C 6,4 km/h (2 Bft)
02.08.2018 18:48 25,7 °C 65 % 1016,8 hPa 0,0 mm 3,9 km/h (1 Bft) O-NO 73 ° 0 min 0,000 mm 1,0 UV-I 77 W/m² 18,6 °C 25,7 °C 6,4 km/h (2 Bft)
02.08.2018 18:49 25,7 °C 66 % 1016,8 hPa 0,0 mm 2,1 km/h (1 Bft) O-NO 67 ° 0 min 0,000 mm 1,0 UV-I 77 W/m² 18,9 °C 25,7 °C 4,8 km/h (1 Bft)
02.08.2018 18:50 25,7 °C 65 % 1016,8 hPa 0,0 mm 0,7 km/h (0 Bft) O-NO 67 ° 0 min 0,000 mm 0,9 UV-I 77 W/m² 18,6 °C 25,7 °C 3,2 km/h (1 Bft)
02.08.2018 18:51 25,6 °C 65 % 1016,8 hPa 0,0 mm 0,8 km/h (0 Bft) O-NO 67 ° 0 min 0,000 mm 0,9 UV-I 76 W/m² 18,5 °C 25,6 °C 3,2 km/h (1 Bft)
02.08.2018 18:52 25,6 °C 65 % 1016,7 hPa 0,0 mm 0,2 km/h (0 Bft) O-NO 68 ° 0 min 0,000 mm 0,9 UV-I 76 W/m² 18,5 °C 25,6 °C 1,6 km/h (1 Bft)
02.08.2018 18:53 25,6 °C 64 % 1016,7 hPa 0,0 mm 0,0 km/h (0 Bft) O-NO 68 ° 0 min 0,000 mm 0,9 UV-I 74 W/m² 18,3 °C 25,6 °C 0,0 km/h (0 Bft)
02.08.2018 18:54 25,5 °C 64 % 1016,6 hPa 0,0 mm 0,6 km/h (0 Bft) O-NO 68 ° 0 min 0,000 mm 0,9 UV-I 74 W/m² 18,2 °C 25,5 °C 1,6 km/h (1 Bft)
02.08.2018 18:55 25,6 °C 65 % 1016,6 hPa 0,0 mm 0,4 km/h (0 Bft) O-NO 68 ° 0 min 0,000 mm 0,9 UV-I 74 W/m² 18,5 °C 25,6 °C 1,6 km/h (1 Bft)
02.08.2018 18:56 25,5 °C 65 % 1016,6 hPa 0,0 mm 1,6 km/h (1 Bft) O 87 ° 0 min 0,000 mm 0,9 UV-I 74 W/m² 18,4 °C 25,5 °C 4,8 km/h (1 Bft)
02.08.2018 18:57 25,4 °C 68 % 1016,6 hPa 0,0 mm 3,7 km/h (1 Bft) O 86 ° 0 min 0,000 mm 0,9 UV-I 74 W/m² 19,1 °C 25,4 °C 6,4 km/h (2 Bft)
02.08.2018 18:58 25,4 °C 66 % 1016,6 hPa 0,0 mm 4,6 km/h (1 Bft) NO 49 ° 0 min 0,000 mm 0,9 UV-I 74 W/m² 18,6 °C 25,4 °C 6,4 km/h (2 Bft)
02.08.2018 18:59 25,4 °C 65 % 1016,6 hPa 0,0 mm 0,7 km/h (0 Bft) NO 49 ° 0 min 0,000 mm 0,9 UV-I 74 W/m² 18,3 °C 25,4 °C 1,6 km/h (1 Bft)
02.08.2018 19:00 25,4 °C 65 % 1016,6 hPa 0,0 mm 2,2 km/h (1 Bft) NO 49 ° 0 min 0,000 mm 0,8 UV-I 72 W/m² 18,3 °C 25,4 °C 4,8 km/h (1 Bft)
02.08.2018 19:01 25,3 °C 67 % 1016,6 hPa 0,0 mm 1,9 km/h (1 Bft) O 94 ° 0 min 0,076 mm 0,8 UV-I 72 W/m² 18,7 °C 25,3 °C 4,8 km/h (1 Bft)
02.08.2018 19:02 25,4 °C 66 % 1016,6 hPa 0,0 mm 1,6 km/h (1 Bft) O 94 ° 0 min 0,000 mm 0,8 UV-I 70 W/m² 18,6 °C 25,4 °C 3,2 km/h (1 Bft)
02.08.2018 19:03 25,3 °C 65 % 1016,6 hPa 0,0 mm 3,7 km/h (1 Bft) SO 142 ° 0 min 0,000 mm 0,8 UV-I 70 W/m² 18,2 °C 25,3 °C 6,4 km/h (2 Bft)
02.08.2018 19:04 25,3 °C 65 % 1016,5 hPa 0,0 mm 2,5 km/h (1 Bft) SO 142 ° 0 min 0,000 mm 0,8 UV-I 81 W/m² 18,2 °C 25,3 °C 4,8 km/h (1 Bft)
02.08.2018 19:05 25,3 °C 65 % 1016,6 hPa 0,0 mm 0,9 km/h (0 Bft) O-SO 120 ° 0 min 0,000 mm 0,8 UV-I 104 W/m² 18,2 °C 25,3 °C 3,2 km/h (1 Bft)
02.08.2018 19:06 25,3 °C 65 % 1016,6 hPa 0,0 mm 0,1 km/h (0 Bft) O-SO 120 ° 0 min 0,000 mm 0,8 UV-I 90 W/m² 18,2 °C 25,3 °C 1,6 km/h (1 Bft)
02.08.2018 19:07 25,3 °C 66 % 1016,6 hPa 0,0 mm 0,0 km/h (0 Bft) O-SO 120 ° 0 min 0,000 mm 0,7 UV-I 77 W/m² 18,5 °C 25,3 °C 0,0 km/h (0 Bft)
02.08.2018 19:08 25,3 °C 65 % 1016,5 hPa 0,0 mm 0,0 km/h (0 Bft) O-SO 120 ° 0 min 0,000 mm 0,7 UV-I 70 W/m² 18,2 °C 25,3 °C 0,0 km/h (0 Bft)
02.08.2018 19:09 25,3 °C 67 % 1016,5 hPa 0,0 mm 0,9 km/h (0 Bft) O-SO 120 ° 0 min 0,000 mm 0,7 UV-I 67 W/m² 18,7 °C 25,3 °C 3,2 km/h (1 Bft)
02.08.2018 19:10 25,2 °C 68 % 1016,6 hPa 0,0 mm 1,4 km/h (1 Bft) O-SO 119 ° 0 min 0,000 mm 0,7 UV-I 65 W/m² 18,9 °C 25,2 °C 3,2 km/h (1 Bft)
02.08.2018 19:11 25,1 °C 66 % 1016,6 hPa 0,0 mm 2,1 km/h (1 Bft) O-SO 116 ° 0 min 0,000 mm 0,7 UV-I 62 W/m² 18,3 °C 25,1 °C 3,2 km/h (1 Bft)
02.08.2018 19:12 25,2 °C 66 % 1016,6 hPa 0,0 mm 3,2 km/h (1 Bft) NO 44 ° 0 min 0,000 mm 0,7 UV-I 62 W/m² 18,4 °C 25,2 °C 4,8 km/h (1 Bft)
02.08.2018 19:13 25,2 °C 65 % 1016,6 hPa 0,0 mm 3,2 km/h (1 Bft) NO 44 ° 0 min 0,000 mm 0,7 UV-I 62 W/m² 18,1 °C 25,2 °C 4,8 km/h (1 Bft)
02.08.2018 19:14 25,3 °C 65 % 1016,6 hPa 0,0 mm 3,6 km/h (1 Bft) NO 44 ° 0 min 0,000 mm 0,7 UV-I 62 W/m² 18,2 °C 25,3 °C 4,8 km/h (1 Bft)
02.08.2018 19:15 25,3 °C 65 % 1016,5 hPa 0,0 mm 1,7 km/h (1 Bft) NO 44 ° 0 min 0,000 mm 0,7 UV-I 62 W/m² 18,2 °C 25,3 °C 3,2 km/h (1 Bft)
02.08.2018 19:16 25,4 °C 64 % 1016,6 hPa 0,0 mm 0,2 km/h (0 Bft) NO 44 ° 0 min 0,000 mm 0,7 UV-I 60 W/m² 18,1 °C 25,4 °C 1,6 km/h (1 Bft)
02.08.2018 19:17 25,4 °C 65 % 1016,6 hPa 0,0 mm 0,0 km/h (0 Bft) NO 44 ° 0 min 0,000 mm 0,6 UV-I 60 W/m² 18,3 °C 25,4 °C 0,0 km/h (0 Bft)
02.08.2018 19:18 25,3 °C 65 % 1016,6 hPa 0,0 mm 0,0 km/h (0 Bft) NO 44 ° 0 min 0,000 mm 0,6 UV-I 58 W/m² 18,2 °C 25,3 °C 0,0 km/h (0 Bft)
02.08.2018 19:19 25,3 °C 65 % 1016,6 hPa 0,0 mm 0,0 km/h (0 Bft) NO 44 ° 0 min 0,000 mm 0,6 UV-I 58 W/m² 18,2 °C 25,3 °C 0,0 km/h (0 Bft)
02.08.2018 19:20 25,2 °C 65 % 1016,6 hPa 0,0 mm 0,0 km/h (0 Bft) NO 44 ° 0 min 0,000 mm 0,6 UV-I 58 W/m² 18,1 °C 25,2 °C 0,0 km/h (0 Bft)
02.08.2018 19:21 25,2 °C 67 % 1016,6 hPa 0,0 mm 0,0 km/h (0 Bft) NO 44 ° 0 min 0,000 mm 0,6 UV-I 56 W/m² 18,6 °C 25,2 °C 0,0 km/h (0 Bft)
02.08.2018 19:22 25,1 °C 67 % 1016,6 hPa 0,0 mm 0,0 km/h (0 Bft) NO 44 ° 0 min 0,000 mm 0,0 UV-I 54 W/m² 18,5 °C 25,1 °C 0,0 km/h (0 Bft)
02.08.2018 19:23 25,0 °C 67 % 1016,6 hPa 0,0 mm 0,0 km/h (0 Bft) NO 44 ° 0 min 0,000 mm 0,0 UV-I 53 W/m² 18,4 °C 25,0 °C 0,0 km/h (0 Bft)
02.08.2018 19:24 24,9 °C 67 % 1016,6 hPa 0,0 mm 0,0 km/h (0 Bft) NO 44 ° 0 min 0,000 mm 0,0 UV-I 53 W/m² 18,3 °C 24,9 °C 0,0 km/h (0 Bft)
02.08.2018 19:25 24,8 °C 69 % 1016,6 hPa 0,0 mm 0,0 km/h (0 Bft) NO 44 ° 0 min 0,000 mm 0,0 UV-I 53 W/m² 18,7 °C 24,8 °C 0,0 km/h (0 Bft)
02.08.2018 19:26 24,8 °C 71 % 1016,6 hPa 0,0 mm 0,0 km/h (0 Bft) NO 44 ° 0 min 0,000 mm 0,0 UV-I 53 W/m² 19,2 °C 24,8 °C 0,0 km/h (0 Bft)
02.08.2018 19:27 24,7 °C 70 % 1016,5 hPa 0,0 mm 0,0 km/h (0 Bft) NO 44 ° 0 min 0,000 mm 0,0 UV-I 53 W/m² 18,8 °C 24,7 °C 0,0 km/h (0 Bft)
02.08.2018 19:28 24,6 °C 71 % 1016,6 hPa 0,0 mm 0,0 km/h (0 Bft) NO 44 ° 0 min 0,000 mm 0,0 UV-I 53 W/m² 19,0 °C 24,6 °C 0,0 km/h (0 Bft)
02.08.2018 19:29 24,6 °C 71 % 1016,6 hPa 0,0 mm 0,0 km/h (0 Bft) NO 44 ° 0 min 0,000 mm 0,0 UV-I 53 W/m² 19,0 °C 24,6 °C 0,0 km/h (0 Bft)
02.08.2018 19:30 24,6 °C 70 % 1016,6 hPa 0,0 mm 0,0 km/h (0 Bft) NO 44 ° 0 min 0,000 mm 0,0 UV-I 53 W/m² 18,8 °C 24,6 °C 0,0 km/h (0 Bft)
02.08.2018 19:31 24,6 °C 70 % 1016,7 hPa 0,0 mm 0,0 km/h (0 Bft) NO 44 ° 0 min 0,000 mm 0,0 UV-I 53 W/m² 18,8 °C 24,6 °C 0,0 km/h (0 Bft)
02.08.2018 19:33 24,4 °C 72 % 1016,7 hPa 0,0 mm 0,0 km/h (0 Bft) NO 44 ° 0 min 0,000 mm 0,5 UV-I 56 W/m² 19,0 °C 24,4 °C 0,0 km/h (0 Bft)
02.08.2018 19:34 24,3 °C 73 % 1016,7 hPa 0,0 mm 0,0 km/h (0 Bft) NO 44 ° 0 min 0,000 mm 0,0 UV-I 54 W/m² 19,1 °C 24,3 °C 0,0 km/h (0 Bft)
02.08.2018 19:35 24,3 °C 72 % 1016,7 hPa 0,0 mm 0,0 km/h (0 Bft) NO 44 ° 0 min 0,000 mm 0,0 UV-I 51 W/m² 18,9 °C 24,3 °C 0,0 km/h (0 Bft)
02.08.2018 19:36 24,3 °C 71 % 1016,7 hPa 0,0 mm 0,0 km/h (0 Bft) NO 44 ° 0 min 0,000 mm 0,0 UV-I 51 W/m² 18,7 °C 24,3 °C 0,0 km/h (0 Bft)
02.08.2018 19:37 24,3 °C 71 % 1016,6 hPa 0,0 mm 0,0 km/h (0 Bft) NO 44 ° 0 min 0,000 mm 0,0 UV-I 51 W/m² 18,7 °C 24,3 °C 0,0 km/h (0 Bft)
02.08.2018 19:38 24,3 °C 70 % 1016,7 hPa 0,0 mm 0,0 km/h (0 Bft) NO 44 ° 0 min 0,000 mm 0,0 UV-I 54 W/m² 18,5 °C 24,3 °C 0,0 km/h (0 Bft)
02.08.2018 19:39 24,3 °C 70 % 1016,7 hPa 0,0 mm 0,1 km/h (0 Bft) NO 44 ° 0 min 0,000 mm 0,0 UV-I 58 W/m² 18,5 °C 24,3 °C 1,6 km/h (1 Bft)
02.08.2018 19:40 24,4 °C 69 % 1016,8 hPa 0,0 mm 0,0 km/h (0 Bft) NO 44 ° 0 min 0,000 mm 0,0 UV-I 65 W/m² 18,3 °C 24,4 °C 0,0 km/h (0 Bft)
02.08.2018 19:41 24,4 °C 69 % 1016,8 hPa 0,0 mm 0,0 km/h (0 Bft) NO 44 ° 0 min 0,000 mm 0,0 UV-I 76 W/m² 18,3 °C 24,4 °C 0,0 km/h (0 Bft)
02.08.2018 19:42 24,4 °C 70 % 1016,8 hPa 0,0 mm 0,0 km/h (0 Bft) NO 44 ° 0 min 0,000 mm 0,0 UV-I 72 W/m² 18,6 °C 24,4 °C 0,0 km/h (0 Bft)
02.08.2018 19:43 24,4 °C 70 % 1016,8 hPa 0,0 mm 0,0 km/h (0 Bft) NO 44 ° 0 min 0,000 mm 0,0 UV-I 72 W/m² 18,6 °C 24,4 °C 0,0 km/h (0 Bft)
02.08.2018 19:44 24,3 °C 70 % 1016,7 hPa 0,0 mm 0,0 km/h (0 Bft) NO 44 ° 0 min 0,000 mm 0,0 UV-I 72 W/m² 18,5 °C 24,3 °C 0,0 km/h (0 Bft)
02.08.2018 19:45 24,3 °C 71 % 1016,8 hPa 0,0 mm 0,0 km/h (0 Bft) NO 44 ° 0 min 0,000 mm 0,0 UV-I 72 W/m² 18,7 °C 24,3 °C 0,0 km/h (0 Bft)
02.08.2018 19:46 24,3 °C 70 % 1016,8 hPa 0,0 mm 0,0 km/h (0 Bft) NO 44 ° 0 min 0,000 mm 0,0 UV-I 72 W/m² 18,5 °C 24,3 °C 0,0 km/h (0 Bft)
02.08.2018 19:47 24,3 °C 71 % 1016,9 hPa 0,0 mm 0,0 km/h (0 Bft) NO 44 ° 0 min 0,000 mm 0,0 UV-I 69 W/m² 18,7 °C 24,3 °C 0,0 km/h (0 Bft)
02.08.2018 19:48 24,2 °C 74 % 1016,9 hPa 0,0 mm 0,0 km/h (0 Bft) NO 44 ° 0 min 0,000 mm 0,0 UV-I 67 W/m² 19,3 °C 24,2 °C 0,0 km/h (0 Bft)
02.08.2018 19:49 24,0 °C 76 % 1016,9 hPa 0,0 mm 0,0 km/h (0 Bft) NO 44 ° 0 min 0,000 mm 0,0 UV-I 58 W/m² 19,5 °C 24,0 °C 0,0 km/h (0 Bft)
02.08.2018 19:50 23,8 °C 73 % 1016,9 hPa 0,0 mm 0,0 km/h (0 Bft) NO 44 ° 0 min 0,000 mm 0,0 UV-I 49 W/m² 18,7 °C 23,8 °C 0,0 km/h (0 Bft)
02.08.2018 19:51 23,8 °C 73 % 1017,0 hPa 0,0 mm 0,0 km/h (0 Bft) NO 44 ° 0 min 0,000 mm 0,0 UV-I 44 W/m² 18,7 °C 23,8 °C 0,0 km/h (0 Bft)
02.08.2018 19:52 23,8 °C 73 % 1017,0 hPa 0,0 mm 0,0 km/h (0 Bft) NO 44 ° 0 min 0,000 mm 0,0 UV-I 39 W/m² 18,7 °C 23,8 °C 0,0 km/h (0 Bft)
02.08.2018 19:53 23,9 °C 73 % 1017,0 hPa 0,0 mm 0,0 km/h (0 Bft) NO 44 ° 0 min 0,000 mm 0,0 UV-I 35 W/m² 18,8 °C 23,9 °C 0,0 km/h (0 Bft)
02.08.2018 19:54 23,9 °C 73 % 1017,0 hPa 0,0 mm 0,0 km/h (0 Bft) NO 44 ° 0 min 0,000 mm 0,0 UV-I 32 W/m² 18,8 °C 23,9 °C 0,0 km/h (0 Bft)
02.08.2018 19:55 23,9 °C 73 % 1017,0 hPa 0,0 mm 0,0 km/h (0 Bft) NO 44 ° 0 min 0,000 mm 0,0 UV-I 28 W/m² 18,8 °C 23,9 °C 0,0 km/h (0 Bft)
02.08.2018 19:56 23,9 °C 73 % 1017,0 hPa 0,0 mm 0,0 km/h (0 Bft) NO 44 ° 0 min 0,000 mm 0,0 UV-I 25 W/m² 18,8 °C 23,9 °C 0,0 km/h (0 Bft)
02.08.2018 19:57 23,9 °C 74 % 1017,0 hPa 0,0 mm 0,0 km/h (0 Bft) NO 44 ° 0 min 0,000 mm 0,0 UV-I 21 W/m² 19,0 °C 23,9 °C 0,0 km/h (0 Bft)
02.08.2018 19:58 23,8 °C 74 % 1017,1 hPa 0,0 mm 0,0 km/h (0 Bft) NO 44 ° 0 min 0,000 mm 0,0 UV-I 19 W/m² 18,9 °C 23,8 °C 0,0 km/h (0 Bft)
02.08.2018 19:59 23,7 °C 76 % 1017,0 hPa 0,0 mm 0,0 km/h (0 Bft) NO 44 ° 0 min 0,000 mm 0,0 UV-I 18 W/m² 19,2 °C 23,7 °C 0,0 km/h (0 Bft)
02.08.2018 20:00 23,4 °C 77 % 1017,1 hPa 0,0 mm 0,0 km/h (0 Bft) NO 44 ° 0 min 0,000 mm 0,0 UV-I 18 W/m² 19,1 °C 23,4 °C 0,0 km/h (0 Bft)
02.08.2018 20:01 23,2 °C 77 % 1017,1 hPa 0,0 mm 0,0 km/h (0 Bft) NO 44 ° 0 min 0,051 mm 0,0 UV-I 16 W/m² 18,9 °C 23,2 °C 0,0 km/h (0 Bft)
02.08.2018 20:02 23,1 °C 78 % 1017,2 hPa 0,0 mm 0,0 km/h (0 Bft) NO 44 ° 0 min 0,000 mm 0,0 UV-I 16 W/m² 19,0 °C 23,1 °C 0,0 km/h (0 Bft)
02.08.2018 20:03 23,0 °C 77 % 1017,1 hPa 0,0 mm 0,0 km/h (0 Bft) NO 44 ° 0 min 0,000 mm 0,0 UV-I 14 W/m² 18,7 °C 23,0 °C 0,0 km/h (0 Bft)
02.08.2018 20:04 22,9 °C 77 % 1017,2 hPa 0,0 mm 0,0 km/h (0 Bft) NO 44 ° 0 min 0,000 mm 0,0 UV-I 14 W/m² 18,6 °C 22,9 °C 0,0 km/h (0 Bft)
02.08.2018 20:05 22,9 °C 77 % 1017,1 hPa 0,0 mm 0,8 km/h (0 Bft) NO 44 ° 0 min 0,000 mm 0,0 UV-I 12 W/m² 18,6 °C 22,9 °C 1,6 km/h (1 Bft)
02.08.2018 20:06 23,0 °C 77 % 1017,1 hPa 0,0 mm 0,0 km/h (0 Bft) NO 44 ° 0 min 0,000 mm 0,0 UV-I 12 W/m² 18,7 °C 23,0 °C 0,0 km/h (0 Bft)
02.08.2018 20:07 23,0 °C 77 % 1017,1 hPa 0,0 mm 1,0 km/h (0 Bft) NO 44 ° 0 min 0,000 mm 0,0 UV-I 12 W/m² 18,7 °C 23,0 °C 1,6 km/h (1 Bft)
02.08.2018 20:08 23,0 °C 77 % 1017,1 hPa 0,0 mm 1,9 km/h (1 Bft) NO 44 ° 0 min 0,000 mm 0,0 UV-I 12 W/m² 18,7 °C 23,0 °C 3,2 km/h (1 Bft)
02.08.2018 20:09 23,1 °C 77 % 1017,0 hPa 0,0 mm 1,5 km/h (1 Bft) NO 44 ° 0 min 0,000 mm 0,0 UV-I 12 W/m² 18,8 °C 23,1 °C 3,2 km/h (1 Bft)
02.08.2018 20:10 23,0 °C 76 % 1017,0 hPa 0,0 mm 1,6 km/h (1 Bft) NO 44 ° 0 min 0,000 mm 0,0 UV-I 11 W/m² 18,5 °C 23,0 °C 3,2 km/h (1 Bft)
02.08.2018 20:11 23,0 °C 76 % 1017,0 hPa 0,0 mm 1,6 km/h (1 Bft) NO 44 ° 0 min 0,000 mm 0,0 UV-I 11 W/m² 18,5 °C 23,0 °C 1,6 km/h (1 Bft)
02.08.2018 20:12 23,0 °C 76 % 1017,1 hPa 0,0 mm 2,2 km/h (1 Bft) NO 44 ° 0 min 0,000 mm 0,0 UV-I 11 W/m² 18,5 °C 23,0 °C 3,2 km/h (1 Bft)
02.08.2018 20:13 23,0 °C 76 % 1017,0 hPa 0,0 mm 2,1 km/h (1 Bft) NO 44 ° 0 min 0,000 mm 0,0 UV-I 11 W/m² 18,5 °C 23,0 °C 3,2 km/h (1 Bft)
02.08.2018 20:14 23,0 °C 77 % 1017,0 hPa 0,0 mm 1,3 km/h (1 Bft) NO 44 ° 0 min 0,000 mm 0,0 UV-I 11 W/m² 18,7 °C 23,0 °C 1,6 km/h (1 Bft)
02.08.2018 20:15 22,9 °C 77 % 1017,0 hPa 0,0 mm 0,4 km/h (0 Bft) NO 44 ° 0 min 0,000 mm 0,0 UV-I 11 W/m² 18,6 °C 22,9 °C 1,6 km/h (1 Bft)
02.08.2018 20:16 22,8 °C 78 % 1017,1 hPa 0,0 mm 0,0 km/h (0 Bft) NO 44 ° 0 min 0,000 mm 0,0 UV-I 9 W/m² 18,8 °C 22,8 °C 0,0 km/h (0 Bft)
02.08.2018 20:17 22,7 °C 79 % 1017,1 hPa 0,0 mm 0,0 km/h (0 Bft) NO 44 ° 0 min 0,000 mm 0,0 UV-I 9 W/m² 18,9 °C 22,7 °C 0,0 km/h (0 Bft)
02.08.2018 20:18 22,4 °C 80 % 1017,1 hPa 0,0 mm 0,0 km/h (0 Bft) NO 44 ° 0 min 0,000 mm 0,0 UV-I 9 W/m² 18,8 °C 22,4 °C 0,0 km/h (0 Bft)
02.08.2018 20:19 22,2 °C 81 % 1017,1 hPa 0,0 mm 0,0 km/h (0 Bft) NO 44 ° 0 min 0,000 mm 0,0 UV-I 9 W/m² 18,8 °C 22,2 °C 0,0 km/h (0 Bft)
02.08.2018 20:20 21,9 °C 81 % 1017,2 hPa 0,0 mm 0,0 km/h (0 Bft) NO 44 ° 0 min 0,000 mm 0,0 UV-I 9 W/m² 18,5 °C 21,9 °C 0,0 km/h (0 Bft)
02.08.2018 20:21 21,8 °C 82 % 1017,2 hPa 0,0 mm 0,0 km/h (0 Bft) NO 44 ° 0 min 0,000 mm 0,0 UV-I 9 W/m² 18,6 °C 21,8 °C 0,0 km/h (0 Bft)
02.08.2018 20:22 21,7 °C 82 % 1017,2 hPa 0,0 mm 0,0 km/h (0 Bft) NO 44 ° 0 min 0,000 mm 0,0 UV-I 9 W/m² 18,5 °C 21,7 °C 0,0 km/h (0 Bft)
02.08.2018 20:23 21,5 °C 82 % 1017,2 hPa 0,0 mm 0,0 km/h (0 Bft) NO 44 ° 0 min 0,000 mm 0,0 UV-I 7 W/m² 18,3 °C 21,5 °C 0,0 km/h (0 Bft)
02.08.2018 20:24 21,4 °C 83 % 1017,2 hPa 0,0 mm 0,0 km/h (0 Bft) NO 44 ° 0 min 0,000 mm 0,0 UV-I 7 W/m² 18,4 °C 21,4 °C 0,0 km/h (0 Bft)
02.08.2018 20:25 21,4 °C 83 % 1017,2 hPa 0,0 mm 0,0 km/h (0 Bft) NO 44 ° 0 min 0,000 mm 0,0 UV-I 7 W/m² 18,4 °C 21,4 °C 0,0 km/h (0 Bft)
02.08.2018 20:26 21,4 °C 83 % 1017,2 hPa 0,0 mm 0,0 km/h (0 Bft) NO 44 ° 0 min 0,000 mm 0,0 UV-I 7 W/m² 18,4 °C 21,4 °C 0,0 km/h (0 Bft)
02.08.2018 20:27 21,3 °C 83 % 1017,2 hPa 0,0 mm 0,0 km/h (0 Bft) NO 44 ° 0 min 0,000 mm 0,0 UV-I 7 W/m² 18,3 °C 21,3 °C 0,0 km/h (0 Bft)
02.08.2018 20:28 21,3 °C 84 % 1017,2 hPa 0,0 mm 0,0 km/h (0 Bft) NO 44 ° 0 min 0,000 mm 0,0 UV-I 7 W/m² 18,5 °C 21,3 °C 0,0 km/h (0 Bft)
02.08.2018 20:29 21,3 °C 84 % 1017,2 hPa 0,0 mm 0,0 km/h (0 Bft) NO 44 ° 0 min 0,000 mm 0,0 UV-I 7 W/m² 18,5 °C 21,3 °C 0,0 km/h (0 Bft)
02.08.2018 20:30 21,3 °C 85 % 1017,2 hPa 0,0 mm 0,0 km/h (0 Bft) NO 44 ° 0 min 0,000 mm 0,0 UV-I 5 W/m² 18,7 °C 21,3 °C 0,0 km/h (0 Bft)
02.08.2018 20:31 21,3 °C 85 % 1017,2 hPa 0,0 mm 0,0 km/h (0 Bft) NO 44 ° 0 min 0,000 mm 0,0 UV-I 5 W/m² 18,7 °C 21,3 °C 0,0 km/h (0 Bft)
02.08.2018 20:32 21,3 °C 85 % 1017,2 hPa 0,0 mm 0,9 km/h (0 Bft) NO 44 ° 0 min 0,000 mm 0,0 UV-I 5 W/m² 18,7 °C 21,3 °C 1,6 km/h (1 Bft)
02.08.2018 20:33 21,3 °C 85 % 1017,3 hPa 0,0 mm 1,5 km/h (1 Bft) NO 44 ° 0 min 0,000 mm 0,0 UV-I 5 W/m² 18,7 °C 21,3 °C 3,2 km/h (1 Bft)
02.08.2018 20:34 21,3 °C 85 % 1017,3 hPa 0,0 mm 1,0 km/h (0 Bft) NO 44 ° 0 min 0,000 mm 0,0 UV-I 5 W/m² 18,7 °C 21,3 °C 1,6 km/h (1 Bft)
02.08.2018 20:35 21,3 °C 85 % 1017,2 hPa 0,0 mm 0,8 km/h (0 Bft) NO 44 ° 0 min 0,000 mm 0,0 UV-I 5 W/m² 18,7 °C 21,3 °C 1,6 km/h (1 Bft)
02.08.2018 20:36 21,3 °C 85 % 1017,2 hPa 0,0 mm 1,5 km/h (1 Bft) NO 44 ° 0 min 0,000 mm 0,0 UV-I 5 W/m² 18,7 °C 21,3 °C 3,2 km/h (1 Bft)
02.08.2018 20:37 21,3 °C 84 % 1017,2 hPa 0,0 mm 0,9 km/h (0 Bft) NO 44 ° 0 min 0,000 mm 0,0 UV-I 5 W/m² 18,5 °C 21,3 °C 1,6 km/h (1 Bft)
02.08.2018 20:38 21,3 °C 84 % 1017,3 hPa 0,0 mm 0,2 km/h (0 Bft) NO 44 ° 0 min 0,000 mm 0,0 UV-I 5 W/m² 18,5 °C 21,3 °C 1,6 km/h (1 Bft)
02.08.2018 20:39 21,3 °C 84 % 1017,2 hPa 0,0 mm 0,0 km/h (0 Bft) NO 44 ° 0 min 0,000 mm 0,0 UV-I 0 W/m² 18,5 °C 21,3 °C 0,0 km/h (0 Bft)
02.08.2018 20:40 21,3 °C 84 % 1017,2 hPa 0,0 mm 0,0 km/h (0 Bft) NO 44 ° 0 min 0,000 mm 0,0 UV-I 0 W/m² 18,5 °C 21,3 °C 0,0 km/h (0 Bft)
02.08.2018 20:41 21,4 °C 84 % 1017,2 hPa 0,0 mm 0,0 km/h (0 Bft) NO 44 ° 0 min 0,000 mm 0,0 UV-I 0 W/m² 18,6 °C 21,4 °C 0,0 km/h (0 Bft)
02.08.2018 20:42 21,3 °C 84 % 1017,3 hPa 0,0 mm 0,0 km/h (0 Bft) NO 44 ° 0 min 0,000 mm 0,0 UV-I 0 W/m² 18,5 °C 21,3 °C 0,0 km/h (0 Bft)
02.08.2018 20:43 21,2 °C 84 % 1017,3 hPa 0,0 mm 0,0 km/h (0 Bft) NO 44 ° 0 min 0,000 mm 0,0 UV-I 0 W/m² 18,4 °C 21,2 °C 0,0 km/h (0 Bft)
02.08.2018 20:44 21,2 °C 85 % 1017,2 hPa 0,0 mm 0,0 km/h (0 Bft) NO 44 ° 0 min 0,000 mm 0,0 UV-I 0 W/m² 18,6 °C 21,2 °C 0,0 km/h (0 Bft)
02.08.2018 20:45 21,1 °C 85 % 1017,2 hPa 0,0 mm 0,0 km/h (0 Bft) NO 44 ° 0 min 0,000 mm 0,0 UV-I 0 W/m² 18,5 °C 21,1 °C 0,0 km/h (0 Bft)
02.08.2018 20:46 21,1 °C 85 % 1017,3 hPa 0,0 mm 0,0 km/h (0 Bft) NO 44 ° 0 min 0,000 mm 0,0 UV-I 0 W/m² 18,5 °C 21,1 °C 0,0 km/h (0 Bft)
02.08.2018 20:47 21,0 °C 85 % 1017,2 hPa 0,0 mm 0,0 km/h (0 Bft) NO 44 ° 0 min 0,000 mm 0,0 UV-I 0 W/m² 18,4 °C 21,0 °C 0,0 km/h (0 Bft)
02.08.2018 20:48 20,9 °C 85 % 1017,2 hPa 0,0 mm 0,0 km/h (0 Bft) NO 44 ° 0 min 0,000 mm 0,0 UV-I 0 W/m² 18,3 °C 20,9 °C 0,0 km/h (0 Bft)
02.08.2018 20:49 20,9 °C 85 % 1017,2 hPa 0,0 mm 0,0 km/h (0 Bft) NO 44 ° 0 min 0,000 mm 0,0 UV-I 0 W/m² 18,3 °C 20,9 °C 0,0 km/h (0 Bft)
02.08.2018 20:50 20,9 °C 85 % 1017,2 hPa 0,0 mm 0,0 km/h (0 Bft) NO 44 ° 0 min 0,000 mm 0,0 UV-I 0 W/m² 18,3 °C 20,9 °C 0,0 km/h (0 Bft)
02.08.2018 20:51 20,9 °C 85 % 1017,2 hPa 0,0 mm 0,0 km/h (0 Bft) NO 44 ° 0 min 0,000 mm 0,0 UV-I 0 W/m² 18,3 °C 20,9 °C 0,0 km/h (0 Bft)
02.08.2018 20:52 20,9 °C 85 % 1017,2 hPa 0,0 mm 0,0 km/h (0 Bft) NO 44 ° 0 min 0,000 mm 0,0 UV-I 0 W/m² 18,3 °C 20,9 °C 0,0 km/h (0 Bft)
02.08.2018 20:53 20,9 °C 85 % 1017,2 hPa 0,0 mm 0,0 km/h (0 Bft) NO 44 ° 0 min 0,000 mm 0,0 UV-I 0 W/m² 18,3 °C 20,9 °C 0,0 km/h (0 Bft)
02.08.2018 20:54 20,9 °C 85 % 1017,1 hPa 0,0 mm 0,0 km/h (0 Bft) NO 44 ° 0 min 0,000 mm 0,0 UV-I 0 W/m² 18,3 °C 20,9 °C 0,0 km/h (0 Bft)
02.08.2018 20:55 20,9 °C 85 % 1017,1 hPa 0,0 mm 0,0 km/h (0 Bft) NO 44 ° 0 min 0,000 mm 0,0 UV-I 0 W/m² 18,3 °C 20,9 °C 0,0 km/h (0 Bft)
02.08.2018 20:56 21,0 °C 85 % 1017,0 hPa 0,0 mm 0,0 km/h (0 Bft) NO 44 ° 0 min 0,000 mm 0,0 UV-I 0 W/m² 18,4 °C 21,0 °C 0,0 km/h (0 Bft)
02.08.2018 20:57 21,1 °C 85 % 1017,1 hPa 0,0 mm 0,0 km/h (0 Bft) NO 44 ° 0 min 0,000 mm 0,0 UV-I 0 W/m² 18,5 °C 21,1 °C 0,0 km/h (0 Bft)
02.08.2018 20:58 21,1 °C 85 % 1017,0 hPa 0,0 mm 0,0 km/h (0 Bft) NO 44 ° 0 min 0,000 mm 0,0 UV-I 0 W/m² 18,5 °C 21,1 °C 0,0 km/h (0 Bft)
02.08.2018 20:59 21,2 °C 84 % 1017,1 hPa 0,0 mm 0,0 km/h (0 Bft) NO 44 ° 0 min 0,000 mm 0,0 UV-I 0 W/m² 18,4 °C 21,2 °C 0,0 km/h (0 Bft)
02.08.2018 21:00 21,2 °C 83 % 1017,1 hPa 0,0 mm 0,0 km/h (0 Bft) NO 44 ° 0 min 0,000 mm 0,0 UV-I 0 W/m² 18,2 °C 21,2 °C 0,0 km/h (0 Bft)
02.08.2018 21:01 21,2 °C 83 % 1017,1 hPa 0,0 mm 0,0 km/h (0 Bft) NO 44 ° 0 min 0,000 mm 0,0 UV-I 0 W/m² 18,2 °C 21,2 °C 0,0 km/h (0 Bft)
02.08.2018 21:02 21,2 °C 84 % 1017,1 hPa 0,0 mm 0,0 km/h (0 Bft) NO 44 ° 0 min 0,000 mm 0,0 UV-I 0 W/m² 18,4 °C 21,2 °C 0,0 km/h (0 Bft)
02.08.2018 21:03 21,1 °C 84 % 1017,2 hPa 0,0 mm 0,0 km/h (0 Bft) NO 44 ° 0 min 0,000 mm 0,0 UV-I 0 W/m² 18,3 °C 21,1 °C 0,0 km/h (0 Bft)
02.08.2018 21:04 21,1 °C 84 % 1017,2 hPa 0,0 mm 0,0 km/h (0 Bft) NO 44 ° 0 min 0,000 mm 0,0 UV-I 0 W/m² 18,3 °C 21,1 °C 0,0 km/h (0 Bft)
02.08.2018 21:05 21,1 °C 84 % 1017,2 hPa 0,0 mm 0,0 km/h (0 Bft) NO 44 ° 0 min 0,000 mm 0,0 UV-I 0 W/m² 18,3 °C 21,1 °C 0,0 km/h (0 Bft)
02.08.2018 21:06 21,1 °C 84 % 1017,2 hPa 0,0 mm 0,0 km/h (0 Bft) NO 44 ° 0 min 0,000 mm 0,0 UV-I 0 W/m² 18,3 °C 21,1 °C 0,0 km/h (0 Bft)
02.08.2018 21:07 21,1 °C 84 % 1017,2 hPa 0,0 mm 0,0 km/h (0 Bft) NO 44 ° 0 min 0,000 mm 0,0 UV-I 0 W/m² 18,3 °C 21,1 °C 0,0 km/h (0 Bft)
02.08.2018 21:08 21,1 °C 84 % 1017,2 hPa 0,0 mm 0,0 km/h (0 Bft) NO 44 ° 0 min 0,000 mm 0,0 UV-I 0 W/m² 18,3 °C 21,1 °C 0,0 km/h (0 Bft)
02.08.2018 21:09 21,1 °C 84 % 1017,3 hPa 0,0 mm 0,0 km/h (0 Bft) NO 44 ° 0 min 0,000 mm 0,0 UV-I 0 W/m² 18,3 °C 21,1 °C 0,0 km/h (0 Bft)
02.08.2018 21:10 21,1 °C 84 % 1017,3 hPa 0,0 mm 0,0 km/h (0 Bft) NO 44 ° 0 min 0,000 mm 0,0 UV-I 0 W/m² 18,3 °C 21,1 °C 0,0 km/h (0 Bft)
02.08.2018 21:11 21,2 °C 84 % 1017,4 hPa 0,0 mm 0,0 km/h (0 Bft) NO 44 ° 0 min 0,000 mm 0,0 UV-I 0 W/m² 18,4 °C 21,2 °C 0,0 km/h (0 Bft)
02.08.2018 21:12 21,2 °C 84 % 1017,5 hPa 0,0 mm 0,0 km/h (0 Bft) NO 44 ° 0 min 0,000 mm 0,0 UV-I 0 W/m² 18,4 °C 21,2 °C 0,0 km/h (0 Bft)
02.08.2018 21:13 21,1 °C 84 % 1017,5 hPa 0,0 mm 0,0 km/h (0 Bft) NO 44 ° 0 min 0,000 mm 0,0 UV-I 0 W/m² 18,3 °C 21,1 °C 0,0 km/h (0 Bft)
02.08.2018 21:14 21,1 °C 84 % 1017,5 hPa 0,0 mm 0,0 km/h (0 Bft) NO 44 ° 0 min 0,000 mm 0,0 UV-I 0 W/m² 18,3 °C 21,1 °C 0,0 km/h (0 Bft)
02.08.2018 21:15 21,2 °C 83 % 1017,5 hPa 0,0 mm 0,0 km/h (0 Bft) NO 44 ° 0 min 0,000 mm 0,0 UV-I 0 W/m² 18,2 °C 21,2 °C 0,0 km/h (0 Bft)
02.08.2018 21:16 21,2 °C 83 % 1017,5 hPa 0,0 mm 0,0 km/h (0 Bft) NO 44 ° 0 min 0,000 mm 0,0 UV-I 0 W/m² 18,2 °C 21,2 °C 0,0 km/h (0 Bft)
02.08.2018 21:17 21,2 °C 83 % 1017,6 hPa 0,0 mm 0,0 km/h (0 Bft) NO 44 ° 0 min 0,000 mm 0,0 UV-I 0 W/m² 18,2 °C 21,2 °C 0,0 km/h (0 Bft)
02.08.2018 21:18 21,3 °C 83 % 1017,6 hPa 0,0 mm 0,0 km/h (0 Bft) NO 44 ° 0 min 0,000 mm 0,0 UV-I 0 W/m² 18,3 °C 21,3 °C 0,0 km/h (0 Bft)
02.08.2018 21:19 21,3 °C 83 % 1017,7 hPa 0,0 mm 0,0 km/h (0 Bft) NO 44 ° 0 min 0,000 mm 0,0 UV-I 0 W/m² 18,3 °C 21,3 °C 0,0 km/h (0 Bft)
02.08.2018 21:20 21,3 °C 83 % 1017,5 hPa 0,0 mm 0,0 km/h (0 Bft) NO 44 ° 0 min 0,000 mm 0,0 UV-I 0 W/m² 18,3 °C 21,3 °C 0,0 km/h (0 Bft)
02.08.2018 21:21 21,3 °C 83 % 1017,7 hPa 0,0 mm 0,0 km/h (0 Bft) NO 44 ° 0 min 0,000 mm 0,0 UV-I 0 W/m² 18,3 °C 21,3 °C 0,0 km/h (0 Bft)
02.08.2018 21:22 21,3 °C 83 % 1017,6 hPa 0,0 mm 0,0 km/h (0 Bft) NO 44 ° 0 min 0,000 mm 0,0 UV-I 0 W/m² 18,3 °C 21,3 °C 0,0 km/h (0 Bft)
02.08.2018 21:23 21,4 °C 83 % 1017,6 hPa 0,0 mm 0,0 km/h (0 Bft) NO 44 ° 0 min 0,000 mm 0,0 UV-I 0 W/m² 18,4 °C 21,4 °C 0,0 km/h (0 Bft)
02.08.2018 21:24 21,4 °C 82 % 1017,6 hPa 0,0 mm 0,0 km/h (0 Bft) NO 44 ° 0 min 0,000 mm 0,0 UV-I 0 W/m² 18,2 °C 21,4 °C 0,0 km/h (0 Bft)
02.08.2018 21:25 21,3 °C 83 % 1017,6 hPa 0,0 mm 0,0 km/h (0 Bft) NO 44 ° 0 min 0,000 mm 0,0 UV-I 0 W/m² 18,3 °C 21,3 °C 0,0 km/h (0 Bft)
02.08.2018 21:26 21,3 °C 83 % 1017,6 hPa 0,0 mm 0,0 km/h (0 Bft) NO 44 ° 0 min 0,000 mm 0,0 UV-I 0 W/m² 18,3 °C 21,3 °C 0,0 km/h (0 Bft)
02.08.2018 21:27 21,3 °C 83 % 1017,6 hPa 0,0 mm 0,0 km/h (0 Bft) NO 44 ° 0 min 0,000 mm 0,0 UV-I 0 W/m² 18,3 °C 21,3 °C 0,0 km/h (0 Bft)
02.08.2018 21:28 21,4 °C 83 % 1017,6 hPa 0,0 mm 1,6 km/h (1 Bft) NO 44 ° 0 min 0,000 mm 0,0 UV-I 0 W/m² 18,4 °C 21,4 °C 3,2 km/h (1 Bft)
02.08.2018 21:29 21,4 °C 82 % 1017,6 hPa 0,0 mm 1,0 km/h (0 Bft) NO 44 ° 0 min 0,000 mm 0,0 UV-I 0 W/m² 18,2 °C 21,4 °C 1,6 km/h (1 Bft)
02.08.2018 21:30 21,4 °C 82 % 1017,7 hPa 0,0 mm 1,0 km/h (0 Bft) NO 44 ° 0 min 0,000 mm 0,0 UV-I 0 W/m² 18,2 °C 21,4 °C 3,2 km/h (1 Bft)
02.08.2018 21:31 21,6 °C 82 % 1017,7 hPa 0,0 mm 0,9 km/h (0 Bft) NO 44 ° 0 min 0,000 mm 0,0 UV-I 0 W/m² 18,4 °C 21,6 °C 1,6 km/h (1 Bft)
02.08.2018 21:32 21,6 °C 81 % 1017,7 hPa 0,0 mm 0,9 km/h (0 Bft) NO 44 ° 0 min 0,000 mm 0,0 UV-I 0 W/m² 18,2 °C 21,6 °C 1,6 km/h (1 Bft)
02.08.2018 21:33 21,6 °C 81 % 1017,8 hPa 0,0 mm 0,5 km/h (0 Bft) NO 44 ° 0 min 0,000 mm 0,0 UV-I 0 W/m² 18,2 °C 21,6 °C 1,6 km/h (1 Bft)
02.08.2018 21:34 21,6 °C 81 % 1017,8 hPa 0,0 mm 0,2 km/h (0 Bft) NO 44 ° 0 min 0,000 mm 0,0 UV-I 0 W/m² 18,2 °C 21,6 °C 1,6 km/h (1 Bft)
02.08.2018 21:35 21,7 °C 81 % 1017,9 hPa 0,0 mm 1,5 km/h (1 Bft) NO 44 ° 0 min 0,000 mm 0,0 UV-I 0 W/m² 18,3 °C 21,7 °C 3,2 km/h (1 Bft)
02.08.2018 21:36 21,7 °C 81 % 1017,9 hPa 0,0 mm 0,0 km/h (0 Bft) NO 44 ° 0 min 0,000 mm 0,0 UV-I 0 W/m² 18,3 °C 21,7 °C 0,0 km/h (0 Bft)
02.08.2018 21:37 21,7 °C 81 % 1017,9 hPa 0,0 mm 0,0 km/h (0 Bft) NO 44 ° 0 min 0,000 mm 0,0 UV-I 0 W/m² 18,3 °C 21,7 °C 0,0 km/h (0 Bft)
02.08.2018 21:38 21,7 °C 82 % 1018,0 hPa 0,0 mm 0,0 km/h (0 Bft) NO 44 ° 0 min 0,000 mm 0,0 UV-I 0 W/m² 18,5 °C 21,7 °C 0,0 km/h (0 Bft)
02.08.2018 21:39 21,6 °C 83 % 1018,1 hPa 0,0 mm 0,0 km/h (0 Bft) NO 44 ° 0 min 0,000 mm 0,0 UV-I 0 W/m² 18,6 °C 21,6 °C 0,0 km/h (0 Bft)
02.08.2018 21:40 21,4 °C 83 % 1018,0 hPa 0,0 mm 0,0 km/h (0 Bft) NO 44 ° 0 min 0,000 mm 0,0 UV-I 0 W/m² 18,4 °C 21,4 °C 0,0 km/h (0 Bft)
02.08.2018 21:41 21,3 °C 83 % 1018,1 hPa 0,0 mm 0,0 km/h (0 Bft) NO 44 ° 0 min 0,000 mm 0,0 UV-I 0 W/m² 18,3 °C 21,3 °C 0,0 km/h (0 Bft)
02.08.2018 21:42 21,3 °C 82 % 1018,1 hPa 0,0 mm 0,0 km/h (0 Bft) NO 44 ° 0 min 0,000 mm 0,0 UV-I 0 W/m² 18,1 °C 21,3 °C 0,0 km/h (0 Bft)
02.08.2018 21:43 21,3 °C 83 % 1018,1 hPa 0,0 mm 2,0 km/h (1 Bft) O 98 ° 0 min 0,000 mm 0,0 UV-I 0 W/m² 18,3 °C 21,3 °C 3,2 km/h (1 Bft)
02.08.2018 21:44 21,3 °C 83 % 1018,1 hPa 0,0 mm 1,9 km/h (1 Bft) N 9 ° 0 min 0,000 mm 0,0 UV-I 0 W/m² 18,3 °C 21,3 °C 4,8 km/h (1 Bft)
02.08.2018 21:45 21,2 °C 83 % 1018,1 hPa 0,0 mm 2,6 km/h (1 Bft) W-NW 301 ° 0 min 0,000 mm 0,0 UV-I 0 W/m² 18,2 °C 21,2 °C 4,8 km/h (1 Bft)
02.08.2018 21:46 21,2 °C 83 % 1018,1 hPa 0,0 mm 4,0 km/h (1 Bft) S-SW 211 ° 0 min 0,000 mm 0,0 UV-I 0 W/m² 18,2 °C 21,2 °C 6,4 km/h (2 Bft)
02.08.2018 21:47 21,1 °C 82 % 1018,1 hPa 0,0 mm 4,0 km/h (1 Bft) W 279 ° 0 min 0,000 mm 0,0 UV-I 0 W/m² 17,9 °C 21,1 °C 9,7 km/h (2 Bft)
02.08.2018 21:48 21,1 °C 82 % 1018,1 hPa 0,0 mm 4,6 km/h (1 Bft) W 263 ° 0 min 0,000 mm 0,0 UV-I 0 W/m² 17,9 °C 21,1 °C 6,4 km/h (2 Bft)
02.08.2018 21:49 21,1 °C 82 % 1018,1 hPa 0,0 mm 3,8 km/h (1 Bft) W-SW 242 ° 0 min 0,000 mm 0,0 UV-I 0 W/m² 17,9 °C 21,1 °C 4,8 km/h (1 Bft)
02.08.2018 21:50 20,9 °C 82 % 1018,2 hPa 0,0 mm 3,4 km/h (1 Bft) W-SW 257 ° 0 min 0,000 mm 0,0 UV-I 0 W/m² 17,7 °C 20,9 °C 4,8 km/h (1 Bft)
02.08.2018 21:51 20,9 °C 82 % 1018,2 hPa 0,0 mm 0,9 km/h (0 Bft) W-SW 247 ° 0 min 0,000 mm 0,0 UV-I 0 W/m² 17,7 °C 20,9 °C 3,2 km/h (1 Bft)
02.08.2018 21:52 20,8 °C 82 % 1018,2 hPa 0,0 mm 1,7 km/h (1 Bft) N-NW 329 ° 0 min 0,000 mm 0,0 UV-I 0 W/m² 17,6 °C 20,8 °C 6,4 km/h (2 Bft)
02.08.2018 21:53 20,7 °C 82 % 1018,3 hPa 0,0 mm 1,5 km/h (1 Bft) N-NW 330 ° 0 min 0,000 mm 0,0 UV-I 0 W/m² 17,5 °C 20,7 °C 3,2 km/h (1 Bft)
02.08.2018 21:54 20,7 °C 82 % 1018,2 hPa 0,0 mm 1,3 km/h (1 Bft) NW 326 ° 0 min 0,000 mm 0,0 UV-I 0 W/m² 17,5 °C 20,7 °C 3,2 km/h (1 Bft)
02.08.2018 21:55 20,6 °C 82 % 1018,3 hPa 0,0 mm 0,7 km/h (0 Bft) N-NW 327 ° 0 min 0,000 mm 0,0 UV-I 0 W/m² 17,4 °C 20,6 °C 3,2 km/h (1 Bft)
02.08.2018 21:56 20,5 °C 83 % 1018,2 hPa 0,0 mm 1,5 km/h (1 Bft) NW 310 ° 0 min 0,000 mm 0,0 UV-I 0 W/m² 17,5 °C 20,5 °C 4,8 km/h (1 Bft)
02.08.2018 21:57 20,4 °C 83 % 1018,3 hPa 0,0 mm 1,4 km/h (1 Bft) NW 310 ° 0 min 0,000 mm 0,0 UV-I 0 W/m² 17,4 °C 20,4 °C 3,2 km/h (1 Bft)
02.08.2018 21:58 20,4 °C 83 % 1018,3 hPa 0,0 mm 1,7 km/h (1 Bft) NW 310 ° 0 min 0,000 mm 0,0 UV-I 0 W/m² 17,4 °C 20,4 °C 3,2 km/h (1 Bft)
02.08.2018 21:59 20,3 °C 83 % 1018,3 hPa 0,0 mm 1,2 km/h (1 Bft) NW 310 ° 0 min 0,000 mm 0,0 UV-I 0 W/m² 17,3 °C 20,3 °C 1,6 km/h (1 Bft)
02.08.2018 22:00 20,3 °C 83 % 1018,3 hPa 0,0 mm 0,5 km/h (0 Bft) NW 310 ° 0 min 0,000 mm 0,0 UV-I 0 W/m² 17,3 °C 20,3 °C 1,6 km/h (1 Bft)
02.08.2018 22:01 20,3 °C 82 % 1018,3 hPa 0,0 mm 0,3 km/h (0 Bft) S 180 ° 0 min 0,000 mm 0,0 UV-I 0 W/m² 17,1 °C 20,3 °C 1,6 km/h (1 Bft)
02.08.2018 22:02 20,3 °C 82 % 1018,2 hPa 0,0 mm 1,7 km/h (1 Bft) N-NW 339 ° 0 min 0,000 mm 0,0 UV-I 0 W/m² 17,1 °C 20,3 °C 4,8 km/h (1 Bft)
02.08.2018 22:03 20,3 °C 82 % 1018,1 hPa 0,0 mm 5,0 km/h (1 Bft) SO 140 ° 0 min 0,000 mm 0,0 UV-I 0 W/m² 17,1 °C 20,3 °C 8,0 km/h (2 Bft)
02.08.2018 22:04 20,3 °C 81 % 1018,1 hPa 0,0 mm 3,1 km/h (1 Bft) O-NO 74 ° 0 min 0,000 mm 0,0 UV-I 0 W/m² 16,9 °C 20,3 °C 6,4 km/h (2 Bft)
02.08.2018 22:05 20,3 °C 82 % 1018,1 hPa 0,0 mm 2,4 km/h (1 Bft) O-NO 71 ° 0 min 0,000 mm 0,0 UV-I 0 W/m² 17,1 °C 20,3 °C 8,0 km/h (2 Bft)
02.08.2018 22:06 20,2 °C 82 % 1018,1 hPa 0,0 mm 1,2 km/h (1 Bft) N-NO 13 ° 0 min 0,000 mm 0,0 UV-I 0 W/m² 17,0 °C 20,2 °C 3,2 km/h (1 Bft)
02.08.2018 22:07 20,2 °C 82 % 1018,0 hPa 0,0 mm 0,5 km/h (0 Bft) N-NW 340 ° 0 min 0,000 mm 0,0 UV-I 0 W/m² 17,0 °C 20,2 °C 6,4 km/h (2 Bft)
02.08.2018 22:08 20,1 °C 82 % 1018,1 hPa 0,0 mm 2,6 km/h (1 Bft) NW 313 ° 0 min 0,000 mm 0,0 UV-I 0 W/m² 16,9 °C 20,1 °C 6,4 km/h (2 Bft)
02.08.2018 22:09 20,0 °C 82 % 1018,1 hPa 0,0 mm 1,3 km/h (1 Bft) W 275 ° 0 min 0,000 mm 0,0 UV-I 0 W/m² 16,8 °C 20,0 °C 3,2 km/h (1 Bft)
02.08.2018 22:10 19,9 °C 82 % 1018,1 hPa 0,0 mm 1,9 km/h (1 Bft) W 275 ° 0 min 0,000 mm 0,0 UV-I 0 W/m² 16,7 °C 19,9 °C 4,8 km/h (1 Bft)
02.08.2018 22:11 19,9 °C 82 % 1018,1 hPa 0,0 mm 2,7 km/h (1 Bft) S 185 ° 0 min 0,000 mm 0,0 UV-I 0 W/m² 16,7 °C 19,9 °C 8,0 km/h (2 Bft)
02.08.2018 22:12 19,9 °C 82 % 1018,1 hPa 0,0 mm 0,3 km/h (0 Bft) S 185 ° 0 min 0,000 mm 0,0 UV-I 0 W/m² 16,7 °C 19,9 °C 3,2 km/h (1 Bft)
02.08.2018 22:13 19,8 °C 82 % 1018,2 hPa 0,0 mm 1,7 km/h (1 Bft) W-SW 244 ° 0 min 0,000 mm 0,0 UV-I 0 W/m² 16,6 °C 19,8 °C 3,2 km/h (1 Bft)
02.08.2018 22:14 19,8 °C 82 % 1018,2 hPa 0,0 mm 1,1 km/h (1 Bft) W-SW 244 ° 0 min 0,000 mm 0,0 UV-I 0 W/m² 16,6 °C 19,8 °C 3,2 km/h (1 Bft)
02.08.2018 22:15 19,8 °C 81 % 1018,2 hPa 0,0 mm 0,5 km/h (0 Bft) W-SW 244 ° 0 min 0,000 mm 0,0 UV-I 0 W/m² 16,4 °C 19,8 °C 1,6 km/h (1 Bft)
02.08.2018 22:16 19,7 °C 81 % 1018,2 hPa 0,0 mm 2,4 km/h (1 Bft) W-NW 302 ° 0 min 0,000 mm 0,0 UV-I 0 W/m² 16,3 °C 19,7 °C 6,4 km/h (2 Bft)
02.08.2018 22:17 19,7 °C 81 % 1018,2 hPa 0,0 mm 3,8 km/h (1 Bft) S-SW 200 ° 0 min 0,000 mm 0,0 UV-I 0 W/m² 16,3 °C 19,7 °C 6,4 km/h (2 Bft)
02.08.2018 22:18 19,7 °C 81 % 1018,2 hPa 0,0 mm 2,4 km/h (1 Bft) W-SW 242 ° 0 min 0,000 mm 0,0 UV-I 0 W/m² 16,3 °C 19,7 °C 3,2 km/h (1 Bft)
02.08.2018 22:19 19,7 °C 81 % 1018,1 hPa 0,0 mm 2,8 km/h (1 Bft) SW 227 ° 0 min 0,000 mm 0,0 UV-I 0 W/m² 16,3 °C 19,7 °C 4,8 km/h (1 Bft)
02.08.2018 22:20 19,7 °C 81 % 1018,2 hPa 0,0 mm 1,0 km/h (0 Bft) SW 228 ° 0 min 0,000 mm 0,0 UV-I 0 W/m² 16,3 °C 19,7 °C 3,2 km/h (1 Bft)
02.08.2018 22:21 19,6 °C 81 % 1018,1 hPa 0,0 mm 0,4 km/h (0 Bft) SW 228 ° 0 min 0,000 mm 0,0 UV-I 0 W/m² 16,2 °C 19,6 °C 1,6 km/h (1 Bft)
02.08.2018 22:22 19,6 °C 82 % 1018,1 hPa 0,0 mm 0,0 km/h (0 Bft) SW 228 ° 0 min 0,000 mm 0,0 UV-I 0 W/m² 16,4 °C 19,6 °C 0,0 km/h (0 Bft)
02.08.2018 22:23 19,6 °C 81 % 1018,1 hPa 0,0 mm 1,1 km/h (1 Bft) SW 232 ° 0 min 0,000 mm 0,0 UV-I 0 W/m² 16,2 °C 19,6 °C 4,8 km/h (1 Bft)
02.08.2018 22:24 19,6 °C 81 % 1018,1 hPa 0,0 mm 0,0 km/h (0 Bft) SW 232 ° 0 min 0,000 mm 0,0 UV-I 0 W/m² 16,2 °C 19,6 °C 0,0 km/h (0 Bft)
02.08.2018 22:25 19,6 °C 81 % 1018,2 hPa 0,0 mm 0,5 km/h (0 Bft) SW 232 ° 0 min 0,000 mm 0,0 UV-I 0 W/m² 16,2 °C 19,6 °C 1,6 km/h (1 Bft)
02.08.2018 22:26 19,6 °C 81 % 1018,1 hPa 0,0 mm 0,3 km/h (0 Bft) SW 232 ° 0 min 0,000 mm 0,0 UV-I 0 W/m² 16,2 °C 19,6 °C 3,2 km/h (1 Bft)
02.08.2018 22:27 19,5 °C 81 % 1018,2 hPa 0,0 mm 1,8 km/h (1 Bft) SW 234 ° 0 min 0,000 mm 0,0 UV-I 0 W/m² 16,1 °C 19,5 °C 3,2 km/h (1 Bft)
02.08.2018 22:28 19,4 °C 81 % 1018,2 hPa 0,0 mm 0,1 km/h (0 Bft) SW 234 ° 0 min 0,000 mm 0,0 UV-I 0 W/m² 16,1 °C 19,4 °C 1,6 km/h (1 Bft)
02.08.2018 22:29 19,4 °C 81 % 1018,2 hPa 0,0 mm 0,1 km/h (0 Bft) SW 234 ° 0 min 0,000 mm 0,0 UV-I 0 W/m² 16,1 °C 19,4 °C 1,6 km/h (1 Bft)
02.08.2018 22:30 19,4 °C 81 % 1018,2 hPa 0,0 mm 0,6 km/h (0 Bft) SW 234 ° 0 min 0,000 mm 0,0 UV-I 0 W/m² 16,1 °C 19,4 °C 1,6 km/h (1 Bft)
02.08.2018 22:31 19,4 °C 81 % 1018,1 hPa 0,0 mm 0,9 km/h (0 Bft) SW 234 ° 0 min 0,000 mm 0,0 UV-I 0 W/m² 16,1 °C 19,4 °C 3,2 km/h (1 Bft)
02.08.2018 22:32 19,3 °C 82 % 1018,1 hPa 0,0 mm 0,3 km/h (0 Bft) SW 234 ° 0 min 0,000 mm 0,0 UV-I 0 W/m² 16,1 °C 19,3 °C 1,6 km/h (1 Bft)
02.08.2018 22:33 19,3 °C 82 % 1018,1 hPa 0,0 mm 0,1 km/h (0 Bft) SW 234 ° 0 min 0,000 mm 0,0 UV-I 0 W/m² 16,1 °C 19,3 °C 1,6 km/h (1 Bft)
02.08.2018 22:34 19,3 °C 82 % 1018,1 hPa 0,0 mm 0,2 km/h (0 Bft) SW 234 ° 0 min 0,000 mm 0,0 UV-I 0 W/m² 16,1 °C 19,3 °C 1,6 km/h (1 Bft)
02.08.2018 22:35 19,3 °C 82 % 1018,1 hPa 0,0 mm 0,1 km/h (0 Bft) S-SO 153 ° 0 min 0,000 mm 0,0 UV-I 0 W/m² 16,1 °C 19,3 °C 1,6 km/h (1 Bft)
02.08.2018 22:36 19,2 °C 82 % 1018,1 hPa 0,0 mm 0,2 km/h (0 Bft) S-SO 153 ° 0 min 0,000 mm 0,0 UV-I 0 W/m² 16,0 °C 19,2 °C 1,6 km/h (1 Bft)
02.08.2018 22:37 19,2 °C 82 % 1018,1 hPa 0,0 mm 0,0 km/h (0 Bft) S-SO 153 ° 0 min 0,000 mm 0,0 UV-I 0 W/m² 16,0 °C 19,2 °C 0,0 km/h (0 Bft)
02.08.2018 22:38 19,1 °C 82 % 1018,2 hPa 0,0 mm 0,0 km/h (0 Bft) S-SO 153 ° 0 min 0,000 mm 0,0 UV-I 0 W/m² 16,0 °C 19,1 °C 0,0 km/h (0 Bft)
02.08.2018 22:39 19,1 °C 82 % 1018,2 hPa 0,0 mm 0,0 km/h (0 Bft) S-SO 153 ° 0 min 0,000 mm 0,0 UV-I 0 W/m² 16,0 °C 19,1 °C 0,0 km/h (0 Bft)
02.08.2018 22:40 19,1 °C 82 % 1018,2 hPa 0,0 mm 0,0 km/h (0 Bft) S-SO 153 ° 0 min 0,000 mm 0,0 UV-I 0 W/m² 16,0 °C 19,1 °C 0,0 km/h (0 Bft)
02.08.2018 22:41 19,1 °C 82 % 1018,2 hPa 0,0 mm 0,0 km/h (0 Bft) S-SO 153 ° 0 min 0,000 mm 0,0 UV-I 0 W/m² 16,0 °C 19,1 °C 0,0 km/h (0 Bft)
02.08.2018 22:42 19,1 °C 82 % 1018,2 hPa 0,0 mm 0,1 km/h (0 Bft) S-SO 153 ° 0 min 0,000 mm 0,0 UV-I 0 W/m² 16,0 °C 19,1 °C 1,6 km/h (1 Bft)
02.08.2018 22:43 19,1 °C 82 % 1018,2 hPa 0,0 mm 1,2 km/h (1 Bft) S-SO 153 ° 0 min 0,000 mm 0,0 UV-I 0 W/m² 16,0 °C 19,1 °C 3,2 km/h (1 Bft)
02.08.2018 22:44 19,1 °C 83 % 1018,2 hPa 0,0 mm 0,6 km/h (0 Bft) S-SO 153 ° 0 min 0,000 mm 0,0 UV-I 0 W/m² 16,1 °C 19,1 °C 1,6 km/h (1 Bft)
02.08.2018 22:45 19,1 °C 84 % 1018,2 hPa 0,0 mm 0,0 km/h (0 Bft) S-SO 153 ° 0 min 0,000 mm 0,0 UV-I 0 W/m² 16,3 °C 19,1 °C 0,0 km/h (0 Bft)
02.08.2018 22:46 19,0 °C 83 % 1018,2 hPa 0,0 mm 1,8 km/h (1 Bft) N-NO 32 ° 0 min 0,000 mm 0,0 UV-I 0 W/m² 16,0 °C 19,0 °C 4,8 km/h (1 Bft)
02.08.2018 22:47 19,1 °C 83 % 1018,3 hPa 0,0 mm 0,9 km/h (0 Bft) N-NO 32 ° 0 min 0,000 mm 0,0 UV-I 0 W/m² 16,1 °C 19,1 °C 3,2 km/h (1 Bft)
02.08.2018 22:48 19,2 °C 82 % 1018,3 hPa 0,0 mm 0,5 km/h (0 Bft) N-NO 32 ° 0 min 0,000 mm 0,0 UV-I 0 W/m² 16,0 °C 19,2 °C 1,6 km/h (1 Bft)
02.08.2018 22:49 19,3 °C 82 % 1018,2 hPa 0,0 mm 1,0 km/h (0 Bft) W-NW 298 ° 0 min 0,000 mm 0,0 UV-I 0 W/m² 16,1 °C 19,3 °C 4,8 km/h (1 Bft)
02.08.2018 22:50 19,4 °C 82 % 1018,2 hPa 0,0 mm 2,9 km/h (1 Bft) N-NW 337 ° 0 min 0,000 mm 0,0 UV-I 0 W/m² 16,2 °C 19,4 °C 4,8 km/h (1 Bft)
02.08.2018 22:51 19,5 °C 82 % 1018,2 hPa 0,0 mm 1,1 km/h (1 Bft) N-NW 329 ° 0 min 0,000 mm 0,0 UV-I 0 W/m² 16,3 °C 19,5 °C 3,2 km/h (1 Bft)
02.08.2018 22:52 19,6 °C 82 % 1018,2 hPa 0,0 mm 0,8 km/h (0 Bft) NW 317 ° 0 min 0,000 mm 0,0 UV-I 0 W/m² 16,4 °C 19,6 °C 3,2 km/h (1 Bft)
02.08.2018 22:53 19,5 °C 82 % 1018,2 hPa 0,0 mm 0,8 km/h (0 Bft) N-NW 331 ° 0 min 0,000 mm 0,0 UV-I 0 W/m² 16,3 °C 19,5 °C 3,2 km/h (1 Bft)
02.08.2018 22:54 19,4 °C 82 % 1018,2 hPa 0,0 mm 0,1 km/h (0 Bft) N-NW 331 ° 0 min 0,000 mm 0,0 UV-I 0 W/m² 16,2 °C 19,4 °C 1,6 km/h (1 Bft)
02.08.2018 22:55 19,4 °C 82 % 1018,2 hPa 0,0 mm 0,4 km/h (0 Bft) N-NW 331 ° 0 min 0,000 mm 0,0 UV-I 0 W/m² 16,2 °C 19,4 °C 1,6 km/h (1 Bft)
02.08.2018 22:56 19,3 °C 83 % 1018,2 hPa 0,0 mm 0,0 km/h (0 Bft) N-NW 331 ° 0 min 0,000 mm 0,0 UV-I 0 W/m² 16,3 °C 19,3 °C 0,0 km/h (0 Bft)
02.08.2018 22:57 19,2 °C 83 % 1018,3 hPa 0,0 mm 0,0 km/h (0 Bft) N-NW 331 ° 0 min 0,000 mm 0,0 UV-I 0 W/m² 16,2 °C 19,2 °C 0,0 km/h (0 Bft)
02.08.2018 22:58 19,2 °C 83 % 1018,2 hPa 0,0 mm 0,7 km/h (0 Bft) N-NW 331 ° 0 min 0,000 mm 0,0 UV-I 0 W/m² 16,2 °C 19,2 °C 1,6 km/h (1 Bft)
02.08.2018 22:59 19,2 °C 83 % 1018,3 hPa 0,0 mm 0,9 km/h (0 Bft) N-NW 331 ° 0 min 0,000 mm 0,0 UV-I 0 W/m² 16,2 °C 19,2 °C 3,2 km/h (1 Bft)
02.08.2018 23:00 19,2 °C 83 % 1018,3 hPa 0,0 mm 1,4 km/h (1 Bft) N-NW 331 ° 0 min 0,000 mm 0,0 UV-I 0 W/m² 16,2 °C 19,2 °C 3,2 km/h (1 Bft)
02.08.2018 23:01 19,1 °C 83 % 1018,2 hPa 0,0 mm 1,7 km/h (1 Bft) W 275 ° 0 min 0,026 mm 0,0 UV-I 0 W/m² 16,1 °C 19,1 °C 4,8 km/h (1 Bft)
02.08.2018 23:02 19,1 °C 83 % 1018,2 hPa 0,0 mm 0,1 km/h (0 Bft) W 275 ° 0 min 0,000 mm 0,0 UV-I 0 W/m² 16,1 °C 19,1 °C 1,6 km/h (1 Bft)
02.08.2018 23:03 19,0 °C 84 % 1018,2 hPa 0,0 mm 0,0 km/h (0 Bft) W 275 ° 0 min 0,000 mm 0,0 UV-I 0 W/m² 16,2 °C 19,0 °C 0,0 km/h (0 Bft)
02.08.2018 23:04 18,9 °C 84 % 1018,2 hPa 0,0 mm 0,1 km/h (0 Bft) W-NW 299 ° 0 min 0,000 mm 0,0 UV-I 0 W/m² 16,1 °C 18,9 °C 1,6 km/h (1 Bft)
02.08.2018 23:05 18,9 °C 84 % 1018,1 hPa 0,0 mm 3,1 km/h (1 Bft) N-NW 327 ° 0 min 0,000 mm 0,0 UV-I 0 W/m² 16,1 °C 18,9 °C 4,8 km/h (1 Bft)
02.08.2018 23:06 18,8 °C 84 % 1018,1 hPa 0,0 mm 0,6 km/h (0 Bft) N-NW 327 ° 0 min 0,000 mm 0,0 UV-I 0 W/m² 16,0 °C 18,8 °C 3,2 km/h (1 Bft)
02.08.2018 23:07 18,8 °C 84 % 1018,1 hPa 0,0 mm 0,1 km/h (0 Bft) N-NW 327 ° 0 min 0,000 mm 0,0 UV-I 0 W/m² 16,0 °C 18,8 °C 1,6 km/h (1 Bft)
02.08.2018 23:08 18,8 °C 84 % 1018,1 hPa 0,0 mm 0,0 km/h (0 Bft) N-NW 327 ° 0 min 0,000 mm 0,0 UV-I 0 W/m² 16,0 °C 18,8 °C 0,0 km/h (0 Bft)
02.08.2018 23:09 18,7 °C 84 % 1018,1 hPa 0,0 mm 0,0 km/h (0 Bft) N-NW 327 ° 0 min 0,000 mm 0,0 UV-I 0 W/m² 15,9 °C 18,7 °C 0,0 km/h (0 Bft)
02.08.2018 23:10 18,7 °C 85 % 1018,1 hPa 0,0 mm 0,0 km/h (0 Bft) N-NW 327 ° 0 min 0,000 mm 0,0 UV-I 0 W/m² 16,1 °C 18,7 °C 0,0 km/h (0 Bft)
02.08.2018 23:11 18,7 °C 85 % 1018,1 hPa 0,0 mm 0,0 km/h (0 Bft) N-NW 327 ° 0 min 0,000 mm 0,0 UV-I 0 W/m² 16,1 °C 18,7 °C 0,0 km/h (0 Bft)
02.08.2018 23:12 18,7 °C 85 % 1018,1 hPa 0,0 mm 0,0 km/h (0 Bft) N-NW 327 ° 0 min 0,000 mm 0,0 UV-I 0 W/m² 16,1 °C 18,7 °C 0,0 km/h (0 Bft)
02.08.2018 23:13 18,7 °C 85 % 1018,1 hPa 0,0 mm 0,0 km/h (0 Bft) N-NW 327 ° 0 min 0,000 mm 0,0 UV-I 0 W/m² 16,1 °C 18,7 °C 0,0 km/h (0 Bft)
02.08.2018 23:14 18,6 °C 85 % 1018,1 hPa 0,0 mm 0,0 km/h (0 Bft) N-NW 327 ° 0 min 0,000 mm 0,0 UV-I 0 W/m² 16,0 °C 18,6 °C 0,0 km/h (0 Bft)
02.08.2018 23:15 18,6 °C 85 % 1018,2 hPa 0,0 mm 0,0 km/h (0 Bft) N-NW 327 ° 0 min 0,000 mm 0,0 UV-I 0 W/m² 16,0 °C 18,6 °C 0,0 km/h (0 Bft)
02.08.2018 23:16 18,6 °C 86 % 1018,2 hPa 0,0 mm 0,0 km/h (0 Bft) N-NW 327 ° 0 min 0,000 mm 0,0 UV-I 0 W/m² 16,2 °C 18,6 °C 0,0 km/h (0 Bft)
02.08.2018 23:17 18,6 °C 86 % 1018,2 hPa 0,0 mm 0,0 km/h (0 Bft) N-NW 327 ° 0 min 0,000 mm 0,0 UV-I 0 W/m² 16,2 °C 18,6 °C 0,0 km/h (0 Bft)
02.08.2018 23:18 18,5 °C 86 % 1018,2 hPa 0,0 mm 0,0 km/h (0 Bft) N-NW 327 ° 0 min 0,000 mm 0,0 UV-I 0 W/m² 16,1 °C 18,5 °C 0,0 km/h (0 Bft)
02.08.2018 23:19 18,5 °C 86 % 1018,2 hPa 0,0 mm 0,0 km/h (0 Bft) N-NW 327 ° 0 min 0,000 mm 0,0 UV-I 0 W/m² 16,1 °C 18,5 °C 0,0 km/h (0 Bft)
02.08.2018 23:20 18,4 °C 85 % 1018,2 hPa 0,0 mm 0,0 km/h (0 Bft) N-NW 327 ° 0 min 0,000 mm 0,0 UV-I 0 W/m² 15,8 °C 18,4 °C 0,0 km/h (0 Bft)
02.08.2018 23:21 18,4 °C 86 % 1018,2 hPa 0,0 mm 0,0 km/h (0 Bft) N-NW 327 ° 0 min 0,000 mm 0,0 UV-I 0 W/m² 16,0 °C 18,4 °C 0,0 km/h (0 Bft)
02.08.2018 23:22 18,4 °C 86 % 1018,2 hPa 0,0 mm 0,0 km/h (0 Bft) N-NW 327 ° 0 min 0,000 mm 0,0 UV-I 0 W/m² 16,0 °C 18,4 °C 0,0 km/h (0 Bft)
02.08.2018 23:23 18,4 °C 86 % 1018,2 hPa 0,0 mm 0,3 km/h (0 Bft) W-NW 300 ° 0 min 0,000 mm 0,0 UV-I 0 W/m² 16,0 °C 18,4 °C 1,6 km/h (1 Bft)
02.08.2018 23:24 18,3 °C 86 % 1018,2 hPa 0,0 mm 0,1 km/h (0 Bft) W-NW 300 ° 0 min 0,000 mm 0,0 UV-I 0 W/m² 15,9 °C 18,3 °C 1,6 km/h (1 Bft)
02.08.2018 23:25 18,3 °C 86 % 1018,2 hPa 0,0 mm 0,1 km/h (0 Bft) W-NW 300 ° 0 min 0,000 mm 0,0 UV-I 0 W/m² 15,9 °C 18,3 °C 1,6 km/h (1 Bft)
02.08.2018 23:26 18,3 °C 86 % 1018,2 hPa 0,0 mm 0,0 km/h (0 Bft) W-NW 300 ° 0 min 0,000 mm 0,0 UV-I 0 W/m² 15,9 °C 18,3 °C 0,0 km/h (0 Bft)
02.08.2018 23:27 18,2 °C 86 % 1018,2 hPa 0,0 mm 0,0 km/h (0 Bft) W-NW 300 ° 0 min 0,000 mm 0,0 UV-I 0 W/m² 15,8 °C 18,2 °C 0,0 km/h (0 Bft)
02.08.2018 23:28 18,2 °C 87 % 1018,2 hPa 0,0 mm 0,1 km/h (0 Bft) N-NW 338 ° 0 min 0,000 mm 0,0 UV-I 0 W/m² 16,0 °C 18,2 °C 1,6 km/h (1 Bft)
02.08.2018 23:29 18,2 °C 87 % 1018,1 hPa 0,0 mm 0,2 km/h (0 Bft) N-NW 338 ° 0 min 0,000 mm 0,0 UV-I 0 W/m² 16,0 °C 18,2 °C 1,6 km/h (1 Bft)
02.08.2018 23:30 18,2 °C 87 % 1018,1 hPa 0,0 mm 0,4 km/h (0 Bft) N-NW 338 ° 0 min 0,000 mm 0,0 UV-I 0 W/m² 16,0 °C 18,2 °C 1,6 km/h (1 Bft)
02.08.2018 23:31 18,1 °C 87 % 1018,2 hPa 0,0 mm 0,0 km/h (0 Bft) N-NW 338 ° 0 min 0,000 mm 0,0 UV-I 0 W/m² 15,9 °C 18,1 °C 0,0 km/h (0 Bft)
02.08.2018 23:32 18,1 °C 87 % 1018,2 hPa 0,0 mm 0,0 km/h (0 Bft) N-NW 338 ° 0 min 0,000 mm 0,0 UV-I 0 W/m² 15,9 °C 18,1 °C 0,0 km/h (0 Bft)
02.08.2018 23:33 18,1 °C 87 % 1018,2 hPa 0,0 mm 0,0 km/h (0 Bft) N-NW 338 ° 0 min 0,000 mm 0,0 UV-I 0 W/m² 15,9 °C 18,1 °C 0,0 km/h (0 Bft)
02.08.2018 23:34 18,1 °C 88 % 1018,2 hPa 0,0 mm 0,0 km/h (0 Bft) N-NW 338 ° 0 min 0,000 mm 0,0 UV-I 0 W/m² 16,1 °C 18,1 °C 0,0 km/h (0 Bft)
02.08.2018 23:35 18,1 °C 88 % 1018,1 hPa 0,0 mm 0,1 km/h (0 Bft) N-NW 338 ° 0 min 0,000 mm 0,0 UV-I 0 W/m² 16,1 °C 18,1 °C 1,6 km/h (1 Bft)
02.08.2018 23:36 18,1 °C 87 % 1018,2 hPa 0,0 mm 0,1 km/h (0 Bft) N-NW 338 ° 0 min 0,000 mm 0,0 UV-I 0 W/m² 15,9 °C 18,1 °C 1,6 km/h (1 Bft)
02.08.2018 23:37 18,1 °C 88 % 1018,2 hPa 0,0 mm 0,0 km/h (0 Bft) N-NW 338 ° 0 min 0,000 mm 0,0 UV-I 0 W/m² 16,1 °C 18,1 °C 0,0 km/h (0 Bft)
02.08.2018 23:38 18,1 °C 88 % 1018,2 hPa 0,0 mm 0,1 km/h (0 Bft) N-NW 338 ° 0 min 0,000 mm 0,0 UV-I 0 W/m² 16,1 °C 18,1 °C 1,6 km/h (1 Bft)
02.08.2018 23:39 18,1 °C 88 % 1018,2 hPa 0,0 mm 0,1 km/h (0 Bft) N-NW 338 ° 0 min 0,000 mm 0,0 UV-I 0 W/m² 16,1 °C 18,1 °C 1,6 km/h (1 Bft)
02.08.2018 23:40 18,0 °C 88 % 1018,2 hPa 0,0 mm 0,0 km/h (0 Bft) N-NW 338 ° 0 min 0,000 mm 0,0 UV-I 0 W/m² 16,0 °C 18,0 °C 0,0 km/h (0 Bft)
02.08.2018 23:41 18,1 °C 88 % 1018,3 hPa 0,0 mm 0,0 km/h (0 Bft) N-NW 338 ° 0 min 0,000 mm 0,0 UV-I 0 W/m² 16,1 °C 18,1 °C 0,0 km/h (0 Bft)
02.08.2018 23:42 18,0 °C 88 % 1018,3 hPa 0,0 mm 0,0 km/h (0 Bft) N-NW 338 ° 0 min 0,000 mm 0,0 UV-I 0 W/m² 16,0 °C 18,0 °C 0,0 km/h (0 Bft)
02.08.2018 23:43 17,9 °C 88 % 1018,3 hPa 0,0 mm 0,7 km/h (0 Bft) N-NW 338 ° 0 min 0,000 mm 0,0 UV-I 0 W/m² 15,9 °C 17,9 °C 3,2 km/h (1 Bft)
02.08.2018 23:44 17,9 °C 88 % 1018,2 hPa 0,0 mm 0,0 km/h (0 Bft) N-NW 338 ° 0 min 0,000 mm 0,0 UV-I 0 W/m² 15,9 °C 17,9 °C 0,0 km/h (0 Bft)
02.08.2018 23:45 17,9 °C 88 % 1018,3 hPa 0,0 mm 0,4 km/h (0 Bft) N-NW 338 ° 0 min 0,000 mm 0,0 UV-I 0 W/m² 15,9 °C 17,9 °C 3,2 km/h (1 Bft)
02.08.2018 23:46 17,9 °C 88 % 1018,3 hPa 0,0 mm 3,5 km/h (1 Bft) N-NW 346 ° 0 min 0,000 mm 0,0 UV-I 0 W/m² 15,9 °C 17,9 °C 4,8 km/h (1 Bft)
02.08.2018 23:47 17,9 °C 88 % 1018,3 hPa 0,0 mm 1,2 km/h (1 Bft) N-NW 346 ° 0 min 0,000 mm 0,0 UV-I 0 W/m² 15,9 °C 17,9 °C 3,2 km/h (1 Bft)
02.08.2018 23:48 17,9 °C 88 % 1018,3 hPa 0,0 mm 0,0 km/h (0 Bft) N-NW 346 ° 0 min 0,000 mm 0,0 UV-I 0 W/m² 15,9 °C 17,9 °C 0,0 km/h (0 Bft)
02.08.2018 23:49 17,9 °C 88 % 1018,3 hPa 0,0 mm 0,1 km/h (0 Bft) N-NW 346 ° 0 min 0,000 mm 0,0 UV-I 0 W/m² 15,9 °C 17,9 °C 1,6 km/h (1 Bft)
02.08.2018 23:50 17,9 °C 88 % 1018,3 hPa 0,0 mm 1,2 km/h (1 Bft) N-NW 346 ° 0 min 0,000 mm 0,0 UV-I 0 W/m² 15,9 °C 17,9 °C 1,6 km/h (1 Bft)
02.08.2018 23:51 17,9 °C 88 % 1018,3 hPa 0,0 mm 1,4 km/h (1 Bft) N-NW 346 ° 0 min 0,000 mm 0,0 UV-I 0 W/m² 15,9 °C 17,9 °C 4,8 km/h (1 Bft)
02.08.2018 23:52 17,9 °C 88 % 1018,3 hPa 0,0 mm 0,3 km/h (0 Bft) N-NW 346 ° 0 min 0,000 mm 0,0 UV-I 0 W/m² 15,9 °C 17,9 °C 1,6 km/h (1 Bft)
02.08.2018 23:53 18,0 °C 89 % 1018,3 hPa 0,0 mm 0,0 km/h (0 Bft) N-NW 346 ° 0 min 0,000 mm 0,0 UV-I 0 W/m² 16,2 °C 18,0 °C 0,0 km/h (0 Bft)
02.08.2018 23:54 18,1 °C 89 % 1018,3 hPa 0,0 mm 0,0 km/h (0 Bft) N-NW 346 ° 0 min 0,000 mm 0,0 UV-I 0 W/m² 16,3 °C 18,1 °C 0,0 km/h (0 Bft)
02.08.2018 23:55 18,2 °C 88 % 1018,3 hPa 0,0 mm 0,0 km/h (0 Bft) N-NW 346 ° 0 min 0,000 mm 0,0 UV-I 0 W/m² 16,2 °C 18,2 °C 0,0 km/h (0 Bft)
02.08.2018 23:56 18,2 °C 88 % 1018,4 hPa 0,0 mm 0,5 km/h (0 Bft) N-NW 346 ° 0 min 0,000 mm 0,0 UV-I 0 W/m² 16,2 °C 18,2 °C 1,6 km/h (1 Bft)
02.08.2018 23:57 18,2 °C 88 % 1018,4 hPa 0,0 mm 1,2 km/h (1 Bft) N 9 ° 0 min 0,000 mm 0,0 UV-I 0 W/m² 16,2 °C 18,2 °C 1,6 km/h (1 Bft)
02.08.2018 23:58 18,3 °C 88 % 1018,4 hPa 0,0 mm 3,5 km/h (1 Bft) O 98 ° 0 min 0,000 mm 0,0 UV-I 0 W/m² 16,3 °C 18,3 °C 4,8 km/h (1 Bft)
02.08.2018 23:59 18,3 °C 88 % 1018,4 hPa 0,0 mm 2,5 km/h (1 Bft) NO 45 ° 0 min 0,000 mm 0,0 UV-I 0 W/m² 16,3 °C 18,3 °C 4,8 km/h (1 Bft)
_ Min-Zeit 06:28 17:33 02:48 - 23:55 - - - - - - 05:54 06:28 23:55
Minimum _ 16,1 °C 63 % 1016,1 hPa - 0,0 km/h (0 Bft) - - - - - - 15,1 °C 16,1 °C 0,0 km/h (0 Bft)
_ Max-Zeit 17:22 07:33 23:59 11:20 15:05 - - 15:33 16:01 13:36 13:37 15:15 17:22 12:27
Maximum _ 26,3 °C 94 % 1018,4 hPa 0,2 mm 10,6 km/h
NW (2 Bft)
- - 2 min 0,457 mm 6,6 UV-I 893 W/m² 19,9 °C 26,3 °C 17,7 km/h
N-NW (3 Bft)
Durchschnitt _ 20,9 °C 81 % 1017,2 hPa #0,2 mm 2,4 km/h (1 Bft) W - #3:06 h #3,277 mm 3,2 UV-I 204 W/m² 17,4 °C 20,9 °C 4,4 km/h (1 Bft)